Time,TemperatureF,DewpointF,PressureIn,WindDirection,WindDirectionDegrees,WindSpeedMPH,WindSpeedGustMPH,Humidity,HourlyPrecipIn,Conditions,Clouds,dailyrainin,SoftwareType,DateUTC
2013-05-18 00:00:00,59.7,42.1,30.09,WSW,240,0.0,2.0,52,0.00,,,0.00,VWS V14.01,2013-05-18 04:00:00,
2013-05-18 00:01:00,59.7,42.1,30.09,WSW,240,0.0,0.0,52,0.00,,,0.00,VWS V14.01,2013-05-18 04:01:00,
2013-05-18 00:02:00,59.7,42.6,30.09,WSW,240,0.0,0.0,53,0.00,,,0.00,VWS V14.01,2013-05-18 04:02:00,
2013-05-18 00:03:00,59.7,42.6,30.09,WSW,240,0.0,0.0,53,0.00,,,0.00,VWS V14.01,2013-05-18 04:03:00,
2013-05-18 00:04:00,59.7,42.6,30.09,WSW,240,0.0,0.0,53,0.00,,,0.00,VWS V14.01,2013-05-18 04:04:00,
2013-05-18 00:05:00,59.7,43.0,30.09,WSW,240,0.0,0.0,54,0.00,,,0.00,VWS V14.01,2013-05-18 04:05:00,
2013-05-18 00:06:00,59.6,42.5,30.09,WSW,240,0.0,0.0,53,0.00,,,0.00,VWS V14.01,2013-05-18 04:06:00,
2013-05-18 00:07:00,59.6,43.0,30.09,WSW,240,0.0,0.0,54,0.00,,,0.00,VWS V14.01,2013-05-18 04:07:00,
2013-05-18 00:08:00,59.6,42.5,30.09,SW,234,0.0,1.0,53,0.00,,,0.00,VWS V14.01,2013-05-18 04:08:00,
2013-05-18 00:09:00,59.6,42.5,30.09,SSW,213,0.0,1.0,53,0.00,,,0.00,VWS V14.01,2013-05-18 04:09:00,
2013-05-18 00:10:00,59.5,42.4,30.09,SSW,213,0.0,1.0,53,0.00,,,0.00,VWS V14.01,2013-05-18 04:10:00,
2013-05-18 00:11:00,59.5,42.4,30.09,SSW,213,0.0,1.0,53,0.00,,,0.00,VWS V14.01,2013-05-18 04:11:00,
2013-05-18 00:12:00,59.5,42.4,30.09,SSW,213,0.0,1.0,53,0.00,,,0.00,VWS V14.01,2013-05-18 04:12:00,
2013-05-18 00:13:00,59.5,42.4,30.09,SSW,213,0.0,1.0,53,0.00,,,0.00,VWS V14.01,2013-05-18 04:13:00,
2013-05-18 00:14:00,59.5,41.9,30.09,SSW,213,0.0,1.0,52,0.00,,,0.00,VWS V14.01,2013-05-18 04:14:00,
2013-05-18 00:15:00,59.4,41.8,30.09,SSW,213,0.0,1.0,52,0.00,,,0.00,VWS V14.01,2013-05-18 04:15:00,
2013-05-18 00:16:00,59.4,42.3,30.09,SSW,213,0.0,1.0,53,0.00,,,0.00,VWS V14.01,2013-05-18 04:16:00,
2013-05-18 00:17:00,59.4,42.3,30.09,SSW,211,0.0,1.0,53,0.00,,,0.00,VWS V14.01,2013-05-18 04:17:00,
2013-05-18 00:18:00,59.4,42.3,30.09,NNW,334,0.0,1.0,53,0.00,,,0.00,VWS V14.01,2013-05-18 04:18:00,
2013-05-18 00:19:00,59.4,42.3,30.09,NNW,334,0.0,1.0,53,0.00,,,0.00,VWS V14.01,2013-05-18 04:19:00,
2013-05-18 00:20:00,59.4,42.3,30.09,NNW,327,0.0,1.0,53,0.00,,,0.00,VWS V14.01,2013-05-18 04:20:00,
2013-05-18 00:21:00,59.4,41.8,30.09,NW,326,0.0,1.0,52,0.00,,,0.00,VWS V14.01,2013-05-18 04:21:00,
2013-05-18 00:22:00,59.4,42.3,30.09,NNW,327,0.0,1.0,53,0.00,,,0.00,VWS V14.01,2013-05-18 04:22:00,
2013-05-18 00:23:00,59.4,42.8,30.09,NW,326,0.0,1.0,54,0.00,,,0.00,VWS V14.01,2013-05-18 04:23:00,
2013-05-18 00:24:00,59.4,42.8,30.09,NNW,327,0.0,1.0,54,0.00,,,0.00,VWS V14.01,2013-05-18 04:24:00,
2013-05-18 00:25:00,59.4,42.8,30.09,NW,326,0.0,1.0,54,0.00,,,0.00,VWS V14.01,2013-05-18 04:25:00,
2013-05-18 00:26:00,59.3,42.7,30.09,NW,326,0.0,1.0,54,0.00,,,0.00,VWS V14.01,2013-05-18 04:26:00,
2013-05-18 00:27:00,59.3,42.7,30.09,NNW,327,0.0,1.0,54,0.00,,,0.00,VWS V14.01,2013-05-18 04:27:00,
2013-05-18 00:28:00,59.3,42.2,30.08,NNW,327,0.0,1.0,53,0.00,,,0.00,VWS V14.01,2013-05-18 04:28:00,
2013-05-18 00:29:00,59.3,42.2,30.09,NNW,327,0.0,1.0,53,0.00,,,0.00,VWS V14.01,2013-05-18 04:29:00,
2013-05-18 00:30:00,59.2,42.6,30.09,NNW,327,0.0,1.0,54,0.00,,,0.00,VWS V14.01,2013-05-18 04:30:00,
2013-05-18 00:31:00,59.2,42.6,30.09,NNW,327,0.0,0.0,54,0.00,,,0.00,VWS V14.01,2013-05-18 04:31:00,
2013-05-18 00:32:00,59.2,42.6,30.09,NW,325,0.0,0.0,54,0.00,,,0.00,VWS V14.01,2013-05-18 04:32:00,
2013-05-18 00:33:00,59.1,42.0,30.09,NW,325,0.0,0.0,53,0.00,,,0.00,VWS V14.01,2013-05-18 04:33:00,
2013-05-18 00:34:00,59.1,42.0,30.09,NW,326,0.0,0.0,53,0.00,,,0.00,VWS V14.01,2013-05-18 04:34:00,
2013-05-18 00:35:00,59.1,42.0,30.09,NW,326,0.0,0.0,53,0.00,,,0.00,VWS V14.01,2013-05-18 04:35:00,
2013-05-18 00:36:00,59.1,42.5,30.09,NW,326,0.0,0.0,54,0.00,,,0.00,VWS V14.01,2013-05-18 04:36:00,
2013-05-18 00:37:00,59.1,42.5,30.09,NW,326,0.0,0.0,54,0.00,,,0.00,VWS V14.01,2013-05-18 04:37:00,
2013-05-18 00:38:00,59.1,42.5,30.09,NW,326,0.0,0.0,54,0.00,,,0.00,VWS V14.01,2013-05-18 04:38:00,
2013-05-18 00:39:00,59.1,43.0,30.09,NW,326,0.0,0.0,55,0.00,,,0.00,VWS V14.01,2013-05-18 04:39:00,
2013-05-18 00:40:00,59.1,42.5,30.09,NW,326,0.0,0.0,54,0.00,,,0.00,VWS V14.01,2013-05-18 04:40:00,
2013-05-18 00:41:00,59.1,42.5,30.09,NW,326,0.0,0.0,54,0.00,,,0.00,VWS V14.01,2013-05-18 04:41:00,
2013-05-18 00:42:00,59.1,43.0,30.09,NW,326,0.0,0.0,55,0.00,,,0.00,VWS V14.01,2013-05-18 04:42:00,
2013-05-18 00:43:00,59.0,42.9,30.09,NW,326,0.0,0.0,55,0.00,,,0.00,VWS V14.01,2013-05-18 04:43:00,
2013-05-18 00:44:00,59.0,43.3,30.09,NW,326,0.0,0.0,56,0.00,,,0.00,VWS V14.01,2013-05-18 04:44:00,
2013-05-18 00:45:00,59.0,42.9,30.09,NW,326,0.0,0.0,55,0.00,,,0.00,VWS V14.01,2013-05-18 04:45:00,
2013-05-18 00:46:00,59.0,42.9,30.09,NW,326,0.0,0.0,55,0.00,,,0.00,VWS V14.01,2013-05-18 04:46:00,
2013-05-18 00:47:00,59.0,42.9,30.09,NW,326,0.0,0.0,55,0.00,,,0.00,VWS V14.01,2013-05-18 04:47:00,
2013-05-18 00:48:00,59.0,42.9,30.09,NW,326,0.0,0.0,55,0.00,,,0.00,VWS V14.01,2013-05-18 04:48:00,
2013-05-18 00:49:00,59.0,43.3,30.09,NW,326,0.0,0.0,56,0.00,,,0.00,VWS V14.01,2013-05-18 04:49:00,
2013-05-18 00:50:00,59.0,43.3,30.09,NW,326,0.0,0.0,56,0.00,,,0.00,VWS V14.01,2013-05-18 04:50:00,
2013-05-18 00:51:00,59.0,43.3,30.09,NW,326,0.0,0.0,56,0.00,,,0.00,VWS V14.01,2013-05-18 04:51:00,
2013-05-18 00:52:00,59.0,43.3,30.09,NW,326,0.0,0.0,56,0.00,,,0.00,VWS V14.01,2013-05-18 04:52:00,
2013-05-18 00:53:00,59.0,43.3,30.09,NW,326,0.0,0.0,56,0.00,,,0.00,VWS V14.01,2013-05-18 04:53:00,
2013-05-18 00:54:00,59.0,43.3,30.09,NW,326,0.0,0.0,56,0.00,,,0.00,VWS V14.01,2013-05-18 04:54:00,
2013-05-18 00:55:00,59.0,43.3,30.09,NW,326,0.0,0.0,56,0.00,,,0.00,VWS V14.01,2013-05-18 04:55:00,
2013-05-18 00:56:00,59.0,43.3,30.09,NW,326,0.0,0.0,56,0.00,,,0.00,VWS V14.01,2013-05-18 04:56:00,
2013-05-18 00:57:00,59.0,43.8,30.09,NW,326,0.0,0.0,57,0.00,,,0.00,VWS V14.01,2013-05-18 04:57:00,
2013-05-18 00:58:00,59.0,43.3,30.09,NW,326,0.0,0.0,56,0.00,,,0.00,VWS V14.01,2013-05-18 04:58:00,
2013-05-18 00:59:00,59.0,43.3,30.09,NW,326,0.0,0.0,56,0.00,,,0.00,VWS V14.01,2013-05-18 04:59:00,
2013-05-18 01:00:00,59.0,43.3,30.09,NW,326,0.0,0.0,56,0.00,,,0.00,VWS V14.01,2013-05-18 05:00:00,
2013-05-18 01:01:00,58.9,43.2,30.08,NW,326,0.0,0.0,56,0.00,,,0.00,VWS V14.01,2013-05-18 05:01:00,
2013-05-18 01:02:00,58.9,43.2,30.08,NW,326,0.0,0.0,56,0.00,,,0.00,VWS V14.01,2013-05-18 05:02:00,
2013-05-18 01:03:00,59.0,43.3,30.08,NW,326,0.0,0.0,56,0.00,,,0.00,VWS V14.01,2013-05-18 05:03:00,
2013-05-18 01:04:00,59.0,43.3,30.08,NW,326,0.0,0.0,56,0.00,,,0.00,VWS V14.01,2013-05-18 05:04:00,
2013-05-18 01:05:00,59.0,43.3,30.08,NW,326,0.0,0.0,56,0.00,,,0.00,VWS V14.01,2013-05-18 05:05:00,
2013-05-18 01:06:00,59.0,43.8,30.08,NW,326,0.0,0.0,57,0.00,,,0.00,VWS V14.01,2013-05-18 05:06:00,
2013-05-18 01:07:00,59.0,44.3,30.08,NNW,327,0.0,1.0,58,0.00,,,0.00,VWS V14.01,2013-05-18 05:07:00,
2013-05-18 01:08:00,59.0,43.8,30.08,NNW,327,0.0,1.0,57,0.00,,,0.00,VWS V14.01,2013-05-18 05:08:00,
2013-05-18 01:09:00,59.0,44.3,30.08,NNW,327,0.0,1.0,58,0.00,,,0.00,VWS V14.01,2013-05-18 05:09:00,
2013-05-18 01:10:00,59.0,43.8,30.07,NNW,327,0.0,1.0,57,0.00,,,0.00,VWS V14.01,2013-05-18 05:10:00,
2013-05-18 01:11:00,59.0,44.7,30.07,NNW,327,0.0,1.0,59,0.00,,,0.00,VWS V14.01,2013-05-18 05:11:00,
2013-05-18 01:12:00,59.0,44.3,30.08,NNW,327,0.0,1.0,58,0.00,,,0.00,VWS V14.01,2013-05-18 05:12:00,
2013-05-18 01:13:00,59.0,44.3,30.08,NNW,327,0.0,1.0,58,0.00,,,0.00,VWS V14.01,2013-05-18 05:13:00,
2013-05-18 01:14:00,59.0,43.8,30.08,NNW,327,0.0,1.0,57,0.00,,,0.00,VWS V14.01,2013-05-18 05:14:00,
2013-05-18 01:15:00,59.0,43.8,30.08,NNW,327,0.0,1.0,57,0.00,,,0.00,VWS V14.01,2013-05-18 05:15:00,
2013-05-18 01:16:00,59.0,44.3,30.08,NNW,327,0.0,1.0,58,0.00,,,0.00,VWS V14.01,2013-05-18 05:16:00,
2013-05-18 01:17:00,59.0,43.8,30.08,NNW,327,0.0,1.0,57,0.00,,,0.00,VWS V14.01,2013-05-18 05:17:00,
2013-05-18 01:18:00,59.0,43.8,30.08,NNW,327,0.0,1.0,57,0.00,,,0.00,VWS V14.01,2013-05-18 05:18:00,
2013-05-18 01:19:00,59.0,43.8,30.08,NNW,327,0.0,1.0,57,0.00,,,0.00,VWS V14.01,2013-05-18 05:19:00,
2013-05-18 01:20:00,59.0,44.3,30.08,NNW,327,0.0,1.0,58,0.00,,,0.00,VWS V14.01,2013-05-18 05:20:00,
2013-05-18 01:21:00,59.0,43.8,30.08,NNW,327,0.0,1.0,57,0.00,,,0.00,VWS V14.01,2013-05-18 05:21:00,
2013-05-18 01:22:00,59.0,44.3,30.08,NNW,327,0.0,1.0,58,0.00,,,0.00,VWS V14.01,2013-05-18 05:22:00,
2013-05-18 01:23:00,59.0,44.3,30.08,NNW,327,0.0,1.0,58,0.00,,,0.00,VWS V14.01,2013-05-18 05:23:00,
2013-05-18 01:24:00,59.0,43.8,30.08,NNW,327,0.0,1.0,57,0.00,,,0.00,VWS V14.01,2013-05-18 05:24:00,
2013-05-18 01:25:00,59.0,44.3,30.08,NNW,327,0.0,1.0,58,0.00,,,0.00,VWS V14.01,2013-05-18 05:25:00,
2013-05-18 01:26:00,59.0,44.3,30.08,NNW,327,0.0,1.0,58,0.00,,,0.00,VWS V14.01,2013-05-18 05:26:00,
2013-05-18 01:27:00,59.0,44.3,30.08,NNW,327,0.0,1.0,58,0.00,,,0.00,VWS V14.01,2013-05-18 05:27:00,
2013-05-18 01:28:00,59.0,44.3,30.08,NNW,327,0.0,1.0,58,0.00,,,0.00,VWS V14.01,2013-05-18 05:28:00,
2013-05-18 01:29:00,59.0,44.3,30.08,NNW,327,0.0,1.0,58,0.00,,,0.00,VWS V14.01,2013-05-18 05:29:00,
2013-05-18 01:30:00,59.0,44.3,30.08,NNW,327,0.0,1.0,58,0.00,,,0.00,VWS V14.01,2013-05-18 05:30:00,
2013-05-18 01:31:00,59.0,44.3,30.07,NNW,327,0.0,1.0,58,0.00,,,0.00,VWS V14.01,2013-05-18 05:31:00,
2013-05-18 01:32:00,59.0,43.8,30.07,NNW,327,0.0,1.0,57,0.00,,,0.00,VWS V14.01,2013-05-18 05:32:00,
2013-05-18 01:33:00,59.0,44.3,30.07,NNW,327,0.0,1.0,58,0.00,,,0.00,VWS V14.01,2013-05-18 05:33:00,
2013-05-18 01:34:00,58.9,44.2,30.07,NNW,327,0.0,1.0,58,0.00,,,0.00,VWS V14.01,2013-05-18 05:34:00,
2013-05-18 01:35:00,59.0,44.3,30.07,NNW,327,0.0,1.0,58,0.00,,,0.00,VWS V14.01,2013-05-18 05:35:00,
2013-05-18 01:36:00,59.0,44.3,30.07,NNW,327,0.0,1.0,58,0.00,,,0.00,VWS V14.01,2013-05-18 05:36:00,
2013-05-18 01:37:00,58.9,44.2,30.08,NNW,327,0.0,1.0,58,0.00,,,0.00,VWS V14.01,2013-05-18 05:37:00,
2013-05-18 01:38:00,58.9,44.2,30.08,NNW,327,0.0,1.0,58,0.00,,,0.00,VWS V14.01,2013-05-18 05:38:00,
2013-05-18 01:39:00,59.0,44.3,30.08,NNW,327,0.0,1.0,58,0.00,,,0.00,VWS V14.01,2013-05-18 05:39:00,
2013-05-18 01:40:00,58.9,44.2,30.07,NNW,327,0.0,1.0,58,0.00,,,0.00,VWS V14.01,2013-05-18 05:40:00,
2013-05-18 01:41:00,58.9,44.6,30.08,NNW,327,0.0,1.0,59,0.00,,,0.00,VWS V14.01,2013-05-18 05:41:00,
2013-05-18 01:42:00,58.9,44.6,30.08,NNW,327,0.0,1.0,59,0.00,,,0.00,VWS V14.01,2013-05-18 05:42:00,
2013-05-18 01:43:00,58.9,44.6,30.08,NNW,327,0.0,1.0,59,0.00,,,0.00,VWS V14.01,2013-05-18 05:43:00,
2013-05-18 01:44:00,58.9,45.1,30.08,NNW,327,0.0,1.0,60,0.00,,,0.00,VWS V14.01,2013-05-18 05:44:00,
2013-05-18 01:45:00,58.8,45.0,30.08,NNW,327,0.0,1.0,60,0.00,,,0.00,VWS V14.01,2013-05-18 05:45:00,
2013-05-18 01:46:00,58.8,44.5,30.08,NNW,327,0.0,1.0,59,0.00,,,0.00,VWS V14.01,2013-05-18 05:46:00,
2013-05-18 01:47:00,58.7,44.4,30.08,NNW,331,1.0,1.0,59,0.00,,,0.00,VWS V14.01,2013-05-18 05:47:00,
2013-05-18 01:48:00,58.7,44.4,30.08,NNE,27,0.0,1.0,59,0.00,,,0.00,VWS V14.01,2013-05-18 05:48:00,
2013-05-18 01:49:00,58.6,44.3,30.08,NNE,27,0.0,1.0,59,0.00,,,0.00,VWS V14.01,2013-05-18 05:49:00,
2013-05-18 01:50:00,58.6,44.8,30.08,NNE,27,0.0,1.0,60,0.00,,,0.00,VWS V14.01,2013-05-18 05:50:00,
2013-05-18 01:51:00,58.6,44.8,30.08,NNE,26,0.0,1.0,60,0.00,,,0.00,VWS V14.01,2013-05-18 05:51:00,
2013-05-18 01:52:00,58.5,44.7,30.08,NNE,26,0.0,1.0,60,0.00,,,0.00,VWS V14.01,2013-05-18 05:52:00,
2013-05-18 01:53:00,58.5,44.2,30.08,NNE,26,0.0,1.0,59,0.00,,,0.00,VWS V14.01,2013-05-18 05:53:00,
2013-05-18 01:54:00,58.4,44.1,30.08,NNE,26,0.0,1.0,59,0.00,,,0.00,VWS V14.01,2013-05-18 05:54:00,
2013-05-18 01:55:00,58.4,44.1,30.08,NNE,27,0.0,1.0,59,0.00,,,0.00,VWS V14.01,2013-05-18 05:55:00,
2013-05-18 01:56:00,58.4,44.1,30.08,NNE,27,0.0,1.0,59,0.00,,,0.00,VWS V14.01,2013-05-18 05:56:00,
2013-05-18 01:57:00,58.4,44.1,30.08,NNE,27,0.0,1.0,59,0.00,,,0.00,VWS V14.01,2013-05-18 05:57:00,
2013-05-18 01:58:00,58.4,44.1,30.08,NNE,27,0.0,1.0,59,0.00,,,0.00,VWS V14.01,2013-05-18 05:58:00,
2013-05-18 01:59:00,58.3,44.0,30.08,NNE,27,0.0,1.0,59,0.00,,,0.00,VWS V14.01,2013-05-18 05:59:00,
2013-05-18 02:00:00,58.2,44.0,30.08,NNE,27,0.0,1.0,59,0.00,,,0.00,VWS V14.01,2013-05-18 06:00:00,
2013-05-18 02:01:00,58.2,44.4,30.08,NNE,27,0.0,0.0,60,0.00,,,0.00,VWS V14.01,2013-05-18 06:01:00,
2013-05-18 02:02:00,58.2,44.4,30.08,NNE,27,0.0,0.0,60,0.00,,,0.00,VWS V14.01,2013-05-18 06:02:00,
2013-05-18 02:03:00,58.1,43.9,30.08,NNE,27,0.0,0.0,59,0.00,,,0.00,VWS V14.01,2013-05-18 06:03:00,
2013-05-18 02:04:00,58.1,43.9,30.08,NNE,27,0.0,0.0,59,0.00,,,0.00,VWS V14.01,2013-05-18 06:04:00,
2013-05-18 02:05:00,58.1,43.9,30.08,NNE,26,0.0,0.0,59,0.00,,,0.00,VWS V14.01,2013-05-18 06:05:00,
2013-05-18 02:06:00,58.0,43.8,30.08,NNE,27,0.0,0.0,59,0.00,,,0.00,VWS V14.01,2013-05-18 06:06:00,
2013-05-18 02:07:00,58.0,43.8,30.07,NNE,27,0.0,0.0,59,0.00,,,0.00,VWS V14.01,2013-05-18 06:07:00,
2013-05-18 02:08:00,58.0,43.8,30.07,NNE,27,0.0,0.0,59,0.00,,,0.00,VWS V14.01,2013-05-18 06:08:00,
2013-05-18 02:09:00,58.0,43.8,30.07,NNE,27,0.0,0.0,59,0.00,,,0.00,VWS V14.01,2013-05-18 06:09:00,
2013-05-18 02:10:00,57.9,43.7,30.08,NNE,27,0.0,0.0,59,0.00,,,0.00,VWS V14.01,2013-05-18 06:10:00,
2013-05-18 02:11:00,57.9,44.1,30.07,NNE,27,0.0,0.0,60,0.00,,,0.00,VWS V14.01,2013-05-18 06:11:00,
2013-05-18 02:12:00,57.9,44.1,30.07,NNE,27,0.0,0.0,60,0.00,,,0.00,VWS V14.01,2013-05-18 06:12:00,
2013-05-18 02:13:00,57.8,44.0,30.07,NNE,27,0.0,0.0,60,0.00,,,0.00,VWS V14.01,2013-05-18 06:13:00,
2013-05-18 02:14:00,57.8,44.0,30.07,NNE,27,0.0,0.0,60,0.00,,,0.00,VWS V14.01,2013-05-18 06:14:00,
2013-05-18 02:15:00,57.8,44.0,30.07,NNE,27,0.0,0.0,60,0.00,,,0.00,VWS V14.01,2013-05-18 06:15:00,
2013-05-18 02:16:00,57.7,43.9,30.08,NNE,27,0.0,0.0,60,0.00,,,0.00,VWS V14.01,2013-05-18 06:16:00,
2013-05-18 02:17:00,57.7,43.9,30.07,NNE,27,0.0,0.0,60,0.00,,,0.00,VWS V14.01,2013-05-18 06:17:00,
2013-05-18 02:18:00,57.7,43.9,30.07,NNE,27,0.0,0.0,60,0.00,,,0.00,VWS V14.01,2013-05-18 06:18:00,
2013-05-18 02:19:00,57.6,43.8,30.07,NNE,26,0.0,0.0,60,0.00,,,0.00,VWS V14.01,2013-05-18 06:19:00,
2013-05-18 02:20:00,57.6,43.8,30.07,NNE,27,0.0,0.0,60,0.00,,,0.00,VWS V14.01,2013-05-18 06:20:00,
2013-05-18 02:21:00,57.5,43.7,30.07,NNE,27,0.0,0.0,60,0.00,,,0.00,VWS V14.01,2013-05-18 06:21:00,
2013-05-18 02:22:00,57.5,43.7,30.07,NNE,26,0.0,0.0,60,0.00,,,0.00,VWS V14.01,2013-05-18 06:22:00,
2013-05-18 02:23:00,57.5,43.7,30.07,NNE,26,0.0,0.0,60,0.00,,,0.00,VWS V14.01,2013-05-18 06:23:00,
2013-05-18 02:24:00,57.4,44.1,30.07,NNE,26,0.0,0.0,61,0.00,,,0.00,VWS V14.01,2013-05-18 06:24:00,
2013-05-18 02:25:00,57.4,44.1,30.07,NNE,26,0.0,0.0,61,0.00,,,0.00,VWS V14.01,2013-05-18 06:25:00,
2013-05-18 02:26:00,57.4,44.1,30.08,NNE,27,0.0,0.0,61,0.00,,,0.00,VWS V14.01,2013-05-18 06:26:00,
2013-05-18 02:27:00,57.4,44.1,30.08,NNE,27,0.0,0.0,61,0.00,,,0.00,VWS V14.01,2013-05-18 06:27:00,
2013-05-18 02:28:00,57.3,44.0,30.07,NNE,27,0.0,0.0,61,0.00,,,0.00,VWS V14.01,2013-05-18 06:28:00,
2013-05-18 02:29:00,57.3,44.0,30.07,NNE,26,0.0,0.0,61,0.00,,,0.00,VWS V14.01,2013-05-18 06:29:00,
2013-05-18 02:30:00,57.3,44.0,30.07,NNE,27,0.0,0.0,61,0.00,,,0.00,VWS V14.01,2013-05-18 06:30:00,
2013-05-18 02:31:00,57.2,44.3,30.07,NNE,27,0.0,0.0,62,0.00,,,0.00,VWS V14.01,2013-05-18 06:31:00,
2013-05-18 02:32:00,57.2,44.3,30.07,NNE,27,0.0,0.0,62,0.00,,,0.00,VWS V14.01,2013-05-18 06:32:00,
2013-05-18 02:33:00,57.2,44.3,30.07,NNE,27,0.0,0.0,62,0.00,,,0.00,VWS V14.01,2013-05-18 06:33:00,
2013-05-18 02:34:00,57.2,44.3,30.07,NNE,26,0.0,0.0,62,0.00,,,0.00,VWS V14.01,2013-05-18 06:34:00,
2013-05-18 02:35:00,57.2,44.3,30.07,NNE,27,0.0,0.0,62,0.00,,,0.00,VWS V14.01,2013-05-18 06:35:00,
2013-05-18 02:36:00,57.2,44.3,30.07,NNE,27,0.0,0.0,62,0.00,,,0.00,VWS V14.01,2013-05-18 06:36:00,
2013-05-18 02:37:00,57.1,44.2,30.07,NNE,27,0.0,0.0,62,0.00,,,0.00,VWS V14.01,2013-05-18 06:37:00,
2013-05-18 02:38:00,57.1,43.8,30.07,NNE,27,0.0,0.0,61,0.00,,,0.00,VWS V14.01,2013-05-18 06:38:00,
2013-05-18 02:39:00,57.1,43.8,30.07,NNE,27,0.0,0.0,61,0.00,,,0.00,VWS V14.01,2013-05-18 06:39:00,
2013-05-18 02:40:00,57.0,44.1,30.07,NNE,26,0.0,0.0,62,0.00,,,0.00,VWS V14.01,2013-05-18 06:40:00,
2013-05-18 02:41:00,57.0,44.1,30.07,NNE,27,0.0,0.0,62,0.00,,,0.00,VWS V14.01,2013-05-18 06:41:00,
2013-05-18 02:42:00,57.0,44.1,30.07,NNE,27,0.0,0.0,62,0.00,,,0.00,VWS V14.01,2013-05-18 06:42:00,
2013-05-18 02:43:00,57.0,44.1,30.07,NNE,27,0.0,0.0,62,0.00,,,0.00,VWS V14.01,2013-05-18 06:43:00,
2013-05-18 02:44:00,56.9,43.6,30.07,NNE,27,0.0,0.0,61,0.00,,,0.00,VWS V14.01,2013-05-18 06:44:00,
2013-05-18 02:45:00,56.9,43.6,30.07,NNE,27,0.0,0.0,61,0.00,,,0.00,VWS V14.01,2013-05-18 06:45:00,
2013-05-18 02:46:00,56.8,43.9,30.07,NNE,27,0.0,0.0,62,0.00,,,0.00,VWS V14.01,2013-05-18 06:46:00,
2013-05-18 02:47:00,56.8,43.9,30.07,NNE,27,0.0,0.0,62,0.00,,,0.00,VWS V14.01,2013-05-18 06:47:00,
2013-05-18 02:48:00,56.8,43.9,30.07,NNE,26,0.0,0.0,62,0.00,,,0.00,VWS V14.01,2013-05-18 06:48:00,
2013-05-18 02:49:00,56.8,43.9,30.07,NNE,27,0.0,0.0,62,0.00,,,0.00,VWS V14.01,2013-05-18 06:49:00,
2013-05-18 02:50:00,56.8,43.9,30.07,NNE,26,0.0,0.0,62,0.00,,,0.00,VWS V14.01,2013-05-18 06:50:00,
2013-05-18 02:51:00,56.8,43.5,30.07,NNE,27,0.0,0.0,61,0.00,,,0.00,VWS V14.01,2013-05-18 06:51:00,
2013-05-18 02:52:00,56.7,43.4,30.07,NNE,26,0.0,0.0,61,0.00,,,0.00,VWS V14.01,2013-05-18 06:52:00,
2013-05-18 02:53:00,56.7,43.8,30.07,NNE,26,0.0,0.0,62,0.00,,,0.00,VWS V14.01,2013-05-18 06:53:00,
2013-05-18 02:54:00,56.7,43.8,30.07,NNE,27,0.0,0.0,62,0.00,,,0.00,VWS V14.01,2013-05-18 06:54:00,
2013-05-18 02:55:00,56.7,43.8,30.07,NNE,26,0.0,0.0,62,0.00,,,0.00,VWS V14.01,2013-05-18 06:55:00,
2013-05-18 02:56:00,56.7,43.8,30.07,NNE,27,0.0,0.0,62,0.00,,,0.00,VWS V14.01,2013-05-18 06:56:00,
2013-05-18 02:57:00,56.6,44.2,30.07,NNE,26,0.0,0.0,63,0.00,,,0.00,VWS V14.01,2013-05-18 06:57:00,
2013-05-18 02:58:00,56.6,44.2,30.07,NNE,26,0.0,0.0,63,0.00,,,0.00,VWS V14.01,2013-05-18 06:58:00,
2013-05-18 02:59:00,56.6,44.2,30.07,NNE,27,0.0,0.0,63,0.00,,,0.00,VWS V14.01,2013-05-18 06:59:00,
2013-05-18 03:00:00,56.6,44.2,30.07,NNE,27,0.0,0.0,63,0.00,,,0.00,VWS V14.01,2013-05-18 07:00:00,
2013-05-18 03:01:00,56.6,44.2,30.07,NNE,27,0.0,0.0,63,0.00,,,0.00,VWS V14.01,2013-05-18 07:01:00,
2013-05-18 03:02:00,56.5,44.1,30.07,NNE,27,0.0,0.0,63,0.00,,,0.00,VWS V14.01,2013-05-18 07:02:00,
2013-05-18 03:03:00,56.5,43.7,30.07,NNE,26,0.0,0.0,62,0.00,,,0.00,VWS V14.01,2013-05-18 07:03:00,
2013-05-18 03:04:00,56.5,43.7,30.07,NNE,27,0.0,0.0,62,0.00,,,0.00,VWS V14.01,2013-05-18 07:04:00,
2013-05-18 03:05:00,56.4,43.6,30.07,NNE,27,0.0,0.0,62,0.00,,,0.00,VWS V14.01,2013-05-18 07:05:00,
2013-05-18 03:06:00,56.4,43.6,30.07,NNE,27,0.0,0.0,62,0.00,,,0.00,VWS V14.01,2013-05-18 07:06:00,
2013-05-18 03:07:00,56.4,44.0,30.07,NNE,27,0.0,0.0,63,0.00,,,0.00,VWS V14.01,2013-05-18 07:07:00,
2013-05-18 03:08:00,56.4,44.0,30.07,NNE,26,0.0,0.0,63,0.00,,,0.00,VWS V14.01,2013-05-18 07:08:00,
2013-05-18 03:09:00,56.4,44.4,30.07,NNE,26,0.0,0.0,64,0.00,,,0.00,VWS V14.01,2013-05-18 07:09:00,
2013-05-18 03:10:00,56.4,44.4,30.07,NNE,26,0.0,0.0,64,0.00,,,0.00,VWS V14.01,2013-05-18 07:10:00,
2013-05-18 03:11:00,56.3,44.3,30.07,NNE,27,0.0,0.0,64,0.00,,,0.00,VWS V14.01,2013-05-18 07:11:00,
2013-05-18 03:12:00,56.3,43.9,30.07,NNE,26,0.0,0.0,63,0.00,,,0.00,VWS V14.01,2013-05-18 07:12:00,
2013-05-18 03:13:00,56.3,43.9,30.07,NNE,27,0.0,0.0,63,0.00,,,0.00,VWS V14.01,2013-05-18 07:13:00,
2013-05-18 03:14:00,56.3,43.9,30.07,NNE,26,0.0,0.0,63,0.00,,,0.00,VWS V14.01,2013-05-18 07:14:00,
2013-05-18 03:15:00,56.3,43.9,30.07,NNE,27,0.0,0.0,63,0.00,,,0.00,VWS V14.01,2013-05-18 07:15:00,
2013-05-18 03:16:00,56.2,43.8,30.07,NNE,27,0.0,0.0,63,0.00,,,0.00,VWS V14.01,2013-05-18 07:16:00,
2013-05-18 03:17:00,56.2,44.2,30.07,NNE,26,0.0,0.0,64,0.00,,,0.00,VWS V14.01,2013-05-18 07:17:00,
2013-05-18 03:18:00,56.2,44.2,30.07,NNE,27,0.0,0.0,64,0.00,,,0.00,VWS V14.01,2013-05-18 07:18:00,
2013-05-18 03:19:00,56.2,44.2,30.07,NNE,26,0.0,0.0,64,0.00,,,0.00,VWS V14.01,2013-05-18 07:19:00,
2013-05-18 03:20:00,56.2,44.2,30.07,NNE,26,0.0,0.0,64,0.00,,,0.00,VWS V14.01,2013-05-18 07:20:00,
2013-05-18 03:21:00,56.2,44.2,30.07,NNE,26,0.0,0.0,64,0.00,,,0.00,VWS V14.01,2013-05-18 07:21:00,
2013-05-18 03:22:00,56.2,44.2,30.07,NNE,26,0.0,0.0,64,0.00,,,0.00,VWS V14.01,2013-05-18 07:22:00,
2013-05-18 03:23:00,56.1,44.1,30.07,NNE,26,0.0,0.0,64,0.00,,,0.00,VWS V14.01,2013-05-18 07:23:00,
2013-05-18 03:24:00,56.1,44.1,30.07,NNE,27,0.0,0.0,64,0.00,,,0.00,VWS V14.01,2013-05-18 07:24:00,
2013-05-18 03:25:00,56.1,44.1,30.07,NNE,26,0.0,0.0,64,0.00,,,0.00,VWS V14.01,2013-05-18 07:25:00,
2013-05-18 03:26:00,56.1,44.1,30.07,NNE,26,0.0,0.0,64,0.00,,,0.00,VWS V14.01,2013-05-18 07:26:00,
2013-05-18 03:27:00,56.1,44.1,30.07,NNE,26,0.0,0.0,64,0.00,,,0.00,VWS V14.01,2013-05-18 07:27:00,
2013-05-18 03:28:00,56.1,44.5,30.07,NNE,26,0.0,0.0,65,0.00,,,0.00,VWS V14.01,2013-05-18 07:28:00,
2013-05-18 03:29:00,56.1,44.5,30.07,NNE,27,0.0,0.0,65,0.00,,,0.00,VWS V14.01,2013-05-18 07:29:00,
2013-05-18 03:30:00,56.0,44.4,30.07,NNE,27,0.0,0.0,65,0.00,,,0.00,VWS V14.01,2013-05-18 07:30:00,
2013-05-18 03:31:00,56.0,44.4,30.07,NNE,27,0.0,0.0,65,0.00,,,0.00,VWS V14.01,2013-05-18 07:31:00,
2013-05-18 03:32:00,56.0,44.4,30.07,NNE,26,0.0,0.0,65,0.00,,,0.00,VWS V14.01,2013-05-18 07:32:00,
2013-05-18 03:33:00,56.0,44.4,30.07,NNE,27,0.0,0.0,65,0.00,,,0.00,VWS V14.01,2013-05-18 07:33:00,
2013-05-18 03:34:00,56.0,44.4,30.07,NNE,27,0.0,0.0,65,0.00,,,0.00,VWS V14.01,2013-05-18 07:34:00,
2013-05-18 03:35:00,56.0,44.4,30.07,NNE,27,0.0,0.0,65,0.00,,,0.00,VWS V14.01,2013-05-18 07:35:00,
2013-05-18 03:36:00,56.0,44.4,30.07,NNE,27,0.0,0.0,65,0.00,,,0.00,VWS V14.01,2013-05-18 07:36:00,
2013-05-18 03:37:00,55.9,44.3,30.07,NNE,27,0.0,0.0,65,0.00,,,0.00,VWS V14.01,2013-05-18 07:37:00,
2013-05-18 03:38:00,55.9,44.3,30.07,NNE,27,0.0,0.0,65,0.00,,,0.00,VWS V14.01,2013-05-18 07:38:00,
2013-05-18 03:39:00,55.9,44.7,30.07,NNE,27,0.0,0.0,66,0.00,,,0.00,VWS V14.01,2013-05-18 07:39:00,
2013-05-18 03:40:00,55.9,44.7,30.07,NNE,27,0.0,0.0,66,0.00,,,0.00,VWS V14.01,2013-05-18 07:40:00,
2013-05-18 03:41:00,55.9,44.7,30.07,NNE,27,0.0,0.0,66,0.00,,,0.00,VWS V14.01,2013-05-18 07:41:00,
2013-05-18 03:42:00,55.9,44.7,30.07,NNE,27,0.0,0.0,66,0.00,,,0.00,VWS V14.01,2013-05-18 07:42:00,
2013-05-18 03:43:00,55.8,44.6,30.07,NNE,26,0.0,0.0,66,0.00,,,0.00,VWS V14.01,2013-05-18 07:43:00,
2013-05-18 03:44:00,55.8,44.6,30.07,NNE,27,0.0,0.0,66,0.00,,,0.00,VWS V14.01,2013-05-18 07:44:00,
2013-05-18 03:45:00,55.8,44.6,30.07,NNE,27,0.0,0.0,66,0.00,,,0.00,VWS V14.01,2013-05-18 07:45:00,
2013-05-18 03:46:00,55.8,44.6,30.07,NNE,26,0.0,0.0,66,0.00,,,0.00,VWS V14.01,2013-05-18 07:46:00,
2013-05-18 03:47:00,55.8,44.6,30.07,NNE,27,0.0,0.0,66,0.00,,,0.00,VWS V14.01,2013-05-18 07:47:00,
2013-05-18 03:48:00,55.8,44.6,30.07,NNE,26,0.0,0.0,66,0.00,,,0.00,VWS V14.01,2013-05-18 07:48:00,
2013-05-18 03:49:00,55.8,44.6,30.07,NNE,27,0.0,0.0,66,0.00,,,0.00,VWS V14.01,2013-05-18 07:49:00,
2013-05-18 03:50:00,55.7,44.5,30.07,NNE,26,0.0,0.0,66,0.00,,,0.00,VWS V14.01,2013-05-18 07:50:00,
2013-05-18 03:51:00,55.7,44.5,30.07,NNE,26,0.0,0.0,66,0.00,,,0.00,VWS V14.01,2013-05-18 07:51:00,
2013-05-18 03:52:00,55.7,44.5,30.07,NNE,26,0.0,0.0,66,0.00,,,0.00,VWS V14.01,2013-05-18 07:52:00,
2013-05-18 03:53:00,55.7,44.5,30.07,NNE,27,0.0,0.0,66,0.00,,,0.00,VWS V14.01,2013-05-18 07:53:00,
2013-05-18 03:54:00,55.7,44.5,30.07,NNE,27,0.0,0.0,66,0.00,,,0.00,VWS V14.01,2013-05-18 07:54:00,
2013-05-18 03:55:00,55.7,44.5,30.07,NNE,26,0.0,0.0,66,0.00,,,0.00,VWS V14.01,2013-05-18 07:55:00,
2013-05-18 03:56:00,55.6,44.4,30.07,NNE,26,0.0,0.0,66,0.00,,,0.00,VWS V14.01,2013-05-18 07:56:00,
2013-05-18 03:57:00,55.6,44.4,30.07,NNE,27,0.0,0.0,66,0.00,,,0.00,VWS V14.01,2013-05-18 07:57:00,
2013-05-18 03:58:00,55.6,44.4,30.07,NNE,27,0.0,0.0,66,0.00,,,0.00,VWS V14.01,2013-05-18 07:58:00,
2013-05-18 03:59:00,55.6,44.4,30.07,NNE,27,0.0,0.0,66,0.00,,,0.00,VWS V14.01,2013-05-18 07:59:00,
2013-05-18 04:00:00,55.6,44.4,30.07,NNE,27,0.0,0.0,66,0.00,,,0.00,VWS V14.01,2013-05-18 08:00:00,
2013-05-18 04:01:00,55.6,44.4,30.07,NNE,26,0.0,0.0,66,0.00,,,0.00,VWS V14.01,2013-05-18 08:01:00,
2013-05-18 04:02:00,55.6,44.8,30.07,NNE,27,0.0,0.0,67,0.00,,,0.00,VWS V14.01,2013-05-18 08:02:00,
2013-05-18 04:03:00,55.5,44.7,30.07,NNE,27,0.0,0.0,67,0.00,,,0.00,VWS V14.01,2013-05-18 08:03:00,
2013-05-18 04:04:00,55.5,44.7,30.07,NNE,27,0.0,0.0,67,0.00,,,0.00,VWS V14.01,2013-05-18 08:04:00,
2013-05-18 04:05:00,55.5,44.7,30.07,NNE,27,0.0,0.0,67,0.00,,,0.00,VWS V14.01,2013-05-18 08:05:00,
2013-05-18 04:06:00,55.5,44.7,30.07,NNE,27,0.0,0.0,67,0.00,,,0.00,VWS V14.01,2013-05-18 08:06:00,
2013-05-18 04:07:00,55.5,44.7,30.07,NNE,27,0.0,0.0,67,0.00,,,0.00,VWS V14.01,2013-05-18 08:07:00,
2013-05-18 04:08:00,55.5,44.7,30.07,NNE,27,0.0,0.0,67,0.00,,,0.00,VWS V14.01,2013-05-18 08:08:00,
2013-05-18 04:09:00,55.5,45.1,30.07,NNE,27,0.0,0.0,68,0.00,,,0.00,VWS V14.01,2013-05-18 08:09:00,
2013-05-18 04:10:00,55.5,45.1,30.07,NNE,27,0.0,0.0,68,0.00,,,0.00,VWS V14.01,2013-05-18 08:10:00,
2013-05-18 04:11:00,55.5,45.1,30.07,NNE,26,0.0,0.0,68,0.00,,,0.00,VWS V14.01,2013-05-18 08:11:00,
2013-05-18 04:12:00,55.4,45.0,30.07,NNE,27,0.0,0.0,68,0.00,,,0.00,VWS V14.01,2013-05-18 08:12:00,
2013-05-18 04:13:00,55.4,45.0,30.07,NNE,27,0.0,0.0,68,0.00,,,0.00,VWS V14.01,2013-05-18 08:13:00,
2013-05-18 04:14:00,55.4,45.0,30.07,NNE,26,0.0,0.0,68,0.00,,,0.00,VWS V14.01,2013-05-18 08:14:00,
2013-05-18 04:15:00,55.4,45.0,30.07,NNE,27,0.0,0.0,68,0.00,,,0.00,VWS V14.01,2013-05-18 08:15:00,
2013-05-18 04:16:00,55.3,44.9,30.07,NNE,26,0.0,0.0,68,0.00,,,0.00,VWS V14.01,2013-05-18 08:16:00,
2013-05-18 04:17:00,55.3,44.9,30.07,NNE,26,0.0,0.0,68,0.00,,,0.00,VWS V14.01,2013-05-18 08:17:00,
2013-05-18 04:18:00,55.3,44.9,30.07,NNE,27,0.0,0.0,68,0.00,,,0.00,VWS V14.01,2013-05-18 08:18:00,
2013-05-18 04:19:00,55.3,44.9,30.07,NNE,26,0.0,0.0,68,0.00,,,0.00,VWS V14.01,2013-05-18 08:19:00,
2013-05-18 04:20:00,55.3,45.3,30.07,NNE,26,0.0,0.0,69,0.00,,,0.00,VWS V14.01,2013-05-18 08:20:00,
2013-05-18 04:21:00,55.3,45.3,30.07,NNE,27,0.0,0.0,69,0.00,,,0.00,VWS V14.01,2013-05-18 08:21:00,
2013-05-18 04:22:00,55.3,45.3,30.07,NNE,26,0.0,0.0,69,0.00,,,0.00,VWS V14.01,2013-05-18 08:22:00,
2013-05-18 04:23:00,55.3,45.3,30.07,NNE,27,0.0,0.0,69,0.00,,,0.00,VWS V14.01,2013-05-18 08:23:00,
2013-05-18 04:24:00,55.3,45.3,30.07,NNE,26,0.0,0.0,69,0.00,,,0.00,VWS V14.01,2013-05-18 08:24:00,
2013-05-18 04:25:00,55.3,45.3,30.07,NNE,26,0.0,0.0,69,0.00,,,0.00,VWS V14.01,2013-05-18 08:25:00,
2013-05-18 04:26:00,55.2,45.2,30.07,NNE,27,0.0,0.0,69,0.00,,,0.00,VWS V14.01,2013-05-18 08:26:00,
2013-05-18 04:27:00,55.2,45.6,30.08,NNE,26,0.0,0.0,70,0.00,,,0.00,VWS V14.01,2013-05-18 08:27:00,
2013-05-18 04:28:00,55.2,45.2,30.07,NNE,27,0.0,0.0,69,0.00,,,0.00,VWS V14.01,2013-05-18 08:28:00,
2013-05-18 04:29:00,55.1,45.5,30.07,NNE,27,0.0,0.0,70,0.00,,,0.00,VWS V14.01,2013-05-18 08:29:00,
2013-05-18 04:30:00,55.1,45.5,30.07,NNE,27,0.0,0.0,70,0.00,,,0.00,VWS V14.01,2013-05-18 08:30:00,
2013-05-18 04:31:00,55.1,45.5,30.07,NNE,27,0.0,0.0,70,0.00,,,0.00,VWS V14.01,2013-05-18 08:31:00,
2013-05-18 04:32:00,55.1,45.5,30.07,NNE,27,0.0,0.0,70,0.00,,,0.00,VWS V14.01,2013-05-18 08:32:00,
2013-05-18 04:33:00,55.1,45.5,30.07,NNE,27,0.0,0.0,70,0.00,,,0.00,VWS V14.01,2013-05-18 08:33:00,
2013-05-18 04:34:00,55.0,45.4,30.07,NNE,27,0.0,0.0,70,0.00,,,0.00,VWS V14.01,2013-05-18 08:34:00,
2013-05-18 04:35:00,55.0,45.4,30.07,NNE,27,0.0,0.0,70,0.00,,,0.00,VWS V14.01,2013-05-18 08:35:00,
2013-05-18 04:36:00,55.0,45.8,30.07,NNE,26,0.0,0.0,71,0.00,,,0.00,VWS V14.01,2013-05-18 08:36:00,
2013-05-18 04:37:00,55.0,45.8,30.07,NNE,27,0.0,0.0,71,0.00,,,0.00,VWS V14.01,2013-05-18 08:37:00,
2013-05-18 04:38:00,55.0,45.8,30.07,NNE,27,0.0,0.0,71,0.00,,,0.00,VWS V14.01,2013-05-18 08:38:00,
2013-05-18 04:39:00,54.9,45.7,30.07,NNE,27,0.0,0.0,71,0.00,,,0.00,VWS V14.01,2013-05-18 08:39:00,
2013-05-18 04:40:00,54.9,45.3,30.07,NNE,27,0.0,0.0,70,0.00,,,0.00,VWS V14.01,2013-05-18 08:40:00,
2013-05-18 04:41:00,54.8,45.2,30.07,NNE,26,0.0,0.0,70,0.00,,,0.00,VWS V14.01,2013-05-18 08:41:00,
2013-05-18 04:42:00,54.8,45.6,30.07,NNE,26,0.0,0.0,71,0.00,,,0.00,VWS V14.01,2013-05-18 08:42:00,
2013-05-18 04:43:00,54.8,45.6,30.08,NNE,26,0.0,0.0,71,0.00,,,0.00,VWS V14.01,2013-05-18 08:43:00,
2013-05-18 04:44:00,54.8,45.6,30.07,NNE,27,0.0,0.0,71,0.00,,,0.00,VWS V14.01,2013-05-18 08:44:00,
2013-05-18 04:45:00,54.7,45.5,30.07,NNE,26,0.0,0.0,71,0.00,,,0.00,VWS V14.01,2013-05-18 08:45:00,
2013-05-18 04:46:00,54.7,45.5,30.08,NNE,27,0.0,0.0,71,0.00,,,0.00,VWS V14.01,2013-05-18 08:46:00,
2013-05-18 04:47:00,54.7,45.5,30.08,NNE,27,0.0,0.0,71,0.00,,,0.00,VWS V14.01,2013-05-18 08:47:00,
2013-05-18 04:48:00,54.6,45.4,30.08,NNE,26,0.0,0.0,71,0.00,,,0.00,VWS V14.01,2013-05-18 08:48:00,
2013-05-18 04:49:00,54.6,45.4,30.08,NNE,27,0.0,0.0,71,0.00,,,0.00,VWS V14.01,2013-05-18 08:49:00,
2013-05-18 04:50:00,54.6,45.4,30.08,NNE,26,0.0,0.0,71,0.00,,,0.00,VWS V14.01,2013-05-18 08:50:00,
2013-05-18 04:51:00,54.6,45.8,30.08,NNE,26,0.0,0.0,72,0.00,,,0.00,VWS V14.01,2013-05-18 08:51:00,
2013-05-18 04:52:00,54.5,45.3,30.08,NNE,26,0.0,0.0,71,0.00,,,0.00,VWS V14.01,2013-05-18 08:52:00,
2013-05-18 04:53:00,54.5,45.3,30.08,NNE,27,0.0,0.0,71,0.00,,,0.00,VWS V14.01,2013-05-18 08:53:00,
2013-05-18 04:54:00,54.5,45.3,30.08,NNE,26,0.0,0.0,71,0.00,,,0.00,VWS V14.01,2013-05-18 08:54:00,
2013-05-18 04:55:00,54.4,45.2,30.08,NNE,27,0.0,0.0,71,0.00,,,0.00,VWS V14.01,2013-05-18 08:55:00,
2013-05-18 04:56:00,54.4,45.6,30.08,NNE,27,0.0,0.0,72,0.00,,,0.00,VWS V14.01,2013-05-18 08:56:00,
2013-05-18 04:57:00,54.4,45.6,30.08,NNE,27,0.0,0.0,72,0.00,,,0.00,VWS V14.01,2013-05-18 08:57:00,
2013-05-18 04:58:00,54.3,45.5,30.08,NNE,27,0.0,0.0,72,0.00,,,0.00,VWS V14.01,2013-05-18 08:58:00,
2013-05-18 04:59:00,54.3,45.5,30.08,NNE,27,0.0,0.0,72,0.00,,,0.00,VWS V14.01,2013-05-18 08:59:00,
2013-05-18 05:00:00,54.2,45.4,30.08,NNE,27,0.0,0.0,72,0.00,,,0.00,VWS V14.01,2013-05-18 09:00:00,
2013-05-18 05:01:00,54.2,45.4,30.08,NNE,26,0.0,0.0,72,0.00,,,0.00,VWS V14.01,2013-05-18 09:01:00,
2013-05-18 05:02:00,54.2,45.4,30.08,NNE,27,0.0,0.0,72,0.00,,,0.00,VWS V14.01,2013-05-18 09:02:00,
2013-05-18 05:03:00,54.2,45.4,30.08,NNE,26,0.0,0.0,72,0.00,,,0.00,VWS V14.01,2013-05-18 09:03:00,
2013-05-18 05:04:00,54.1,45.3,30.08,NNE,27,0.0,0.0,72,0.00,,,0.00,VWS V14.01,2013-05-18 09:04:00,
2013-05-18 05:05:00,54.1,45.3,30.08,NNE,27,0.0,0.0,72,0.00,,,0.00,VWS V14.01,2013-05-18 09:05:00,
2013-05-18 05:06:00,54.1,45.7,30.09,NNE,26,0.0,0.0,73,0.00,,,0.00,VWS V14.01,2013-05-18 09:06:00,
2013-05-18 05:07:00,54.1,45.3,30.09,NNE,27,0.0,0.0,72,0.00,,,0.00,VWS V14.01,2013-05-18 09:07:00,
2013-05-18 05:08:00,54.0,45.2,30.09,NNE,27,0.0,0.0,72,0.00,,,0.00,VWS V14.01,2013-05-18 09:08:00,
2013-05-18 05:09:00,54.0,45.2,30.09,NNE,27,0.0,0.0,72,0.00,,,0.00,VWS V14.01,2013-05-18 09:09:00,
2013-05-18 05:10:00,54.0,45.2,30.09,NNE,27,0.0,0.0,72,0.00,,,0.00,VWS V14.01,2013-05-18 09:10:00,
2013-05-18 05:11:00,54.0,45.5,30.09,NNE,27,0.0,0.0,73,0.00,,,0.00,VWS V14.01,2013-05-18 09:11:00,
2013-05-18 05:12:00,54.0,45.5,30.09,NNE,26,0.0,0.0,73,0.00,,,0.00,VWS V14.01,2013-05-18 09:12:00,
2013-05-18 05:13:00,54.0,45.5,30.08,NNE,27,0.0,0.0,73,0.00,,,0.00,VWS V14.01,2013-05-18 09:13:00,
2013-05-18 05:14:00,54.0,45.5,30.09,NNE,27,0.0,0.0,73,0.00,,,0.00,VWS V14.01,2013-05-18 09:14:00,
2013-05-18 05:15:00,54.0,45.5,30.09,NNE,27,0.0,0.0,73,0.00,,,0.00,VWS V14.01,2013-05-18 09:15:00,
2013-05-18 05:16:00,54.0,45.5,30.09,NNE,27,0.0,0.0,73,0.00,,,0.00,VWS V14.01,2013-05-18 09:16:00,
2013-05-18 05:17:00,54.0,45.5,30.09,NNE,27,0.0,0.0,73,0.00,,,0.00,VWS V14.01,2013-05-18 09:17:00,
2013-05-18 05:18:00,54.0,45.5,30.09,NNE,27,0.0,0.0,73,0.00,,,0.00,VWS V14.01,2013-05-18 09:18:00,
2013-05-18 05:19:00,53.9,45.5,30.09,NNE,27,0.0,0.0,73,0.00,,,0.00,VWS V14.01,2013-05-18 09:19:00,
2013-05-18 05:20:00,54.0,45.9,30.09,NNE,27,0.0,0.0,74,0.00,,,0.00,VWS V14.01,2013-05-18 09:20:00,
2013-05-18 05:21:00,54.0,45.9,30.09,NNE,27,0.0,0.0,74,0.00,,,0.00,VWS V14.01,2013-05-18 09:21:00,
2013-05-18 05:22:00,54.0,45.9,30.09,NNE,27,0.0,0.0,74,0.00,,,0.00,VWS V14.01,2013-05-18 09:22:00,
2013-05-18 05:23:00,54.0,45.9,30.09,NNE,27,0.0,0.0,74,0.00,,,0.00,VWS V14.01,2013-05-18 09:23:00,
2013-05-18 05:24:00,54.0,45.9,30.09,NNE,26,0.0,0.0,74,0.00,,,0.00,VWS V14.01,2013-05-18 09:24:00,
2013-05-18 05:25:00,54.0,45.9,30.09,NNE,26,0.0,0.0,74,0.00,,,0.00,VWS V14.01,2013-05-18 09:25:00,
2013-05-18 05:26:00,54.0,45.9,30.09,NNE,26,0.0,0.0,74,0.00,,,0.00,VWS V14.01,2013-05-18 09:26:00,
2013-05-18 05:27:00,53.9,45.8,30.09,NNE,27,0.0,0.0,74,0.00,,,0.00,VWS V14.01,2013-05-18 09:27:00,
2013-05-18 05:28:00,54.0,45.9,30.09,NNE,27,0.0,0.0,74,0.00,,,0.00,VWS V14.01,2013-05-18 09:28:00,
2013-05-18 05:29:00,53.9,45.8,30.09,NNE,26,0.0,0.0,74,0.00,,,0.00,VWS V14.01,2013-05-18 09:29:00,
2013-05-18 05:30:00,54.0,45.9,30.09,NNE,27,0.0,0.0,74,0.00,,,0.00,VWS V14.01,2013-05-18 09:30:00,
2013-05-18 05:31:00,54.0,46.3,30.09,NNE,26,0.0,0.0,75,0.00,,,0.00,VWS V14.01,2013-05-18 09:31:00,
2013-05-18 05:32:00,54.0,46.3,30.09,NNE,27,0.0,0.0,75,0.00,,,0.00,VWS V14.01,2013-05-18 09:32:00,
2013-05-18 05:33:00,54.0,45.9,30.09,NNE,27,0.0,0.0,74,0.00,,,0.00,VWS V14.01,2013-05-18 09:33:00,
2013-05-18 05:34:00,54.0,45.9,30.09,NNE,27,0.0,0.0,74,0.00,,,0.00,VWS V14.01,2013-05-18 09:34:00,
2013-05-18 05:35:00,54.0,45.9,30.09,NNE,27,0.0,0.0,74,0.00,,,0.00,VWS V14.01,2013-05-18 09:35:00,
2013-05-18 05:36:00,54.0,45.9,30.09,NNE,26,0.0,0.0,74,0.00,,,0.00,VWS V14.01,2013-05-18 09:36:00,
2013-05-18 05:37:00,54.0,45.9,30.09,NNE,27,0.0,0.0,74,0.00,,,0.00,VWS V14.01,2013-05-18 09:37:00,
2013-05-18 05:38:00,54.0,45.9,30.09,NNE,27,0.0,0.0,74,0.00,,,0.00,VWS V14.01,2013-05-18 09:38:00,
2013-05-18 05:39:00,54.0,45.9,30.09,NNE,26,0.0,0.0,74,0.00,,,0.00,VWS V14.01,2013-05-18 09:39:00,
2013-05-18 05:40:00,54.0,45.9,30.09,NNE,27,0.0,0.0,74,0.00,,,0.00,VWS V14.01,2013-05-18 09:40:00,
2013-05-18 05:41:00,54.0,45.9,30.09,NNE,27,0.0,0.0,74,0.00,,,0.00,VWS V14.01,2013-05-18 09:41:00,
2013-05-18 05:42:00,54.0,45.9,30.10,NNE,27,0.0,0.0,74,0.00,,,0.00,VWS V14.01,2013-05-18 09:42:00,
2013-05-18 05:43:00,54.0,45.9,30.10,NNE,27,0.0,0.0,74,0.00,,,0.00,VWS V14.01,2013-05-18 09:43:00,
2013-05-18 05:44:00,54.1,46.0,30.10,NNE,27,0.0,0.0,74,0.00,,,0.00,VWS V14.01,2013-05-18 09:44:00,
2013-05-18 05:45:00,54.1,46.0,30.10,NNE,26,0.0,0.0,74,0.00,,,0.00,VWS V14.01,2013-05-18 09:45:00,
2013-05-18 05:46:00,54.1,46.0,30.10,WSW,246,0.0,0.0,74,0.00,,,0.00,VWS V14.01,2013-05-18 09:46:00,
2013-05-18 05:47:00,54.1,46.0,30.10,WSW,244,0.0,0.0,74,0.00,,,0.00,VWS V14.01,2013-05-18 09:47:00,
2013-05-18 05:48:00,54.1,46.0,30.10,West,279,0.0,0.0,74,0.00,,,0.00,VWS V14.01,2013-05-18 09:48:00,
2013-05-18 05:49:00,54.1,46.0,30.10,West,279,0.0,0.0,74,0.00,,,0.00,VWS V14.01,2013-05-18 09:49:00,
2013-05-18 05:50:00,54.1,45.7,30.10,West,279,0.0,0.0,73,0.00,,,0.00,VWS V14.01,2013-05-18 09:50:00,
2013-05-18 05:51:00,54.1,45.7,30.10,West,279,0.0,0.0,73,0.00,,,0.00,VWS V14.01,2013-05-18 09:51:00,
2013-05-18 05:52:00,54.1,45.7,30.10,West,279,0.0,0.0,73,0.00,,,0.00,VWS V14.01,2013-05-18 09:52:00,
2013-05-18 05:53:00,54.2,46.1,30.10,West,279,0.0,0.0,74,0.00,,,0.00,VWS V14.01,2013-05-18 09:53:00,
2013-05-18 05:54:00,54.2,46.1,30.10,West,279,0.0,0.0,74,0.00,,,0.00,VWS V14.01,2013-05-18 09:54:00,
2013-05-18 05:55:00,54.2,46.1,30.10,West,279,0.0,0.0,74,0.00,,,0.00,VWS V14.01,2013-05-18 09:55:00,
2013-05-18 05:56:00,54.2,46.1,30.10,West,279,0.0,0.0,74,0.00,,,0.00,VWS V14.01,2013-05-18 09:56:00,
2013-05-18 05:57:00,54.3,46.2,30.10,West,279,0.0,0.0,74,0.00,,,0.00,VWS V14.01,2013-05-18 09:57:00,
2013-05-18 05:58:00,54.3,46.2,30.10,West,279,0.0,0.0,74,0.00,,,0.00,VWS V14.01,2013-05-18 09:58:00,
2013-05-18 05:59:00,54.3,46.2,30.10,West,279,0.0,0.0,74,0.00,,,0.00,VWS V14.01,2013-05-18 09:59:00,
2013-05-18 06:00:00,54.3,46.2,30.10,West,279,0.0,0.0,74,0.00,,,0.00,VWS V14.01,2013-05-18 10:00:00,
2013-05-18 06:01:00,54.3,46.2,30.10,West,279,0.0,0.0,74,0.00,,,0.00,VWS V14.01,2013-05-18 10:01:00,
2013-05-18 06:02:00,54.4,46.3,30.10,West,279,0.0,0.0,74,0.00,,,0.00,VWS V14.01,2013-05-18 10:02:00,
2013-05-18 06:03:00,54.4,46.3,30.10,West,279,0.0,0.0,74,0.00,,,0.00,VWS V14.01,2013-05-18 10:03:00,
2013-05-18 06:04:00,54.4,46.3,30.10,West,279,0.0,0.0,74,0.00,,,0.00,VWS V14.01,2013-05-18 10:04:00,
2013-05-18 06:05:00,54.4,46.3,30.11,West,279,0.0,0.0,74,0.00,,,0.00,VWS V14.01,2013-05-18 10:05:00,
2013-05-18 06:06:00,54.4,46.3,30.11,West,279,0.0,0.0,74,0.00,,,0.00,VWS V14.01,2013-05-18 10:06:00,
2013-05-18 06:07:00,54.5,46.4,30.11,West,279,0.0,0.0,74,0.00,,,0.00,VWS V14.01,2013-05-18 10:07:00,
2013-05-18 06:08:00,54.5,46.4,30.11,West,279,0.0,0.0,74,0.00,,,0.00,VWS V14.01,2013-05-18 10:08:00,
2013-05-18 06:09:00,54.5,46.4,30.11,West,279,0.0,0.0,74,0.00,,,0.00,VWS V14.01,2013-05-18 10:09:00,
2013-05-18 06:10:00,54.5,46.4,30.10,West,279,0.0,0.0,74,0.00,,,0.00,VWS V14.01,2013-05-18 10:10:00,
2013-05-18 06:11:00,54.5,46.4,30.11,West,279,0.0,0.0,74,0.00,,,0.00,VWS V14.01,2013-05-18 10:11:00,
2013-05-18 06:12:00,54.6,46.5,30.11,West,279,0.0,0.0,74,0.00,,,0.00,VWS V14.01,2013-05-18 10:12:00,
2013-05-18 06:13:00,54.6,46.5,30.11,West,279,0.0,0.0,74,0.00,,,0.00,VWS V14.01,2013-05-18 10:13:00,
2013-05-18 06:14:00,54.6,46.5,30.11,West,279,0.0,0.0,74,0.00,,,0.00,VWS V14.01,2013-05-18 10:14:00,
2013-05-18 06:15:00,54.6,46.5,30.11,West,279,0.0,0.0,74,0.00,,,0.00,VWS V14.01,2013-05-18 10:15:00,
2013-05-18 06:16:00,54.6,46.5,30.11,West,279,0.0,0.0,74,0.00,,,0.00,VWS V14.01,2013-05-18 10:16:00,
2013-05-18 06:17:00,54.6,46.5,30.11,West,279,0.0,0.0,74,0.00,,,0.00,VWS V14.01,2013-05-18 10:17:00,
2013-05-18 06:18:00,54.7,46.6,30.11,West,279,0.0,0.0,74,0.00,,,0.00,VWS V14.01,2013-05-18 10:18:00,
2013-05-18 06:19:00,54.7,46.6,30.11,West,279,0.0,0.0,74,0.00,,,0.00,VWS V14.01,2013-05-18 10:19:00,
2013-05-18 06:20:00,54.7,46.6,30.11,West,279,0.0,0.0,74,0.00,,,0.00,VWS V14.01,2013-05-18 10:20:00,
2013-05-18 06:21:00,54.7,46.6,30.11,West,279,0.0,0.0,74,0.00,,,0.00,VWS V14.01,2013-05-18 10:21:00,
2013-05-18 06:22:00,54.8,46.7,30.11,West,279,0.0,0.0,74,0.00,,,0.00,VWS V14.01,2013-05-18 10:22:00,
2013-05-18 06:23:00,54.8,46.7,30.11,West,279,0.0,0.0,74,0.00,,,0.00,VWS V14.01,2013-05-18 10:23:00,
2013-05-18 06:24:00,54.8,46.7,30.11,West,279,0.0,0.0,74,0.00,,,0.00,VWS V14.01,2013-05-18 10:24:00,
2013-05-18 06:25:00,54.8,46.7,30.10,West,279,0.0,0.0,74,0.00,,,0.00,VWS V14.01,2013-05-18 10:25:00,
2013-05-18 06:26:00,54.8,46.7,30.10,West,279,0.0,0.0,74,0.00,,,0.00,VWS V14.01,2013-05-18 10:26:00,
2013-05-18 06:27:00,54.8,46.7,30.10,West,279,0.0,0.0,74,0.00,,,0.00,VWS V14.01,2013-05-18 10:27:00,
2013-05-18 06:28:00,54.8,46.7,30.10,West,279,0.0,0.0,74,0.00,,,0.00,VWS V14.01,2013-05-18 10:28:00,
2013-05-18 06:29:00,54.9,46.8,30.10,West,279,0.0,0.0,74,0.00,,,0.00,VWS V14.01,2013-05-18 10:29:00,
2013-05-18 06:30:00,54.9,46.8,30.10,West,279,0.0,0.0,74,0.00,,,0.00,VWS V14.01,2013-05-18 10:30:00,
2013-05-18 06:31:00,54.9,46.8,30.10,West,279,0.0,0.0,74,0.00,,,0.00,VWS V14.01,2013-05-18 10:31:00,
2013-05-18 06:32:00,54.9,46.8,30.10,West,279,0.0,0.0,74,0.00,,,0.00,VWS V14.01,2013-05-18 10:32:00,
2013-05-18 06:33:00,54.9,46.8,30.10,West,279,0.0,0.0,74,0.00,,,0.00,VWS V14.01,2013-05-18 10:33:00,
2013-05-18 06:34:00,54.9,46.4,30.10,West,279,0.0,0.0,73,0.00,,,0.00,VWS V14.01,2013-05-18 10:34:00,
2013-05-18 06:35:00,55.0,46.5,30.10,West,279,0.0,0.0,73,0.00,,,0.00,VWS V14.01,2013-05-18 10:35:00,
2013-05-18 06:36:00,55.0,46.5,30.10,West,279,0.0,0.0,73,0.00,,,0.00,VWS V14.01,2013-05-18 10:36:00,
2013-05-18 06:37:00,55.0,46.5,30.10,West,279,0.0,0.0,73,0.00,,,0.00,VWS V14.01,2013-05-18 10:37:00,
2013-05-18 06:38:00,55.0,46.5,30.10,West,279,0.0,0.0,73,0.00,,,0.00,VWS V14.01,2013-05-18 10:38:00,
2013-05-18 06:39:00,55.0,46.5,30.10,West,279,0.0,0.0,73,0.00,,,0.00,VWS V14.01,2013-05-18 10:39:00,
2013-05-18 06:40:00,55.0,46.5,30.10,West,279,0.0,0.0,73,0.00,,,0.00,VWS V14.01,2013-05-18 10:40:00,
2013-05-18 06:41:00,55.0,46.5,30.10,West,279,0.0,0.0,73,0.00,,,0.00,VWS V14.01,2013-05-18 10:41:00,
2013-05-18 06:42:00,55.0,46.5,30.10,West,279,0.0,0.0,73,0.00,,,0.00,VWS V14.01,2013-05-18 10:42:00,
2013-05-18 06:43:00,55.0,46.5,30.10,West,279,0.0,0.0,73,0.00,,,0.00,VWS V14.01,2013-05-18 10:43:00,
2013-05-18 06:44:00,55.1,46.6,30.10,West,279,0.0,0.0,73,0.00,,,0.00,VWS V14.01,2013-05-18 10:44:00,
2013-05-18 06:45:00,55.1,46.6,30.10,West,279,0.0,0.0,73,0.00,,,0.00,VWS V14.01,2013-05-18 10:45:00,
2013-05-18 06:46:00,55.1,46.6,30.10,West,279,0.0,0.0,73,0.00,,,0.00,VWS V14.01,2013-05-18 10:46:00,
2013-05-18 06:47:00,55.2,46.7,30.10,West,279,0.0,0.0,73,0.00,,,0.00,VWS V14.01,2013-05-18 10:47:00,
2013-05-18 06:48:00,55.2,46.7,30.09,West,279,0.0,0.0,73,0.00,,,0.00,VWS V14.01,2013-05-18 10:48:00,
2013-05-18 06:49:00,55.2,46.7,30.09,West,279,0.0,0.0,73,0.00,,,0.00,VWS V14.01,2013-05-18 10:49:00,
2013-05-18 06:50:00,55.2,46.7,30.09,West,279,0.0,0.0,73,0.00,,,0.00,VWS V14.01,2013-05-18 10:50:00,
2013-05-18 06:51:00,55.3,46.8,30.09,West,279,0.0,0.0,73,0.00,,,0.00,VWS V14.01,2013-05-18 10:51:00,
2013-05-18 06:52:00,55.3,46.8,30.09,West,279,0.0,0.0,73,0.00,,,0.00,VWS V14.01,2013-05-18 10:52:00,
2013-05-18 06:53:00,55.3,46.8,30.09,West,279,0.0,0.0,73,0.00,,,0.00,VWS V14.01,2013-05-18 10:53:00,
2013-05-18 06:54:00,55.4,46.9,30.09,West,279,0.0,0.0,73,0.00,,,0.00,VWS V14.01,2013-05-18 10:54:00,
2013-05-18 06:55:00,55.4,46.9,30.09,West,279,0.0,0.0,73,0.00,,,0.00,VWS V14.01,2013-05-18 10:55:00,
2013-05-18 06:56:00,55.4,46.9,30.09,West,279,0.0,0.0,73,0.00,,,0.00,VWS V14.01,2013-05-18 10:56:00,
2013-05-18 06:57:00,55.4,46.2,30.09,West,279,0.0,0.0,71,0.00,,,0.00,VWS V14.01,2013-05-18 10:57:00,
2013-05-18 06:58:00,55.5,46.3,30.09,West,279,0.0,0.0,71,0.00,,,0.00,VWS V14.01,2013-05-18 10:58:00,
2013-05-18 06:59:00,55.5,46.3,30.09,West,279,0.0,0.0,71,0.00,,,0.00,VWS V14.01,2013-05-18 10:59:00,
2013-05-18 07:00:00,55.5,46.3,30.09,West,279,0.0,0.0,71,0.00,,,0.00,VWS V14.01,2013-05-18 11:00:00,
2013-05-18 07:01:00,55.6,46.0,30.09,West,279,0.0,1.0,70,0.00,,,0.00,VWS V14.01,2013-05-18 11:01:00,
2013-05-18 07:02:00,55.6,46.0,30.09,West,279,0.0,1.0,70,0.00,,,0.00,VWS V14.01,2013-05-18 11:02:00,
2013-05-18 07:03:00,55.7,46.1,30.09,West,279,0.0,1.0,70,0.00,,,0.00,VWS V14.01,2013-05-18 11:03:00,
2013-05-18 07:04:00,55.8,46.2,30.09,West,279,0.0,1.0,70,0.00,,,0.00,VWS V14.01,2013-05-18 11:04:00,
2013-05-18 07:05:00,55.8,45.8,30.09,West,279,0.0,1.0,69,0.00,,,0.00,VWS V14.01,2013-05-18 11:05:00,
2013-05-18 07:06:00,55.9,45.9,30.09,West,279,0.0,1.0,69,0.00,,,0.00,VWS V14.01,2013-05-18 11:06:00,
2013-05-18 07:07:00,56.0,46.0,30.09,West,279,0.0,1.0,69,0.00,,,0.00,VWS V14.01,2013-05-18 11:07:00,
2013-05-18 07:08:00,56.0,46.4,30.09,West,279,0.0,1.0,70,0.00,,,0.00,VWS V14.01,2013-05-18 11:08:00,
2013-05-18 07:09:00,56.0,46.0,30.09,West,279,0.0,1.0,69,0.00,,,0.00,VWS V14.01,2013-05-18 11:09:00,
2013-05-18 07:10:00,56.1,46.1,30.09,West,279,0.0,1.0,69,0.00,,,0.00,VWS V14.01,2013-05-18 11:10:00,
2013-05-18 07:11:00,56.2,46.2,30.09,West,279,0.0,1.0,69,0.00,,,0.00,VWS V14.01,2013-05-18 11:11:00,
2013-05-18 07:12:00,56.2,46.2,30.09,West,279,0.0,1.0,69,0.00,,,0.00,VWS V14.01,2013-05-18 11:12:00,
2013-05-18 07:13:00,56.3,45.9,30.09,West,279,0.0,1.0,68,0.00,,,0.00,VWS V14.01,2013-05-18 11:13:00,
2013-05-18 07:14:00,56.3,45.9,30.09,West,279,0.0,1.0,68,0.00,,,0.00,VWS V14.01,2013-05-18 11:14:00,
2013-05-18 07:15:00,56.4,46.0,30.09,West,279,0.0,1.0,68,0.00,,,0.00,VWS V14.01,2013-05-18 11:15:00,
2013-05-18 07:16:00,56.4,46.0,30.09,West,279,0.0,1.0,68,0.00,,,0.00,VWS V14.01,2013-05-18 11:16:00,
2013-05-18 07:17:00,56.5,46.5,30.09,West,279,0.0,1.0,69,0.00,,,0.00,VWS V14.01,2013-05-18 11:17:00,
2013-05-18 07:18:00,56.5,46.5,30.09,West,279,0.0,1.0,69,0.00,,,0.00,VWS V14.01,2013-05-18 11:18:00,
2013-05-18 07:19:00,56.6,46.6,30.09,West,279,0.0,1.0,69,0.00,,,0.00,VWS V14.01,2013-05-18 11:19:00,
2013-05-18 07:20:00,56.6,46.6,30.09,West,279,0.0,1.0,69,0.00,,,0.00,VWS V14.01,2013-05-18 11:20:00,
2013-05-18 07:21:00,56.7,46.7,30.09,West,279,0.0,1.0,69,0.00,,,0.00,VWS V14.01,2013-05-18 11:21:00,
2013-05-18 07:22:00,56.7,46.7,30.09,West,279,0.0,1.0,69,0.00,,,0.00,VWS V14.01,2013-05-18 11:22:00,
2013-05-18 07:23:00,56.8,47.1,30.09,West,279,0.0,1.0,70,0.00,,,0.00,VWS V14.01,2013-05-18 11:23:00,
2013-05-18 07:24:00,56.8,47.1,30.09,West,279,0.0,1.0,70,0.00,,,0.00,VWS V14.01,2013-05-18 11:24:00,
2013-05-18 07:25:00,56.8,47.1,30.09,West,279,0.0,1.0,70,0.00,,,0.00,VWS V14.01,2013-05-18 11:25:00,
2013-05-18 07:26:00,56.8,47.1,30.09,West,279,0.0,1.0,70,0.00,,,0.00,VWS V14.01,2013-05-18 11:26:00,
2013-05-18 07:27:00,56.9,46.8,30.09,West,279,0.0,1.0,69,0.00,,,0.00,VWS V14.01,2013-05-18 11:27:00,
2013-05-18 07:28:00,56.9,46.8,30.09,West,279,0.0,1.0,69,0.00,,,0.00,VWS V14.01,2013-05-18 11:28:00,
2013-05-18 07:29:00,56.9,47.2,30.09,West,279,0.0,1.0,70,0.00,,,0.00,VWS V14.01,2013-05-18 11:29:00,
2013-05-18 07:30:00,57.0,47.3,30.09,West,279,0.0,1.0,70,0.00,,,0.00,VWS V14.01,2013-05-18 11:30:00,
2013-05-18 07:31:00,57.0,47.7,30.09,West,279,0.0,0.0,71,0.00,,,0.00,VWS V14.01,2013-05-18 11:31:00,
2013-05-18 07:32:00,57.1,47.0,30.09,West,279,0.0,0.0,69,0.00,,,0.00,VWS V14.01,2013-05-18 11:32:00,
2013-05-18 07:33:00,57.1,46.7,30.09,West,279,0.0,0.0,68,0.00,,,0.00,VWS V14.01,2013-05-18 11:33:00,
2013-05-18 07:34:00,57.1,46.7,30.09,West,279,0.0,0.0,68,0.00,,,0.00,VWS V14.01,2013-05-18 11:34:00,
2013-05-18 07:35:00,57.2,46.8,30.09,West,281,0.0,1.0,68,0.00,,,0.00,VWS V14.01,2013-05-18 11:35:00,
2013-05-18 07:36:00,57.2,46.4,30.09,West,281,0.0,1.0,67,0.00,,,0.00,VWS V14.01,2013-05-18 11:36:00,
2013-05-18 07:37:00,57.2,46.4,30.09,West,281,0.0,1.0,67,0.00,,,0.00,VWS V14.01,2013-05-18 11:37:00,
2013-05-18 07:38:00,57.3,46.8,30.09,West,281,0.0,1.0,68,0.00,,,0.00,VWS V14.01,2013-05-18 11:38:00,
2013-05-18 07:39:00,57.4,46.9,30.09,West,281,0.0,1.0,68,0.00,,,0.00,VWS V14.01,2013-05-18 11:39:00,
2013-05-18 07:40:00,57.5,46.6,30.09,West,281,0.0,1.0,67,0.00,,,0.00,VWS V14.01,2013-05-18 11:40:00,
2013-05-18 07:41:00,57.5,46.2,30.09,West,281,0.0,1.0,66,0.00,,,0.00,VWS V14.01,2013-05-18 11:41:00,
2013-05-18 07:42:00,57.6,46.3,30.09,West,281,0.0,1.0,66,0.00,,,0.00,VWS V14.01,2013-05-18 11:42:00,
2013-05-18 07:43:00,57.6,46.3,30.09,West,281,0.0,1.0,66,0.00,,,0.00,VWS V14.01,2013-05-18 11:43:00,
2013-05-18 07:44:00,57.7,46.4,30.09,West,281,0.0,1.0,66,0.00,,,0.00,VWS V14.01,2013-05-18 11:44:00,
2013-05-18 07:45:00,57.7,46.4,30.09,West,281,0.0,1.0,66,0.00,,,0.00,VWS V14.01,2013-05-18 11:45:00,
2013-05-18 07:46:00,57.8,46.5,30.09,West,281,0.0,1.0,66,0.00,,,0.00,VWS V14.01,2013-05-18 11:46:00,
2013-05-18 07:47:00,57.8,46.5,30.09,West,281,0.0,1.0,66,0.00,,,0.00,VWS V14.01,2013-05-18 11:47:00,
2013-05-18 07:48:00,57.9,46.2,30.09,West,281,0.0,1.0,65,0.00,,,0.00,VWS V14.01,2013-05-18 11:48:00,
2013-05-18 07:49:00,58.0,46.7,30.09,West,281,0.0,1.0,66,0.00,,,0.00,VWS V14.01,2013-05-18 11:49:00,
2013-05-18 07:50:00,58.1,47.2,30.09,West,281,0.0,1.0,67,0.00,,,0.00,VWS V14.01,2013-05-18 11:50:00,
2013-05-18 07:51:00,58.2,47.3,30.09,WNW,284,0.0,1.0,67,0.00,,,0.00,VWS V14.01,2013-05-18 11:51:00,
2013-05-18 07:52:00,58.2,47.3,30.09,WNW,283,0.0,1.0,67,0.00,,,0.00,VWS V14.01,2013-05-18 11:52:00,
2013-05-18 07:53:00,58.3,47.4,30.09,WNW,284,0.0,1.0,67,0.00,,,0.00,VWS V14.01,2013-05-18 11:53:00,
2013-05-18 07:54:00,58.4,47.5,30.09,WNW,283,0.0,1.0,67,0.00,,,0.00,VWS V14.01,2013-05-18 11:54:00,
2013-05-18 07:55:00,58.4,47.5,30.09,WNW,283,0.0,1.0,67,0.00,,,0.00,VWS V14.01,2013-05-18 11:55:00,
2013-05-18 07:56:00,58.5,47.2,30.09,WNW,283,0.0,1.0,66,0.00,,,0.00,VWS V14.01,2013-05-18 11:56:00,
2013-05-18 07:57:00,58.5,47.6,30.09,WNW,283,0.0,1.0,67,0.00,,,0.00,VWS V14.01,2013-05-18 11:57:00,
2013-05-18 07:58:00,58.6,47.3,30.09,WNW,284,0.0,1.0,66,0.00,,,0.00,VWS V14.01,2013-05-18 11:58:00,
2013-05-18 07:59:00,58.7,47.4,30.09,WNW,284,0.0,1.0,66,0.00,,,0.00,VWS V14.01,2013-05-18 11:59:00,
2013-05-18 08:00:00,58.8,47.5,30.09,WNW,284,0.0,1.0,66,0.00,,,0.00,VWS V14.01,2013-05-18 12:00:00,
2013-05-18 08:01:00,58.9,47.2,30.10,WNW,284,0.0,0.0,65,0.00,,,0.00,VWS V14.01,2013-05-18 12:01:00,
2013-05-18 08:02:00,59.0,47.7,30.10,WNW,283,0.0,0.0,66,0.00,,,0.00,VWS V14.01,2013-05-18 12:02:00,
2013-05-18 08:03:00,59.0,46.8,30.10,WNW,284,0.0,0.0,64,0.00,,,0.00,VWS V14.01,2013-05-18 12:03:00,
2013-05-18 08:04:00,59.0,47.3,30.10,WNW,284,0.0,0.0,65,0.00,,,0.00,VWS V14.01,2013-05-18 12:04:00,
2013-05-18 08:05:00,59.0,47.3,30.10,WNW,284,0.0,0.0,65,0.00,,,0.00,VWS V14.01,2013-05-18 12:05:00,
2013-05-18 08:06:00,59.0,46.8,30.09,WNW,284,0.0,0.0,64,0.00,,,0.00,VWS V14.01,2013-05-18 12:06:00,
2013-05-18 08:07:00,59.0,46.8,30.10,WNW,284,0.0,0.0,64,0.00,,,0.00,VWS V14.01,2013-05-18 12:07:00,
2013-05-18 08:08:00,59.2,47.0,30.09,WNW,284,0.0,0.0,64,0.00,,,0.00,VWS V14.01,2013-05-18 12:08:00,
2013-05-18 08:09:00,59.3,47.1,30.10,WNW,284,0.0,0.0,64,0.00,,,0.00,VWS V14.01,2013-05-18 12:09:00,
2013-05-18 08:10:00,59.4,47.2,30.10,WNW,284,0.0,0.0,64,0.00,,,0.00,VWS V14.01,2013-05-18 12:10:00,
2013-05-18 08:11:00,59.5,46.9,30.10,WNW,283,0.0,0.0,63,0.00,,,0.00,VWS V14.01,2013-05-18 12:11:00,
2013-05-18 08:12:00,59.6,47.0,30.09,WNW,284,0.0,0.0,63,0.00,,,0.00,VWS V14.01,2013-05-18 12:12:00,
2013-05-18 08:13:00,59.7,47.1,30.09,WNW,284,0.0,0.0,63,0.00,,,0.00,VWS V14.01,2013-05-18 12:13:00,
2013-05-18 08:14:00,59.8,47.2,30.09,WNW,284,0.0,0.0,63,0.00,,,0.00,VWS V14.01,2013-05-18 12:14:00,
2013-05-18 08:15:00,59.9,47.3,30.09,WNW,284,0.0,0.0,63,0.00,,,0.00,VWS V14.01,2013-05-18 12:15:00,
2013-05-18 08:16:00,60.1,47.9,30.09,WNW,284,0.0,0.0,64,0.00,,,0.00,VWS V14.01,2013-05-18 12:16:00,
2013-05-18 08:17:00,60.2,47.6,30.09,WNW,283,0.0,0.0,63,0.00,,,0.00,VWS V14.01,2013-05-18 12:17:00,
2013-05-18 08:18:00,60.3,47.7,30.10,WNW,283,0.0,0.0,63,0.00,,,0.00,VWS V14.01,2013-05-18 12:18:00,
2013-05-18 08:19:00,60.4,47.8,30.09,WNW,290,0.0,1.0,63,0.00,,,0.00,VWS V14.01,2013-05-18 12:19:00,
2013-05-18 08:20:00,60.5,47.4,30.10,WNW,290,0.0,1.0,62,0.00,,,0.00,VWS V14.01,2013-05-18 12:20:00,
2013-05-18 08:21:00,60.6,47.5,30.10,WNW,290,0.0,1.0,62,0.00,,,0.00,VWS V14.01,2013-05-18 12:21:00,
2013-05-18 08:22:00,60.8,47.7,30.10,WNW,290,0.0,1.0,62,0.00,,,0.00,VWS V14.01,2013-05-18 12:22:00,
2013-05-18 08:23:00,60.9,47.8,30.10,WNW,290,0.0,1.0,62,0.00,,,0.00,VWS V14.01,2013-05-18 12:23:00,
2013-05-18 08:24:00,61.0,47.9,30.09,WNW,290,0.0,1.0,62,0.00,,,0.00,VWS V14.01,2013-05-18 12:24:00,
2013-05-18 08:25:00,61.1,48.0,30.09,WNW,290,0.0,1.0,62,0.00,,,0.00,VWS V14.01,2013-05-18 12:25:00,
2013-05-18 08:26:00,61.3,47.8,30.09,WNW,288,0.0,1.0,61,0.00,,,0.00,VWS V14.01,2013-05-18 12:26:00,
2013-05-18 08:27:00,61.4,47.4,30.09,WNW,289,0.0,1.0,60,0.00,,,0.00,VWS V14.01,2013-05-18 12:27:00,
2013-05-18 08:28:00,61.5,47.5,30.09,WNW,289,0.0,1.0,60,0.00,,,0.00,VWS V14.01,2013-05-18 12:28:00,
2013-05-18 08:29:00,61.6,47.6,30.09,WNW,289,1.0,1.0,60,0.00,,,0.00,VWS V14.01,2013-05-18 12:29:00,
2013-05-18 08:30:00,61.7,47.7,30.09,WNW,289,0.0,1.0,60,0.00,,,0.00,VWS V14.01,2013-05-18 12:30:00,
2013-05-18 08:31:00,61.8,47.3,30.09,WNW,288,0.0,0.0,59,0.00,,,0.00,VWS V14.01,2013-05-18 12:31:00,
2013-05-18 08:32:00,62.0,48.0,30.09,WNW,289,0.0,0.0,60,0.00,,,0.00,VWS V14.01,2013-05-18 12:32:00,
2013-05-18 08:33:00,62.1,48.5,30.09,WNW,289,0.0,0.0,61,0.00,,,0.00,VWS V14.01,2013-05-18 12:33:00,
2013-05-18 08:34:00,62.2,48.6,30.09,WNW,289,0.0,0.0,61,0.00,,,0.00,VWS V14.01,2013-05-18 12:34:00,
2013-05-18 08:35:00,62.2,48.2,30.09,WNW,289,0.0,0.0,60,0.00,,,0.00,VWS V14.01,2013-05-18 12:35:00,
2013-05-18 08:36:00,62.4,47.9,30.09,WNW,289,0.0,0.0,59,0.00,,,0.00,VWS V14.01,2013-05-18 12:36:00,
2013-05-18 08:37:00,62.5,48.0,30.09,WNW,289,0.0,0.0,59,0.00,,,0.00,VWS V14.01,2013-05-18 12:37:00,
2013-05-18 08:38:00,62.5,48.4,30.09,WNW,289,0.0,0.0,60,0.00,,,0.00,VWS V14.01,2013-05-18 12:38:00,
2013-05-18 08:39:00,62.6,48.5,30.09,WNW,289,0.0,0.0,60,0.00,,,0.00,VWS V14.01,2013-05-18 12:39:00,
2013-05-18 08:40:00,62.7,47.7,30.09,WNW,288,0.0,0.0,58,0.00,,,0.00,VWS V14.01,2013-05-18 12:40:00,
2013-05-18 08:41:00,62.7,47.7,30.09,WNW,289,0.0,0.0,58,0.00,,,0.00,VWS V14.01,2013-05-18 12:41:00,
2013-05-18 08:42:00,62.8,47.8,30.09,WNW,289,0.0,0.0,58,0.00,,,0.00,VWS V14.01,2013-05-18 12:42:00,
2013-05-18 08:43:00,62.8,47.8,30.09,WNW,288,1.0,1.0,58,0.00,,,0.00,VWS V14.01,2013-05-18 12:43:00,
2013-05-18 08:44:00,62.9,47.5,30.09,NNE,15,1.0,3.0,57,0.00,,,0.00,VWS V14.01,2013-05-18 12:44:00,
2013-05-18 08:45:00,62.8,47.4,30.09,NNE,15,0.0,3.0,57,0.00,,,0.00,VWS V14.01,2013-05-18 12:45:00,
2013-05-18 08:46:00,62.9,47.5,30.09,NNE,15,0.0,3.0,57,0.00,,,0.00,VWS V14.01,2013-05-18 12:46:00,
2013-05-18 08:47:00,62.9,47.5,30.09,NNE,15,0.0,3.0,57,0.00,,,0.00,VWS V14.01,2013-05-18 12:47:00,
2013-05-18 08:48:00,62.9,47.5,30.09,NNE,15,0.0,3.0,57,0.00,,,0.00,VWS V14.01,2013-05-18 12:48:00,
2013-05-18 08:49:00,62.9,47.9,30.09,NNE,15,0.0,3.0,58,0.00,,,0.00,VWS V14.01,2013-05-18 12:49:00,
2013-05-18 08:50:00,62.9,47.9,30.09,NNE,15,0.0,3.0,58,0.00,,,0.00,VWS V14.01,2013-05-18 12:50:00,
2013-05-18 08:51:00,63.0,48.0,30.09,NNE,15,0.0,3.0,58,0.00,,,0.00,VWS V14.01,2013-05-18 12:51:00,
2013-05-18 08:52:00,63.0,47.5,30.09,NNE,15,0.0,3.0,57,0.00,,,0.00,VWS V14.01,2013-05-18 12:52:00,
2013-05-18 08:53:00,62.9,47.5,30.09,NNE,15,0.0,3.0,57,0.00,,,0.00,VWS V14.01,2013-05-18 12:53:00,
2013-05-18 08:54:00,62.9,47.5,30.09,NNE,15,0.0,3.0,57,0.00,,,0.00,VWS V14.01,2013-05-18 12:54:00,
2013-05-18 08:55:00,62.9,47.9,30.09,NNE,15,0.0,3.0,58,0.00,,,0.00,VWS V14.01,2013-05-18 12:55:00,
2013-05-18 08:56:00,62.9,47.9,30.09,NNE,15,0.0,3.0,58,0.00,,,0.00,VWS V14.01,2013-05-18 12:56:00,
2013-05-18 08:57:00,62.9,48.4,30.09,NNE,15,0.0,3.0,59,0.00,,,0.00,VWS V14.01,2013-05-18 12:57:00,
2013-05-18 08:58:00,62.9,47.9,30.09,NE,54,0.0,3.0,58,0.00,,,0.00,VWS V14.01,2013-05-18 12:58:00,
2013-05-18 08:59:00,62.9,47.9,30.09,NE,54,0.0,3.0,58,0.00,,,0.00,VWS V14.01,2013-05-18 12:59:00,
2013-05-18 09:00:00,62.9,47.5,30.09,NE,56,0.0,3.0,57,0.00,,,0.00,VWS V14.01,2013-05-18 13:00:00,
2013-05-18 09:01:00,62.9,47.5,30.09,ENE,68,1.0,1.0,57,0.00,,,0.00,VWS V14.01,2013-05-18 13:01:00,
2013-05-18 09:02:00,62.8,46.9,30.10,ENE,69,0.0,1.0,56,0.00,,,0.00,VWS V14.01,2013-05-18 13:02:00,
2013-05-18 09:03:00,62.8,47.4,30.10,ENE,66,0.0,1.0,57,0.00,,,0.00,VWS V14.01,2013-05-18 13:03:00,
2013-05-18 09:04:00,62.8,47.4,30.10,ENE,65,0.0,1.0,57,0.00,,,0.00,VWS V14.01,2013-05-18 13:04:00,
2013-05-18 09:05:00,62.8,47.4,30.09,ENE,65,0.0,1.0,57,0.00,,,0.00,VWS V14.01,2013-05-18 13:05:00,
2013-05-18 09:06:00,62.8,46.9,30.09,ENE,65,0.0,1.0,56,0.00,,,0.00,VWS V14.01,2013-05-18 13:06:00,
2013-05-18 09:07:00,62.8,47.4,30.09,NW,325,0.0,1.0,57,0.00,,,0.00,VWS V14.01,2013-05-18 13:07:00,
2013-05-18 09:08:00,62.7,47.7,30.09,NW,325,0.0,1.0,58,0.00,,,0.00,VWS V14.01,2013-05-18 13:08:00,
2013-05-18 09:09:00,62.8,47.8,30.09,NW,325,0.0,1.0,58,0.00,,,0.00,VWS V14.01,2013-05-18 13:09:00,
2013-05-18 09:10:00,62.8,47.4,30.09,NW,325,0.0,1.0,57,0.00,,,0.00,VWS V14.01,2013-05-18 13:10:00,
2013-05-18 09:11:00,62.8,47.8,30.09,NW,325,0.0,1.0,58,0.00,,,0.00,VWS V14.01,2013-05-18 13:11:00,
2013-05-18 09:12:00,62.8,47.8,30.09,NW,325,0.0,1.0,58,0.00,,,0.00,VWS V14.01,2013-05-18 13:12:00,
2013-05-18 09:13:00,62.8,47.8,30.09,NW,325,0.0,1.0,58,0.00,,,0.00,VWS V14.01,2013-05-18 13:13:00,
2013-05-18 09:14:00,62.9,47.9,30.09,NW,325,0.0,1.0,58,0.00,,,0.00,VWS V14.01,2013-05-18 13:14:00,
2013-05-18 09:15:00,62.9,47.5,30.09,NW,325,0.0,1.0,57,0.00,,,0.00,VWS V14.01,2013-05-18 13:15:00,
2013-05-18 09:16:00,62.9,47.9,30.09,NW,325,0.0,1.0,58,0.00,,,0.00,VWS V14.01,2013-05-18 13:16:00,
2013-05-18 09:17:00,63.0,48.0,30.09,NW,325,0.0,1.0,58,0.00,,,0.00,VWS V14.01,2013-05-18 13:17:00,
2013-05-18 09:18:00,63.1,47.6,30.09,ENE,69,0.0,2.0,57,0.00,,,0.00,VWS V14.01,2013-05-18 13:18:00,
2013-05-18 09:19:00,63.1,47.6,30.09,ENE,68,0.0,2.0,57,0.00,,,0.00,VWS V14.01,2013-05-18 13:19:00,
2013-05-18 09:20:00,63.2,48.2,30.08,ENE,68,0.0,2.0,58,0.00,,,0.00,VWS V14.01,2013-05-18 13:20:00,
2013-05-18 09:21:00,63.3,47.8,30.08,ENE,69,0.0,2.0,57,0.00,,,0.00,VWS V14.01,2013-05-18 13:21:00,
2013-05-18 09:22:00,63.4,47.5,30.08,ENE,69,0.0,2.0,56,0.00,,,0.00,VWS V14.01,2013-05-18 13:22:00,
2013-05-18 09:23:00,63.4,47.5,30.08,ENE,69,0.0,2.0,56,0.00,,,0.00,VWS V14.01,2013-05-18 13:23:00,
2013-05-18 09:24:00,63.6,48.1,30.08,ENE,69,0.0,2.0,57,0.00,,,0.00,VWS V14.01,2013-05-18 13:24:00,
2013-05-18 09:25:00,63.7,47.7,30.08,South,175,0.0,2.0,56,0.00,,,0.00,VWS V14.01,2013-05-18 13:25:00,
2013-05-18 09:26:00,63.8,47.3,30.08,South,175,0.0,2.0,55,0.00,,,0.00,VWS V14.01,2013-05-18 13:26:00,
2013-05-18 09:27:00,63.9,47.9,30.08,SSE,160,1.0,2.0,56,0.00,,,0.00,VWS V14.01,2013-05-18 13:27:00,
2013-05-18 09:28:00,64.0,47.5,30.08,SSE,160,0.0,2.0,55,0.00,,,0.00,VWS V14.01,2013-05-18 13:28:00,
2013-05-18 09:29:00,64.1,47.6,30.08,SSE,160,0.0,2.0,55,0.00,,,0.00,VWS V14.01,2013-05-18 13:29:00,
2013-05-18 09:30:00,64.3,47.8,30.08,SSE,160,0.0,2.0,55,0.00,,,0.00,VWS V14.01,2013-05-18 13:30:00,
2013-05-18 09:31:00,64.4,47.4,30.08,SSE,160,0.0,0.0,54,0.00,,,0.00,VWS V14.01,2013-05-18 13:31:00,
2013-05-18 09:32:00,64.5,48.0,30.08,SSE,160,0.0,0.0,55,0.00,,,0.00,VWS V14.01,2013-05-18 13:32:00,
2013-05-18 09:33:00,64.6,48.1,30.08,SSE,160,0.0,0.0,55,0.00,,,0.00,VWS V14.01,2013-05-18 13:33:00,
2013-05-18 09:34:00,64.7,47.7,30.08,SSE,158,0.0,0.0,54,0.00,,,0.00,VWS V14.01,2013-05-18 13:34:00,
2013-05-18 09:35:00,64.8,48.3,30.08,SSE,157,0.0,1.0,55,0.00,,,0.00,VWS V14.01,2013-05-18 13:35:00,
2013-05-18 09:36:00,64.9,47.9,30.08,SSE,157,0.0,1.0,54,0.00,,,0.00,VWS V14.01,2013-05-18 13:36:00,
2013-05-18 09:37:00,65.0,48.5,30.08,SSE,157,0.0,1.0,55,0.00,,,0.00,VWS V14.01,2013-05-18 13:37:00,
2013-05-18 09:38:00,65.1,48.5,30.08,SSE,158,0.0,1.0,55,0.00,,,0.00,VWS V14.01,2013-05-18 13:38:00,
2013-05-18 09:39:00,65.2,48.6,30.08,SSE,158,0.0,1.0,55,0.00,,,0.00,VWS V14.01,2013-05-18 13:39:00,
2013-05-18 09:40:00,65.4,48.3,30.08,SSE,158,0.0,1.0,54,0.00,,,0.00,VWS V14.01,2013-05-18 13:40:00,
2013-05-18 09:41:00,65.5,48.9,30.08,SSE,157,0.0,1.0,55,0.00,,,0.00,VWS V14.01,2013-05-18 13:41:00,
2013-05-18 09:42:00,65.7,49.1,30.08,SSE,158,0.0,1.0,55,0.00,,,0.00,VWS V14.01,2013-05-18 13:42:00,
2013-05-18 09:43:00,65.9,49.3,30.08,SSE,158,0.0,1.0,55,0.00,,,0.00,VWS V14.01,2013-05-18 13:43:00,
2013-05-18 09:44:00,66.0,49.4,30.08,SE,145,0.0,1.0,55,0.00,,,0.00,VWS V14.01,2013-05-18 13:44:00,
2013-05-18 09:45:00,66.1,48.5,30.08,SE,146,0.0,1.0,53,0.00,,,0.00,VWS V14.01,2013-05-18 13:45:00,
2013-05-18 09:46:00,66.3,49.2,30.08,SE,145,0.0,1.0,54,0.00,,,0.00,VWS V14.01,2013-05-18 13:46:00,
2013-05-18 09:47:00,66.4,48.8,30.08,SE,145,0.0,1.0,53,0.00,,,0.00,VWS V14.01,2013-05-18 13:47:00,
2013-05-18 09:48:00,66.5,48.9,30.08,SE,146,0.0,1.0,53,0.00,,,0.00,VWS V14.01,2013-05-18 13:48:00,
2013-05-18 09:49:00,66.6,48.4,30.08,SE,146,0.0,1.0,52,0.00,,,0.00,VWS V14.01,2013-05-18 13:49:00,
2013-05-18 09:50:00,66.7,48.5,30.08,SE,146,0.0,1.0,52,0.00,,,0.00,VWS V14.01,2013-05-18 13:50:00,
2013-05-18 09:51:00,66.8,49.1,30.08,SE,145,1.0,1.0,53,0.00,,,0.00,VWS V14.01,2013-05-18 13:51:00,
2013-05-18 09:52:00,66.8,49.1,30.08,SE,146,1.0,1.0,53,0.00,,,0.00,VWS V14.01,2013-05-18 13:52:00,
2013-05-18 09:53:00,66.8,48.6,30.08,WNW,286,0.0,2.0,52,0.00,,,0.00,VWS V14.01,2013-05-18 13:53:00,
2013-05-18 09:54:00,66.8,48.6,30.08,WNW,286,0.0,2.0,52,0.00,,,0.00,VWS V14.01,2013-05-18 13:54:00,
2013-05-18 09:55:00,66.8,48.6,30.08,WSW,237,0.0,2.0,52,0.00,,,0.00,VWS V14.01,2013-05-18 13:55:00,
2013-05-18 09:56:00,66.7,48.0,30.08,SW,230,0.0,2.0,51,0.00,,,0.00,VWS V14.01,2013-05-18 13:56:00,
2013-05-18 09:57:00,66.7,48.0,30.08,South,170,0.0,2.0,51,0.00,,,0.00,VWS V14.01,2013-05-18 13:57:00,
2013-05-18 09:58:00,66.7,48.0,30.08,South,169,0.0,2.0,51,0.00,,,0.00,VWS V14.01,2013-05-18 13:58:00,
2013-05-18 09:59:00,66.7,48.0,30.08,South,169,0.0,2.0,51,0.00,,,0.00,VWS V14.01,2013-05-18 13:59:00,
2013-05-18 10:00:00,66.7,48.0,30.08,South,169,0.0,2.0,51,0.00,,,0.00,VWS V14.01,2013-05-18 14:00:00,
2013-05-18 10:01:00,66.8,48.1,30.08,SSE,157,0.0,1.0,51,0.00,,,0.00,VWS V14.01,2013-05-18 14:01:00,
2013-05-18 10:02:00,66.8,48.6,30.08,SSE,157,0.0,1.0,52,0.00,,,0.00,VWS V14.01,2013-05-18 14:02:00,
2013-05-18 10:03:00,66.9,48.7,30.08,SSE,157,0.0,1.0,52,0.00,,,0.00,VWS V14.01,2013-05-18 14:03:00,
2013-05-18 10:04:00,67.0,48.8,30.08,SSE,157,0.0,1.0,52,0.00,,,0.00,VWS V14.01,2013-05-18 14:04:00,
2013-05-18 10:05:00,67.1,49.4,30.08,SSE,157,0.0,1.0,53,0.00,,,0.00,VWS V14.01,2013-05-18 14:05:00,
2013-05-18 10:06:00,67.2,49.5,30.08,SSE,157,0.0,1.0,53,0.00,,,0.00,VWS V14.01,2013-05-18 14:06:00,
2013-05-18 10:07:00,67.3,49.1,30.08,SSE,157,0.0,1.0,52,0.00,,,0.00,VWS V14.01,2013-05-18 14:07:00,
2013-05-18 10:08:00,67.4,49.7,30.08,SSE,160,0.0,1.0,53,0.00,,,0.00,VWS V14.01,2013-05-18 14:08:00,
2013-05-18 10:09:00,67.5,49.3,30.08,SSE,160,0.0,1.0,52,0.00,,,0.00,VWS V14.01,2013-05-18 14:09:00,
2013-05-18 10:10:00,67.6,48.8,30.08,South,184,0.0,1.0,51,0.00,,,0.00,VWS V14.01,2013-05-18 14:10:00,
2013-05-18 10:11:00,67.7,49.5,30.08,South,184,0.0,1.0,52,0.00,,,0.00,VWS V14.01,2013-05-18 14:11:00,
2013-05-18 10:12:00,67.9,50.2,30.08,South,184,0.0,1.0,53,0.00,,,0.00,VWS V14.01,2013-05-18 14:12:00,
2013-05-18 10:13:00,67.9,49.1,30.08,South,184,0.0,1.0,51,0.00,,,0.00,VWS V14.01,2013-05-18 14:13:00,
2013-05-18 10:14:00,68.1,49.3,30.08,South,184,0.0,1.0,51,0.00,,,0.00,VWS V14.01,2013-05-18 14:14:00,
2013-05-18 10:15:00,68.2,49.4,30.08,South,184,0.0,1.0,51,0.00,,,0.00,VWS V14.01,2013-05-18 14:15:00,
2013-05-18 10:16:00,68.3,49.5,30.08,South,181,0.0,1.0,51,0.00,,,0.00,VWS V14.01,2013-05-18 14:16:00,
2013-05-18 10:17:00,68.4,49.6,30.08,South,181,0.0,1.0,51,0.00,,,0.00,VWS V14.01,2013-05-18 14:17:00,
2013-05-18 10:18:00,68.5,49.7,30.08,South,180,0.0,1.0,51,0.00,,,0.00,VWS V14.01,2013-05-18 14:18:00,
2013-05-18 10:19:00,68.6,49.2,30.08,South,181,0.0,1.0,50,0.00,,,0.00,VWS V14.01,2013-05-18 14:19:00,
2013-05-18 10:20:00,68.6,49.2,30.08,South,181,0.0,1.0,50,0.00,,,0.00,VWS V14.01,2013-05-18 14:20:00,
2013-05-18 10:21:00,68.6,48.7,30.08,SW,217,0.0,2.0,49,0.00,,,0.00,VWS V14.01,2013-05-18 14:21:00,
2013-05-18 10:22:00,68.7,49.3,30.08,SW,217,0.0,2.0,50,0.00,,,0.00,VWS V14.01,2013-05-18 14:22:00,
2013-05-18 10:23:00,68.7,49.3,30.08,SW,217,0.0,2.0,50,0.00,,,0.00,VWS V14.01,2013-05-18 14:23:00,
2013-05-18 10:24:00,68.8,49.4,30.08,SW,217,0.0,2.0,50,0.00,,,0.00,VWS V14.01,2013-05-18 14:24:00,
2013-05-18 10:25:00,68.8,49.4,30.08,SW,222,0.0,2.0,50,0.00,,,0.00,VWS V14.01,2013-05-18 14:25:00,
2013-05-18 10:26:00,68.9,50.0,30.08,SW,222,0.0,2.0,51,0.00,,,0.00,VWS V14.01,2013-05-18 14:26:00,
2013-05-18 10:27:00,68.9,50.0,30.08,SW,222,0.0,2.0,51,0.00,,,0.00,VWS V14.01,2013-05-18 14:27:00,
2013-05-18 10:28:00,69.0,50.7,30.08,SW,222,0.0,2.0,52,0.00,,,0.00,VWS V14.01,2013-05-18 14:28:00,
2013-05-18 10:29:00,69.1,50.8,30.08,WSW,240,0.0,2.0,52,0.00,,,0.00,VWS V14.01,2013-05-18 14:29:00,
2013-05-18 10:30:00,69.2,50.3,30.08,SW,227,1.0,2.0,51,0.00,,,0.00,VWS V14.01,2013-05-18 14:30:00,
2013-05-18 10:31:00,69.3,50.9,30.08,SW,227,0.0,1.0,52,0.00,,,0.00,VWS V14.01,2013-05-18 14:31:00,
2013-05-18 10:32:00,69.5,50.1,30.08,SW,227,0.0,1.0,50,0.00,,,0.00,VWS V14.01,2013-05-18 14:32:00,
2013-05-18 10:33:00,69.6,50.7,30.08,SW,227,0.0,1.0,51,0.00,,,0.00,VWS V14.01,2013-05-18 14:33:00,
2013-05-18 10:34:00,69.7,50.2,30.08,SW,227,0.0,1.0,50,0.00,,,0.00,VWS V14.01,2013-05-18 14:34:00,
2013-05-18 10:35:00,69.8,50.3,30.08,SW,227,0.0,1.0,50,0.00,,,0.00,VWS V14.01,2013-05-18 14:35:00,
2013-05-18 10:36:00,69.9,51.0,30.08,SW,227,0.0,1.0,51,0.00,,,0.00,VWS V14.01,2013-05-18 14:36:00,
2013-05-18 10:37:00,70.0,50.5,30.08,SW,228,0.0,1.0,50,0.00,,,0.00,VWS V14.01,2013-05-18 14:37:00,
2013-05-18 10:38:00,70.1,50.6,30.08,SW,223,0.0,1.0,50,0.00,,,0.00,VWS V14.01,2013-05-18 14:38:00,
2013-05-18 10:39:00,70.1,50.1,30.08,SW,223,0.0,1.0,49,0.00,,,0.00,VWS V14.01,2013-05-18 14:39:00,
2013-05-18 10:40:00,70.2,49.6,30.08,SW,217,0.0,1.0,48,0.00,,,0.00,VWS V14.01,2013-05-18 14:40:00,
2013-05-18 10:41:00,70.2,50.7,30.08,SW,217,0.0,1.0,50,0.00,,,0.00,VWS V14.01,2013-05-18 14:41:00,
2013-05-18 10:42:00,70.3,49.7,30.08,SSW,209,2.0,2.0,48,0.00,,,0.00,VWS V14.01,2013-05-18 14:42:00,
2013-05-18 10:43:00,70.3,49.7,30.08,SW,219,0.0,2.0,48,0.00,,,0.00,VWS V14.01,2013-05-18 14:43:00,
2013-05-18 10:44:00,70.3,49.7,30.08,SSE,163,0.0,4.0,48,0.00,,,0.00,VWS V14.01,2013-05-18 14:44:00,
2013-05-18 10:45:00,70.3,49.1,30.08,SSE,163,0.0,4.0,47,0.00,,,0.00,VWS V14.01,2013-05-18 14:45:00,
2013-05-18 10:46:00,70.3,49.7,30.08,NNW,334,1.0,4.0,48,0.00,,,0.00,VWS V14.01,2013-05-18 14:46:00,
2013-05-18 10:47:00,70.4,50.3,30.08,NNW,336,0.0,4.0,49,0.00,,,0.00,VWS V14.01,2013-05-18 14:47:00,
2013-05-18 10:48:00,70.4,49.8,30.08,NW,323,0.0,4.0,48,0.00,,,0.00,VWS V14.01,2013-05-18 14:48:00,
2013-05-18 10:49:00,70.5,49.9,30.08,NE,55,0.0,4.0,48,0.00,,,0.00,VWS V14.01,2013-05-18 14:49:00,
2013-05-18 10:50:00,70.7,50.6,30.08,ENE,73,0.0,4.0,49,0.00,,,0.00,VWS V14.01,2013-05-18 14:50:00,
2013-05-18 10:51:00,70.8,50.2,30.08,ENE,73,0.0,4.0,48,0.00,,,0.00,VWS V14.01,2013-05-18 14:51:00,
2013-05-18 10:52:00,70.9,49.7,30.08,ENE,75,0.0,4.0,47,0.00,,,0.00,VWS V14.01,2013-05-18 14:52:00,
2013-05-18 10:53:00,71.0,49.2,30.08,WNW,291,0.0,4.0,46,0.00,,,0.00,VWS V14.01,2013-05-18 14:53:00,
2013-05-18 10:54:00,71.0,49.8,30.08,WNW,291,0.0,4.0,47,0.00,,,0.00,VWS V14.01,2013-05-18 14:54:00,
2013-05-18 10:55:00,71.1,49.9,30.07,WNW,291,1.0,4.0,47,0.00,,,0.00,VWS V14.01,2013-05-18 14:55:00,
2013-05-18 10:56:00,71.2,50.0,30.07,ENE,65,0.0,4.0,47,0.00,,,0.00,VWS V14.01,2013-05-18 14:56:00,
2013-05-18 10:57:00,71.3,50.0,30.07,ENE,65,2.0,4.0,47,0.00,,,0.00,VWS V14.01,2013-05-18 14:57:00,
2013-05-18 10:58:00,71.5,50.8,30.08,ENE,69,0.0,4.0,48,0.00,,,0.00,VWS V14.01,2013-05-18 14:58:00,
2013-05-18 10:59:00,71.6,50.3,30.08,NNE,18,0.0,4.0,47,0.00,,,0.00,VWS V14.01,2013-05-18 14:59:00,
2013-05-18 11:00:00,71.7,49.8,30.07,NNE,18,0.0,4.0,46,0.00,,,0.00,VWS V14.01,2013-05-18 15:00:00,
2013-05-18 11:01:00,71.8,49.3,30.07,NNE,18,0.0,1.0,45,0.00,,,0.00,VWS V14.01,2013-05-18 15:01:00,
2013-05-18 11:02:00,71.9,50.0,30.07,North,11,0.0,1.0,46,0.00,,,0.00,VWS V14.01,2013-05-18 15:02:00,
2013-05-18 11:03:00,72.0,50.7,30.07,North,11,0.0,1.0,47,0.00,,,0.00,VWS V14.01,2013-05-18 15:03:00,
2013-05-18 11:04:00,72.0,49.5,30.07,North,11,0.0,1.0,45,0.00,,,0.00,VWS V14.01,2013-05-18 15:04:00,
2013-05-18 11:05:00,72.1,50.2,30.07,North,11,0.0,1.0,46,0.00,,,0.00,VWS V14.01,2013-05-18 15:05:00,
2013-05-18 11:06:00,72.2,50.3,30.07,North,11,0.0,1.0,46,0.00,,,0.00,VWS V14.01,2013-05-18 15:06:00,
2013-05-18 11:07:00,72.3,50.4,30.07,North,5,0.0,1.0,46,0.00,,,0.00,VWS V14.01,2013-05-18 15:07:00,
2013-05-18 11:08:00,72.4,49.9,30.07,NE,51,2.0,2.0,45,0.00,,,0.00,VWS V14.01,2013-05-18 15:08:00,
2013-05-18 11:09:00,72.6,50.7,30.07,NE,51,0.0,2.0,46,0.00,,,0.00,VWS V14.01,2013-05-18 15:09:00,
2013-05-18 11:10:00,72.7,50.8,30.07,ENE,57,0.0,2.0,46,0.00,,,0.00,VWS V14.01,2013-05-18 15:10:00,
2013-05-18 11:11:00,72.8,49.6,30.07,South,169,0.0,2.0,44,0.00,,,0.00,VWS V14.01,2013-05-18 15:11:00,
2013-05-18 11:12:00,72.8,50.2,30.07,South,169,3.0,3.0,45,0.00,,,0.00,VWS V14.01,2013-05-18 15:12:00,
2013-05-18 11:13:00,72.7,49.5,30.07,South,169,0.0,3.0,44,0.00,,,0.00,VWS V14.01,2013-05-18 15:13:00,
2013-05-18 11:14:00,72.7,49.5,30.07,South,169,1.0,3.0,44,0.00,,,0.00,VWS V14.01,2013-05-18 15:14:00,
2013-05-18 11:15:00,72.8,50.2,30.07,SSE,153,2.0,3.0,45,0.00,,,0.00,VWS V14.01,2013-05-18 15:15:00,
2013-05-18 11:16:00,72.8,49.6,30.07,ESE,104,2.0,3.0,44,0.00,,,0.00,VWS V14.01,2013-05-18 15:16:00,
2013-05-18 11:17:00,72.8,49.6,30.07,South,172,0.0,3.0,44,0.00,,,0.00,VWS V14.01,2013-05-18 15:17:00,
2013-05-18 11:18:00,72.8,49.6,30.07,South,172,0.0,3.0,44,0.00,,,0.00,VWS V14.01,2013-05-18 15:18:00,
2013-05-18 11:19:00,72.8,49.0,30.07,South,172,0.0,3.0,43,0.00,,,0.00,VWS V14.01,2013-05-18 15:19:00,
2013-05-18 11:20:00,72.8,49.6,30.07,South,172,0.0,3.0,44,0.00,,,0.00,VWS V14.01,2013-05-18 15:20:00,
2013-05-18 11:21:00,72.8,50.8,30.07,South,172,0.0,3.0,46,0.00,,,0.00,VWS V14.01,2013-05-18 15:21:00,
2013-05-18 11:22:00,72.9,49.7,30.07,SSE,154,0.0,3.0,44,0.00,,,0.00,VWS V14.01,2013-05-18 15:22:00,
2013-05-18 11:23:00,73.0,50.4,30.07,SSE,154,0.0,3.0,45,0.00,,,0.00,VWS V14.01,2013-05-18 15:23:00,
2013-05-18 11:24:00,73.0,50.4,30.07,SSE,154,1.0,3.0,45,0.00,,,0.00,VWS V14.01,2013-05-18 15:24:00,
2013-05-18 11:25:00,73.0,49.2,30.07,SSE,152,0.0,3.0,43,0.00,,,0.00,VWS V14.01,2013-05-18 15:25:00,
2013-05-18 11:26:00,73.1,49.9,30.07,SSE,167,0.0,3.0,44,0.00,,,0.00,VWS V14.01,2013-05-18 15:26:00,
2013-05-18 11:27:00,73.2,50.0,30.07,SSE,167,0.0,3.0,44,0.00,,,0.00,VWS V14.01,2013-05-18 15:27:00,
2013-05-18 11:28:00,73.3,49.5,30.07,SSE,167,1.0,3.0,43,0.00,,,0.00,VWS V14.01,2013-05-18 15:28:00,
2013-05-18 11:29:00,73.3,50.7,30.08,SSE,167,0.0,3.0,45,0.00,,,0.00,VWS V14.01,2013-05-18 15:29:00,
2013-05-18 11:30:00,73.4,50.2,30.08,SSE,167,0.0,3.0,44,0.00,,,0.00,VWS V14.01,2013-05-18 15:30:00,
2013-05-18 11:31:00,73.4,50.2,30.08,SSE,167,0.0,2.0,44,0.00,,,0.00,VWS V14.01,2013-05-18 15:31:00,
2013-05-18 11:32:00,73.4,49.6,30.07,SSE,167,0.0,2.0,43,0.00,,,0.00,VWS V14.01,2013-05-18 15:32:00,
2013-05-18 11:33:00,73.5,50.3,30.07,SSE,167,0.0,2.0,44,0.00,,,0.00,VWS V14.01,2013-05-18 15:33:00,
2013-05-18 11:34:00,73.5,49.7,30.07,South,173,0.0,2.0,43,0.00,,,0.00,VWS V14.01,2013-05-18 15:34:00,
2013-05-18 11:35:00,73.6,49.8,30.07,South,173,0.0,2.0,43,0.00,,,0.00,VWS V14.01,2013-05-18 15:35:00,
2013-05-18 11:36:00,73.7,50.5,30.07,South,173,0.0,2.0,44,0.00,,,0.00,VWS V14.01,2013-05-18 15:36:00,
2013-05-18 11:37:00,73.7,51.7,30.07,South,173,0.0,2.0,46,0.00,,,0.00,VWS V14.01,2013-05-18 15:37:00,
2013-05-18 11:38:00,73.8,50.5,30.07,South,173,0.0,2.0,44,0.00,,,0.00,VWS V14.01,2013-05-18 15:38:00,
2013-05-18 11:39:00,73.9,50.6,30.07,South,172,0.0,2.0,44,0.00,,,0.00,VWS V14.01,2013-05-18 15:39:00,
2013-05-18 11:40:00,74.0,51.3,30.07,South,173,0.0,2.0,45,0.00,,,0.00,VWS V14.01,2013-05-18 15:40:00,
2013-05-18 11:41:00,74.1,50.2,30.07,South,171,2.0,2.0,43,0.00,,,0.00,VWS V14.01,2013-05-18 15:41:00,
2013-05-18 11:42:00,74.1,49.6,30.07,South,171,0.0,2.0,42,0.00,,,0.00,VWS V14.01,2013-05-18 15:42:00,
2013-05-18 11:43:00,74.2,49.7,30.07,NW,317,0.0,3.0,42,0.00,,,0.00,VWS V14.01,2013-05-18 15:43:00,
2013-05-18 11:44:00,74.3,51.0,30.07,NE,53,0.0,3.0,44,0.00,,,0.00,VWS V14.01,2013-05-18 15:44:00,
2013-05-18 11:45:00,74.3,51.0,30.07,NE,51,0.0,3.0,44,0.00,,,0.00,VWS V14.01,2013-05-18 15:45:00,
2013-05-18 11:46:00,74.4,51.1,30.07,NE,52,0.0,3.0,44,0.00,,,0.00,VWS V14.01,2013-05-18 15:46:00,
2013-05-18 11:47:00,74.5,51.8,30.07,ENE,63,1.0,3.0,45,0.00,,,0.00,VWS V14.01,2013-05-18 15:47:00,
2013-05-18 11:48:00,74.5,49.9,30.07,ENE,66,0.0,3.0,42,0.00,,,0.00,VWS V14.01,2013-05-18 15:48:00,
2013-05-18 11:49:00,74.5,49.9,30.07,ENE,66,0.0,3.0,42,0.00,,,0.00,VWS V14.01,2013-05-18 15:49:00,
2013-05-18 11:50:00,74.6,50.7,30.07,ESE,121,1.0,3.0,43,0.00,,,0.00,VWS V14.01,2013-05-18 15:50:00,
2013-05-18 11:51:00,74.5,49.3,30.07,WSW,244,0.0,3.0,41,0.00,,,0.00,VWS V14.01,2013-05-18 15:51:00,
2013-05-18 11:52:00,74.5,49.9,30.07,ESE,120,0.0,3.0,42,0.00,,,0.00,VWS V14.01,2013-05-18 15:52:00,
2013-05-18 11:53:00,74.5,49.9,30.07,ESE,117,0.0,3.0,42,0.00,,,0.00,VWS V14.01,2013-05-18 15:53:00,
2013-05-18 11:54:00,74.5,50.6,30.07,SW,215,0.0,3.0,43,0.00,,,0.00,VWS V14.01,2013-05-18 15:54:00,
2013-05-18 11:55:00,74.6,51.3,30.07,SW,215,0.0,3.0,44,0.00,,,0.00,VWS V14.01,2013-05-18 15:55:00,
2013-05-18 11:56:00,74.6,50.0,30.07,SW,226,0.0,3.0,42,0.00,,,0.00,VWS V14.01,2013-05-18 15:56:00,
2013-05-18 11:57:00,74.6,50.0,30.07,SW,226,0.0,3.0,42,0.00,,,0.00,VWS V14.01,2013-05-18 15:57:00,
2013-05-18 11:58:00,74.7,50.7,30.07,SW,226,0.0,3.0,43,0.00,,,0.00,VWS V14.01,2013-05-18 15:58:00,
2013-05-18 11:59:00,74.7,50.7,30.07,SW,226,0.0,3.0,43,0.00,,,0.00,VWS V14.01,2013-05-18 15:59:00,
2013-05-18 12:00:00,74.8,50.8,30.07,SW,226,0.0,3.0,43,0.00,,,0.00,VWS V14.01,2013-05-18 16:00:00,
2013-05-18 12:01:00,74.9,51.5,30.06,SW,226,1.0,1.0,44,0.00,,,0.00,VWS V14.01,2013-05-18 16:01:00,
2013-05-18 12:02:00,74.9,50.3,30.06,North,355,1.0,2.0,42,0.00,,,0.00,VWS V14.01,2013-05-18 16:02:00,
2013-05-18 12:03:00,75.0,51.0,30.07,ENE,65,0.0,2.0,43,0.00,,,0.00,VWS V14.01,2013-05-18 16:03:00,
2013-05-18 12:04:00,75.1,50.5,30.07,North,355,1.0,2.0,42,0.00,,,0.00,VWS V14.01,2013-05-18 16:04:00,
2013-05-18 12:05:00,75.0,50.4,30.06,North,350,0.0,2.0,42,0.00,,,0.00,VWS V14.01,2013-05-18 16:05:00,
2013-05-18 12:06:00,75.0,50.4,30.06,South,178,1.0,2.0,42,0.00,,,0.00,VWS V14.01,2013-05-18 16:06:00,
2013-05-18 12:07:00,75.0,50.4,30.06,SSE,165,2.0,2.0,42,0.00,,,0.00,VWS V14.01,2013-05-18 16:07:00,
2013-05-18 12:08:00,75.0,49.7,30.06,SSE,165,1.0,2.0,41,0.00,,,0.00,VWS V14.01,2013-05-18 16:08:00,
2013-05-18 12:09:00,75.0,50.4,30.06,SSE,165,0.0,2.0,42,0.00,,,0.00,VWS V14.01,2013-05-18 16:09:00,
2013-05-18 12:10:00,75.0,49.7,30.06,SSE,165,0.0,2.0,41,0.00,,,0.00,VWS V14.01,2013-05-18 16:10:00,
2013-05-18 12:11:00,74.9,50.3,30.06,SSE,165,2.0,2.0,42,0.00,,,0.00,VWS V14.01,2013-05-18 16:11:00,
2013-05-18 12:12:00,74.9,50.3,30.06,SSE,166,1.0,2.0,42,0.00,,,0.00,VWS V14.01,2013-05-18 16:12:00,
2013-05-18 12:13:00,74.9,49.6,30.06,SSE,166,0.0,2.0,41,0.00,,,0.00,VWS V14.01,2013-05-18 16:13:00,
2013-05-18 12:14:00,74.9,50.9,30.06,ESE,107,0.0,3.0,43,0.00,,,0.00,VWS V14.01,2013-05-18 16:14:00,
2013-05-18 12:15:00,74.9,50.3,30.06,ESE,107,0.0,3.0,42,0.00,,,0.00,VWS V14.01,2013-05-18 16:15:00,
2013-05-18 12:16:00,74.9,50.9,30.06,ESE,103,0.0,3.0,43,0.00,,,0.00,VWS V14.01,2013-05-18 16:16:00,
2013-05-18 12:17:00,74.9,50.9,30.06,ESE,105,0.0,3.0,43,0.00,,,0.00,VWS V14.01,2013-05-18 16:17:00,
2013-05-18 12:18:00,75.0,51.6,30.06,ESE,105,0.0,3.0,44,0.00,,,0.00,VWS V14.01,2013-05-18 16:18:00,
2013-05-18 12:19:00,75.1,51.1,30.06,ESE,107,0.0,3.0,43,0.00,,,0.00,VWS V14.01,2013-05-18 16:19:00,
2013-05-18 12:20:00,75.2,50.6,30.06,ESE,106,1.0,3.0,42,0.00,,,0.00,VWS V14.01,2013-05-18 16:20:00,
2013-05-18 12:21:00,75.3,50.0,30.06,NE,34,0.0,3.0,41,0.00,,,0.00,VWS V14.01,2013-05-18 16:21:00,
2013-05-18 12:22:00,75.3,50.0,30.06,SSE,163,3.0,3.0,41,0.00,,,0.00,VWS V14.01,2013-05-18 16:22:00,
2013-05-18 12:23:00,75.4,50.1,30.06,SSE,168,0.0,3.0,41,0.00,,,0.00,VWS V14.01,2013-05-18 16:23:00,
2013-05-18 12:24:00,75.4,51.4,30.06,SSE,168,0.0,3.0,43,0.00,,,0.00,VWS V14.01,2013-05-18 16:24:00,
2013-05-18 12:25:00,75.4,51.4,30.06,SSE,148,0.0,3.0,43,0.00,,,0.00,VWS V14.01,2013-05-18 16:25:00,
2013-05-18 12:26:00,75.5,51.5,30.06,SSE,148,0.0,3.0,43,0.00,,,0.00,VWS V14.01,2013-05-18 16:26:00,
2013-05-18 12:27:00,75.6,52.2,30.06,SSE,148,1.0,3.0,44,0.00,,,0.00,VWS V14.01,2013-05-18 16:27:00,
2013-05-18 12:28:00,75.7,52.3,30.06,SE,128,0.0,4.0,44,0.00,,,0.00,VWS V14.01,2013-05-18 16:28:00,
2013-05-18 12:29:00,75.7,50.4,30.06,ESE,106,0.0,4.0,41,0.00,,,0.00,VWS V14.01,2013-05-18 16:29:00,
2013-05-18 12:30:00,75.7,50.4,30.06,ESE,115,0.0,4.0,41,0.00,,,0.00,VWS V14.01,2013-05-18 16:30:00,
2013-05-18 12:31:00,75.7,51.0,30.06,South,186,2.0,2.0,42,0.00,,,0.00,VWS V14.01,2013-05-18 16:31:00,
2013-05-18 12:32:00,75.6,50.9,30.06,South,186,0.0,2.0,42,0.00,,,0.00,VWS V14.01,2013-05-18 16:32:00,
2013-05-18 12:33:00,75.6,50.9,30.06,South,186,0.0,2.0,42,0.00,,,0.00,VWS V14.01,2013-05-18 16:33:00,
2013-05-18 12:34:00,75.6,50.9,30.06,South,189,0.0,2.0,42,0.00,,,0.00,VWS V14.01,2013-05-18 16:34:00,
2013-05-18 12:35:00,75.6,50.9,30.06,South,184,0.0,2.0,42,0.00,,,0.00,VWS V14.01,2013-05-18 16:35:00,
2013-05-18 12:36:00,75.6,52.2,30.05,South,184,0.0,2.0,44,0.00,,,0.00,VWS V14.01,2013-05-18 16:36:00,
2013-05-18 12:37:00,75.7,51.6,30.05,South,183,0.0,2.0,43,0.00,,,0.00,VWS V14.01,2013-05-18 16:37:00,
2013-05-18 12:38:00,75.8,52.4,30.05,ESE,123,2.0,3.0,44,0.00,,,0.00,VWS V14.01,2013-05-18 16:38:00,
2013-05-18 12:39:00,75.9,51.8,30.05,SE,130,2.0,4.0,43,0.00,,,0.00,VWS V14.01,2013-05-18 16:39:00,
2013-05-18 12:40:00,76.0,51.3,30.05,SE,130,0.0,4.0,42,0.00,,,0.00,VWS V14.01,2013-05-18 16:40:00,
2013-05-18 12:41:00,76.1,52.0,30.05,SE,130,1.0,4.0,43,0.00,,,0.00,VWS V14.01,2013-05-18 16:41:00,
2013-05-18 12:42:00,76.2,51.5,30.05,SE,136,1.0,4.0,42,0.00,,,0.00,VWS V14.01,2013-05-18 16:42:00,
2013-05-18 12:43:00,76.2,50.8,30.05,SE,146,0.0,4.0,41,0.00,,,0.00,VWS V14.01,2013-05-18 16:43:00,
2013-05-18 12:44:00,76.2,50.1,30.05,SE,146,0.0,4.0,40,0.00,,,0.00,VWS V14.01,2013-05-18 16:44:00,
2013-05-18 12:45:00,76.2,51.5,30.05,SE,145,0.0,4.0,42,0.00,,,0.00,VWS V14.01,2013-05-18 16:45:00,
2013-05-18 12:46:00,76.1,50.7,30.05,SE,146,0.0,4.0,41,0.00,,,0.00,VWS V14.01,2013-05-18 16:46:00,
2013-05-18 12:47:00,76.1,50.7,30.05,SE,146,0.0,4.0,41,0.00,,,0.00,VWS V14.01,2013-05-18 16:47:00,
2013-05-18 12:48:00,76.1,50.7,30.05,SE,146,0.0,4.0,41,0.00,,,0.00,VWS V14.01,2013-05-18 16:48:00,
2013-05-18 12:49:00,76.2,52.1,30.05,SE,141,1.0,4.0,43,0.00,,,0.00,VWS V14.01,2013-05-18 16:49:00,
2013-05-18 12:50:00,76.2,50.8,30.05,ESE,113,2.0,4.0,41,0.00,,,0.00,VWS V14.01,2013-05-18 16:50:00,
2013-05-18 12:51:00,76.2,50.8,30.05,SE,133,1.0,4.0,41,0.00,,,0.00,VWS V14.01,2013-05-18 16:51:00,
2013-05-18 12:52:00,76.2,50.8,30.05,NNE,14,0.0,4.0,41,0.00,,,0.00,VWS V14.01,2013-05-18 16:52:00,
2013-05-18 12:53:00,76.3,51.5,30.05,East,98,0.0,4.0,42,0.00,,,0.00,VWS V14.01,2013-05-18 16:53:00,
2013-05-18 12:54:00,76.3,50.9,30.05,East,98,0.0,4.0,41,0.00,,,0.00,VWS V14.01,2013-05-18 16:54:00,
2013-05-18 12:55:00,76.4,51.6,30.05,East,98,0.0,4.0,42,0.00,,,0.00,VWS V14.01,2013-05-18 16:55:00,
2013-05-18 12:56:00,76.4,51.0,30.05,East,98,0.0,4.0,41,0.00,,,0.00,VWS V14.01,2013-05-18 16:56:00,
2013-05-18 12:57:00,76.5,51.7,30.05,East,98,0.0,4.0,42,0.00,,,0.00,VWS V14.01,2013-05-18 16:57:00,
2013-05-18 12:58:00,76.6,52.5,30.05,East,87,0.0,4.0,43,0.00,,,0.00,VWS V14.01,2013-05-18 16:58:00,
2013-05-18 12:59:00,76.6,51.8,30.05,East,88,2.0,4.0,42,0.00,,,0.00,VWS V14.01,2013-05-18 16:59:00,
2013-05-18 13:00:00,76.7,50.6,30.05,South,173,0.0,4.0,40,0.00,,,0.00,VWS V14.01,2013-05-18 17:00:00,
2013-05-18 13:01:00,76.6,51.2,30.05,WNW,283,1.0,3.0,41,0.00,,,0.00,VWS V14.01,2013-05-18 17:01:00,
2013-05-18 13:02:00,76.6,51.2,30.05,West,281,1.0,3.0,41,0.00,,,0.00,VWS V14.01,2013-05-18 17:02:00,
2013-05-18 13:03:00,76.5,50.4,30.05,WNW,282,0.0,3.0,40,0.00,,,0.00,VWS V14.01,2013-05-18 17:03:00,
2013-05-18 13:04:00,76.5,51.1,30.05,SSW,200,1.0,3.0,41,0.00,,,0.00,VWS V14.01,2013-05-18 17:04:00,
2013-05-18 13:05:00,76.5,51.7,30.05,SE,140,2.0,4.0,42,0.00,,,0.00,VWS V14.01,2013-05-18 17:05:00,
2013-05-18 13:06:00,76.4,51.0,30.04,SSE,150,1.0,4.0,41,0.00,,,0.00,VWS V14.01,2013-05-18 17:06:00,
2013-05-18 13:07:00,76.3,50.9,30.04,SSE,150,0.0,4.0,41,0.00,,,0.00,VWS V14.01,2013-05-18 17:07:00,
2013-05-18 13:08:00,76.3,50.9,30.04,SSE,149,0.0,4.0,41,0.00,,,0.00,VWS V14.01,2013-05-18 17:08:00,
2013-05-18 13:09:00,76.2,51.5,30.04,West,269,0.0,4.0,42,0.00,,,0.00,VWS V14.01,2013-05-18 17:09:00,
2013-05-18 13:10:00,76.3,51.5,30.04,West,270,0.0,4.0,42,0.00,,,0.00,VWS V14.01,2013-05-18 17:10:00,
2013-05-18 13:11:00,76.3,51.5,30.04,West,260,1.0,4.0,42,0.00,,,0.00,VWS V14.01,2013-05-18 17:11:00,
2013-05-18 13:12:00,76.4,52.3,30.04,SSE,160,0.0,4.0,43,0.00,,,0.00,VWS V14.01,2013-05-18 17:12:00,
2013-05-18 13:13:00,76.5,52.4,30.04,SE,128,3.0,4.0,43,0.00,,,0.00,VWS V14.01,2013-05-18 17:13:00,
2013-05-18 13:14:00,76.6,51.2,30.04,SE,128,1.0,4.0,41,0.00,,,0.00,VWS V14.01,2013-05-18 17:14:00,
2013-05-18 13:15:00,76.6,51.8,30.04,SE,130,1.0,4.0,42,0.00,,,0.00,VWS V14.01,2013-05-18 17:15:00,
2013-05-18 13:16:00,76.7,52.5,30.04,SE,130,0.0,4.0,43,0.00,,,0.00,VWS V14.01,2013-05-18 17:16:00,
2013-05-18 13:17:00,76.8,51.3,30.04,SE,139,2.0,4.0,41,0.00,,,0.00,VWS V14.01,2013-05-18 17:17:00,
2013-05-18 13:18:00,76.9,50.8,30.04,SSE,153,1.0,4.0,40,0.00,,,0.00,VWS V14.01,2013-05-18 17:18:00,
2013-05-18 13:19:00,76.9,50.8,30.04,SE,146,2.0,4.0,40,0.00,,,0.00,VWS V14.01,2013-05-18 17:19:00,
2013-05-18 13:20:00,77.0,52.8,30.04,ESE,123,1.0,4.0,43,0.00,,,0.00,VWS V14.01,2013-05-18 17:20:00,
2013-05-18 13:21:00,77.0,52.2,30.04,ESE,121,1.0,4.0,42,0.00,,,0.00,VWS V14.01,2013-05-18 17:21:00,
2013-05-18 13:22:00,77.2,53.0,30.04,ESE,122,0.0,4.0,43,0.00,,,0.00,VWS V14.01,2013-05-18 17:22:00,
2013-05-18 13:23:00,77.2,51.7,30.04,ESE,122,0.0,4.0,41,0.00,,,0.00,VWS V14.01,2013-05-18 17:23:00,
2013-05-18 13:24:00,77.3,51.8,30.03,ESE,123,0.0,4.0,41,0.00,,,0.00,VWS V14.01,2013-05-18 17:24:00,
2013-05-18 13:25:00,77.3,51.8,30.03,ESE,123,0.0,4.0,41,0.00,,,0.00,VWS V14.01,2013-05-18 17:25:00,
2013-05-18 13:26:00,77.3,52.5,30.04,ESE,123,0.0,4.0,42,0.00,,,0.00,VWS V14.01,2013-05-18 17:26:00,
2013-05-18 13:27:00,77.4,52.5,30.03,ESE,123,0.0,4.0,42,0.00,,,0.00,VWS V14.01,2013-05-18 17:27:00,
2013-05-18 13:28:00,77.3,51.1,30.04,SE,128,1.0,4.0,40,0.00,,,0.00,VWS V14.01,2013-05-18 17:28:00,
2013-05-18 13:29:00,77.3,51.1,30.03,SE,128,0.0,4.0,40,0.00,,,0.00,VWS V14.01,2013-05-18 17:29:00,
2013-05-18 13:30:00,77.2,51.0,30.03,SE,128,0.0,4.0,40,0.00,,,0.00,VWS V14.01,2013-05-18 17:30:00,
2013-05-18 13:31:00,77.3,51.8,30.03,SE,128,0.0,1.0,41,0.00,,,0.00,VWS V14.01,2013-05-18 17:31:00,
2013-05-18 13:32:00,77.3,52.5,30.03,SE,129,1.0,1.0,42,0.00,,,0.00,VWS V14.01,2013-05-18 17:32:00,
2013-05-18 13:33:00,77.3,51.1,30.03,SE,129,0.0,1.0,40,0.00,,,0.00,VWS V14.01,2013-05-18 17:33:00,
2013-05-18 13:34:00,77.2,51.7,30.03,SE,129,0.0,1.0,41,0.00,,,0.00,VWS V14.01,2013-05-18 17:34:00,
2013-05-18 13:35:00,77.2,51.7,30.03,SSE,168,0.0,2.0,41,0.00,,,0.00,VWS V14.01,2013-05-18 17:35:00,
2013-05-18 13:36:00,77.1,51.6,30.03,SSE,168,0.0,2.0,41,0.00,,,0.00,VWS V14.01,2013-05-18 17:36:00,
2013-05-18 13:37:00,77.1,51.6,30.03,South,169,0.0,2.0,41,0.00,,,0.00,VWS V14.01,2013-05-18 17:37:00,
2013-05-18 13:38:00,77.1,50.9,30.03,South,169,0.0,2.0,40,0.00,,,0.00,VWS V14.01,2013-05-18 17:38:00,
2013-05-18 13:39:00,77.1,51.6,30.03,South,169,0.0,2.0,41,0.00,,,0.00,VWS V14.01,2013-05-18 17:39:00,
2013-05-18 13:40:00,77.1,52.3,30.03,SSE,168,1.0,2.0,42,0.00,,,0.00,VWS V14.01,2013-05-18 17:40:00,
2013-05-18 13:41:00,77.1,52.3,30.03,SSE,168,1.0,2.0,42,0.00,,,0.00,VWS V14.01,2013-05-18 17:41:00,
2013-05-18 13:42:00,77.2,51.7,30.03,SSE,167,0.0,3.0,41,0.00,,,0.00,VWS V14.01,2013-05-18 17:42:00,
2013-05-18 13:43:00,77.2,51.7,30.03,SSE,154,4.0,4.0,41,0.00,,,0.00,VWS V14.01,2013-05-18 17:43:00,
2013-05-18 13:44:00,77.3,51.8,30.03,SSE,151,2.0,4.0,41,0.00,,,0.00,VWS V14.01,2013-05-18 17:44:00,
2013-05-18 13:45:00,77.3,51.8,30.03,SSE,163,0.0,4.0,41,0.00,,,0.00,VWS V14.01,2013-05-18 17:45:00,
2013-05-18 13:46:00,77.3,51.8,30.03,SSE,158,0.0,4.0,41,0.00,,,0.00,VWS V14.01,2013-05-18 17:46:00,
2013-05-18 13:47:00,77.3,51.8,30.03,NNE,26,1.0,4.0,41,0.00,,,0.00,VWS V14.01,2013-05-18 17:47:00,
2013-05-18 13:48:00,77.3,51.8,30.03,East,99,0.0,4.0,41,0.00,,,0.00,VWS V14.01,2013-05-18 17:48:00,
2013-05-18 13:49:00,77.3,51.8,30.03,East,99,0.0,4.0,41,0.00,,,0.00,VWS V14.01,2013-05-18 17:49:00,
2013-05-18 13:50:00,77.3,51.8,30.03,East,99,0.0,4.0,41,0.00,,,0.00,VWS V14.01,2013-05-18 17:50:00,
2013-05-18 13:51:00,77.3,51.8,30.03,ESE,114,3.0,4.0,41,0.00,,,0.00,VWS V14.01,2013-05-18 17:51:00,
2013-05-18 13:52:00,77.4,53.2,30.03,ESE,115,1.0,4.0,43,0.00,,,0.00,VWS V14.01,2013-05-18 17:52:00,
2013-05-18 13:53:00,77.4,53.2,30.03,ESE,117,1.0,4.0,43,0.00,,,0.00,VWS V14.01,2013-05-18 17:53:00,
2013-05-18 13:54:00,77.4,51.9,30.03,SE,131,0.0,4.0,41,0.00,,,0.00,VWS V14.01,2013-05-18 17:54:00,
2013-05-18 13:55:00,77.5,53.3,30.03,SE,131,0.0,4.0,43,0.00,,,0.00,VWS V14.01,2013-05-18 17:55:00,
2013-05-18 13:56:00,77.5,52.0,30.03,SE,130,1.0,4.0,41,0.00,,,0.00,VWS V14.01,2013-05-18 17:56:00,
2013-05-18 13:57:00,77.6,52.1,30.03,SE,130,0.0,4.0,41,0.00,,,0.00,VWS V14.01,2013-05-18 17:57:00,
2013-05-18 13:58:00,77.6,52.1,30.03,East,99,0.0,4.0,41,0.00,,,0.00,VWS V14.01,2013-05-18 17:58:00,
2013-05-18 13:59:00,77.7,52.8,30.03,East,99,1.0,4.0,42,0.00,,,0.00,VWS V14.01,2013-05-18 17:59:00,
2013-05-18 14:00:00,77.7,52.2,30.03,East,99,0.0,4.0,41,0.00,,,0.00,VWS V14.01,2013-05-18 18:00:00,
2013-05-18 14:01:00,77.7,52.8,30.03,East,99,3.0,3.0,42,0.00,,,0.00,VWS V14.01,2013-05-18 18:01:00,
2013-05-18 14:02:00,77.6,52.7,30.03,SSW,196,0.0,3.0,42,0.00,,,0.00,VWS V14.01,2013-05-18 18:02:00,
2013-05-18 14:03:00,77.5,52.6,30.03,SSW,195,0.0,3.0,42,0.00,,,0.00,VWS V14.01,2013-05-18 18:03:00,
2013-05-18 14:04:00,77.5,52.0,30.03,NNE,32,1.0,3.0,41,0.00,,,0.00,VWS V14.01,2013-05-18 18:04:00,
2013-05-18 14:05:00,77.5,52.6,30.03,North,360,0.0,3.0,42,0.00,,,0.00,VWS V14.01,2013-05-18 18:05:00,
2013-05-18 14:06:00,77.5,52.6,30.03,North,360,0.0,3.0,42,0.00,,,0.00,VWS V14.01,2013-05-18 18:06:00,
2013-05-18 14:07:00,77.5,54.5,30.03,North,5,2.0,3.0,45,0.00,,,0.00,VWS V14.01,2013-05-18 18:07:00,
2013-05-18 14:08:00,77.5,52.6,30.03,North,360,1.0,3.0,42,0.00,,,0.00,VWS V14.01,2013-05-18 18:08:00,
2013-05-18 14:09:00,77.5,52.6,30.03,North,5,0.0,3.0,42,0.00,,,0.00,VWS V14.01,2013-05-18 18:09:00,
2013-05-18 14:10:00,77.6,52.7,30.02,NNE,14,0.0,3.0,42,0.00,,,0.00,VWS V14.01,2013-05-18 18:10:00,
2013-05-18 14:11:00,77.6,53.4,30.02,NNE,14,0.0,3.0,43,0.00,,,0.00,VWS V14.01,2013-05-18 18:11:00,
2013-05-18 14:12:00,77.6,53.4,30.02,SSE,153,3.0,3.0,43,0.00,,,0.00,VWS V14.01,2013-05-18 18:12:00,
2013-05-18 14:13:00,77.6,53.4,30.02,SSE,158,1.0,3.0,43,0.00,,,0.00,VWS V14.01,2013-05-18 18:13:00,
2013-05-18 14:14:00,77.6,52.7,30.02,SSE,157,1.0,3.0,42,0.00,,,0.00,VWS V14.01,2013-05-18 18:14:00,
2013-05-18 14:15:00,77.6,52.7,30.02,SSE,158,0.0,3.0,42,0.00,,,0.00,VWS V14.01,2013-05-18 18:15:00,
2013-05-18 14:16:00,77.6,52.7,30.02,SSE,158,0.0,3.0,42,0.00,,,0.00,VWS V14.01,2013-05-18 18:16:00,
2013-05-18 14:17:00,77.6,53.4,30.02,SSE,163,0.0,3.0,43,0.00,,,0.00,VWS V14.01,2013-05-18 18:17:00,
2013-05-18 14:18:00,77.6,52.7,30.02,South,171,2.0,3.0,42,0.00,,,0.00,VWS V14.01,2013-05-18 18:18:00,
2013-05-18 14:19:00,77.7,52.8,30.02,SSE,159,0.0,3.0,42,0.00,,,0.00,VWS V14.01,2013-05-18 18:19:00,
2013-05-18 14:20:00,77.8,53.5,30.02,SSE,159,0.0,3.0,43,0.00,,,0.00,VWS V14.01,2013-05-18 18:20:00,
2013-05-18 14:21:00,77.9,54.3,30.03,ENE,61,0.0,3.0,44,0.00,,,0.00,VWS V14.01,2013-05-18 18:21:00,
2013-05-18 14:22:00,77.9,53.6,30.03,ENE,67,0.0,3.0,43,0.00,,,0.00,VWS V14.01,2013-05-18 18:22:00,
2013-05-18 14:23:00,77.9,53.0,30.02,ESE,117,0.0,3.0,42,0.00,,,0.00,VWS V14.01,2013-05-18 18:23:00,
2013-05-18 14:24:00,77.9,53.6,30.02,ESE,117,0.0,3.0,43,0.00,,,0.00,VWS V14.01,2013-05-18 18:24:00,
2013-05-18 14:25:00,78.0,54.3,30.02,ESE,117,0.0,3.0,44,0.00,,,0.00,VWS V14.01,2013-05-18 18:25:00,
2013-05-18 14:26:00,78.0,54.3,30.02,ESE,117,0.0,3.0,44,0.00,,,0.00,VWS V14.01,2013-05-18 18:26:00,
2013-05-18 14:27:00,78.0,54.3,30.02,NNW,338,0.0,3.0,44,0.00,,,0.00,VWS V14.01,2013-05-18 18:27:00,
2013-05-18 14:28:00,78.1,53.8,30.02,NNW,336,0.0,3.0,43,0.00,,,0.00,VWS V14.01,2013-05-18 18:28:00,
2013-05-18 14:29:00,78.1,53.8,30.02,NNE,30,1.0,3.0,43,0.00,,,0.00,VWS V14.01,2013-05-18 18:29:00,
2013-05-18 14:30:00,78.2,53.9,30.02,ESE,116,1.0,3.0,43,0.00,,,0.00,VWS V14.01,2013-05-18 18:30:00,
2013-05-18 14:31:00,78.2,53.2,30.02,ESE,116,2.0,3.0,42,0.00,,,0.00,VWS V14.01,2013-05-18 18:31:00,
2013-05-18 14:32:00,78.2,53.9,30.02,ESE,116,0.0,3.0,43,0.00,,,0.00,VWS V14.01,2013-05-18 18:32:00,
2013-05-18 14:33:00,78.2,53.9,30.02,ESE,116,0.0,3.0,43,0.00,,,0.00,VWS V14.01,2013-05-18 18:33:00,
2013-05-18 14:34:00,78.2,53.9,30.02,ESE,121,1.0,3.0,43,0.00,,,0.00,VWS V14.01,2013-05-18 18:34:00,
2013-05-18 14:35:00,78.1,53.8,30.02,ESE,121,0.0,3.0,43,0.00,,,0.00,VWS V14.01,2013-05-18 18:35:00,
2013-05-18 14:36:00,78.1,53.2,30.02,ESE,123,0.0,3.0,42,0.00,,,0.00,VWS V14.01,2013-05-18 18:36:00,
2013-05-18 14:37:00,78.2,53.9,30.02,ESE,123,0.0,3.0,43,0.00,,,0.00,VWS V14.01,2013-05-18 18:37:00,
2013-05-18 14:38:00,78.2,53.9,30.02,SE,131,1.0,3.0,43,0.00,,,0.00,VWS V14.01,2013-05-18 18:38:00,
2013-05-18 14:39:00,78.2,53.2,30.01,South,176,1.0,3.0,42,0.00,,,0.00,VWS V14.01,2013-05-18 18:39:00,
2013-05-18 14:40:00,78.2,53.2,30.02,South,177,1.0,3.0,42,0.00,,,0.00,VWS V14.01,2013-05-18 18:40:00,
2013-05-18 14:41:00,78.2,53.9,30.01,North,5,3.0,5.0,43,0.00,,,0.00,VWS V14.01,2013-05-18 18:41:00,
2013-05-18 14:42:00,78.2,53.9,30.01,North,5,0.0,5.0,43,0.00,,,0.00,VWS V14.01,2013-05-18 18:42:00,
2013-05-18 14:43:00,78.2,54.5,30.01,NNE,20,1.0,5.0,44,0.00,,,0.00,VWS V14.01,2013-05-18 18:43:00,
2013-05-18 14:44:00,78.2,53.9,30.01,NNE,22,0.0,5.0,43,0.00,,,0.00,VWS V14.01,2013-05-18 18:44:00,
2013-05-18 14:45:00,78.2,53.9,30.01,North,360,0.0,5.0,43,0.00,,,0.00,VWS V14.01,2013-05-18 18:45:00,
2013-05-18 14:46:00,78.2,53.9,30.01,North,5,1.0,5.0,43,0.00,,,0.00,VWS V14.01,2013-05-18 18:46:00,
2013-05-18 14:47:00,78.3,54.6,30.01,South,188,2.0,5.0,44,0.00,,,0.00,VWS V14.01,2013-05-18 18:47:00,
2013-05-18 14:48:00,78.3,54.0,30.01,South,186,0.0,5.0,43,0.00,,,0.00,VWS V14.01,2013-05-18 18:48:00,
2013-05-18 14:49:00,78.4,54.7,30.01,WNW,290,2.0,5.0,44,0.00,,,0.00,VWS V14.01,2013-05-18 18:49:00,
2013-05-18 14:50:00,78.4,53.4,30.01,South,174,1.0,5.0,42,0.00,,,0.00,VWS V14.01,2013-05-18 18:50:00,
2013-05-18 14:51:00,78.5,54.2,30.01,North,350,0.0,5.0,43,0.00,,,0.00,VWS V14.01,2013-05-18 18:51:00,
2013-05-18 14:52:00,78.5,54.2,30.01,NNW,347,0.0,5.0,43,0.00,,,0.00,VWS V14.01,2013-05-18 18:52:00,
2013-05-18 14:53:00,78.5,54.8,30.01,WNW,294,4.0,6.0,44,0.00,,,0.00,VWS V14.01,2013-05-18 18:53:00,
2013-05-18 14:54:00,78.6,54.9,30.01,SE,136,2.0,6.0,44,0.00,,,0.00,VWS V14.01,2013-05-18 18:54:00,
2013-05-18 14:55:00,78.7,54.3,30.01,SE,142,1.0,6.0,43,0.00,,,0.00,VWS V14.01,2013-05-18 18:55:00,
2013-05-18 14:56:00,78.7,53.7,30.01,SE,142,1.0,6.0,42,0.00,,,0.00,VWS V14.01,2013-05-18 18:56:00,
2013-05-18 14:57:00,78.7,55.0,30.01,SE,138,3.0,6.0,44,0.00,,,0.00,VWS V14.01,2013-05-18 18:57:00,
2013-05-18 14:58:00,78.7,53.7,30.01,SSW,210,1.0,6.0,42,0.00,,,0.00,VWS V14.01,2013-05-18 18:58:00,
2013-05-18 14:59:00,78.7,54.3,30.01,SSE,161,1.0,6.0,43,0.00,,,0.00,VWS V14.01,2013-05-18 18:59:00,
2013-05-18 15:00:00,78.7,54.3,30.01,SSE,161,0.0,6.0,43,0.00,,,0.00,VWS V14.01,2013-05-18 19:00:00,
2013-05-18 15:01:00,78.7,54.3,30.01,SSE,161,2.0,2.0,43,0.00,,,0.00,VWS V14.01,2013-05-18 19:01:00,
2013-05-18 15:02:00,78.7,54.3,30.01,SSE,166,0.0,3.0,43,0.00,,,0.00,VWS V14.01,2013-05-18 19:02:00,
2013-05-18 15:03:00,78.5,53.5,30.01,SSE,167,0.0,3.0,42,0.00,,,0.00,VWS V14.01,2013-05-18 19:03:00,
2013-05-18 15:04:00,78.5,54.2,30.01,SSE,167,1.0,3.0,43,0.00,,,0.00,VWS V14.01,2013-05-18 19:04:00,
2013-05-18 15:05:00,78.4,54.1,30.01,SSE,166,1.0,3.0,43,0.00,,,0.00,VWS V14.01,2013-05-18 19:05:00,
2013-05-18 15:06:00,78.4,54.7,30.01,WNW,300,3.0,4.0,44,0.00,,,0.00,VWS V14.01,2013-05-18 19:06:00,
2013-05-18 15:07:00,78.4,54.1,30.01,South,173,4.0,4.0,43,0.00,,,0.00,VWS V14.01,2013-05-18 19:07:00,
2013-05-18 15:08:00,78.3,53.3,30.01,South,173,0.0,4.0,42,0.00,,,0.00,VWS V14.01,2013-05-18 19:08:00,
2013-05-18 15:09:00,78.3,53.3,30.01,South,171,0.0,4.0,42,0.00,,,0.00,VWS V14.01,2013-05-18 19:09:00,
2013-05-18 15:10:00,78.2,53.9,30.01,South,171,0.0,4.0,43,0.00,,,0.00,VWS V14.01,2013-05-18 19:10:00,
2013-05-18 15:11:00,78.2,54.5,30.01,South,170,0.0,4.0,44,0.00,,,0.00,VWS V14.01,2013-05-18 19:11:00,
2013-05-18 15:12:00,78.2,53.9,30.01,South,170,0.0,4.0,43,0.00,,,0.00,VWS V14.01,2013-05-18 19:12:00,
2013-05-18 15:13:00,78.2,54.5,30.01,South,170,0.0,4.0,44,0.00,,,0.00,VWS V14.01,2013-05-18 19:13:00,
2013-05-18 15:14:00,78.3,54.6,30.01,South,169,0.0,4.0,44,0.00,,,0.00,VWS V14.01,2013-05-18 19:14:00,
2013-05-18 15:15:00,78.3,54.6,30.01,South,169,1.0,4.0,44,0.00,,,0.00,VWS V14.01,2013-05-18 19:15:00,
2013-05-18 15:16:00,78.3,54.6,30.01,South,169,0.0,4.0,44,0.00,,,0.00,VWS V14.01,2013-05-18 19:16:00,
2013-05-18 15:17:00,78.3,54.0,30.01,South,170,0.0,4.0,43,0.00,,,0.00,VWS V14.01,2013-05-18 19:17:00,
2013-05-18 15:18:00,78.4,55.3,30.01,South,169,0.0,4.0,45,0.00,,,0.00,VWS V14.01,2013-05-18 19:18:00,
2013-05-18 15:19:00,78.5,54.8,30.01,South,170,1.0,4.0,44,0.00,,,0.00,VWS V14.01,2013-05-18 19:19:00,
2013-05-18 15:20:00,78.6,54.9,30.00,South,170,0.0,4.0,44,0.00,,,0.00,VWS V14.01,2013-05-18 19:20:00,
2013-05-18 15:21:00,78.6,54.9,30.00,South,170,0.0,4.0,44,0.00,,,0.00,VWS V14.01,2013-05-18 19:21:00,
2013-05-18 15:22:00,78.7,55.0,30.00,South,170,1.0,4.0,44,0.00,,,0.00,VWS V14.01,2013-05-18 19:22:00,
2013-05-18 15:23:00,78.7,55.0,30.00,South,170,0.0,4.0,44,0.00,,,0.00,VWS V14.01,2013-05-18 19:23:00,
2013-05-18 15:24:00,78.7,55.0,30.00,East,83,0.0,4.0,44,0.00,,,0.00,VWS V14.01,2013-05-18 19:24:00,
2013-05-18 15:25:00,78.7,55.0,30.00,East,83,0.0,4.0,44,0.00,,,0.00,VWS V14.01,2013-05-18 19:25:00,
2013-05-18 15:26:00,78.8,55.7,30.00,East,85,2.0,4.0,45,0.00,,,0.00,VWS V14.01,2013-05-18 19:26:00,
2013-05-18 15:27:00,79.0,55.2,30.00,East,96,1.0,4.0,44,0.00,,,0.00,VWS V14.01,2013-05-18 19:27:00,
2013-05-18 15:28:00,79.1,54.1,30.00,East,87,2.0,4.0,42,0.00,,,0.00,VWS V14.01,2013-05-18 19:28:00,
2013-05-18 15:29:00,79.1,53.4,30.00,ESE,117,0.0,4.0,41,0.00,,,0.00,VWS V14.01,2013-05-18 19:29:00,
2013-05-18 15:30:00,79.1,54.1,30.00,ESE,117,0.0,4.0,42,0.00,,,0.00,VWS V14.01,2013-05-18 19:30:00,
2013-05-18 15:31:00,79.1,54.7,30.00,ESE,117,0.0,0.0,43,0.00,,,0.00,VWS V14.01,2013-05-18 19:31:00,
2013-05-18 15:32:00,79.1,54.1,30.00,ESE,117,0.0,0.0,42,0.00,,,0.00,VWS V14.01,2013-05-18 19:32:00,
2013-05-18 15:33:00,79.1,54.1,30.00,ESE,117,0.0,1.0,42,0.00,,,0.00,VWS V14.01,2013-05-18 19:33:00,
2013-05-18 15:34:00,79.0,54.0,30.00,ESE,117,0.0,1.0,42,0.00,,,0.00,VWS V14.01,2013-05-18 19:34:00,
2013-05-18 15:35:00,79.0,54.0,30.00,ESE,117,0.0,1.0,42,0.00,,,0.00,VWS V14.01,2013-05-18 19:35:00,
2013-05-18 15:36:00,79.0,54.6,30.00,ESE,117,0.0,1.0,43,0.00,,,0.00,VWS V14.01,2013-05-18 19:36:00,
2013-05-18 15:37:00,79.0,54.0,30.00,ESE,119,1.0,2.0,42,0.00,,,0.00,VWS V14.01,2013-05-18 19:37:00,
2013-05-18 15:38:00,79.0,54.0,30.00,ESE,118,0.0,2.0,42,0.00,,,0.00,VWS V14.01,2013-05-18 19:38:00,
2013-05-18 15:39:00,79.0,54.0,30.00,ESE,119,0.0,2.0,42,0.00,,,0.00,VWS V14.01,2013-05-18 19:39:00,
2013-05-18 15:40:00,79.0,54.0,30.00,SW,221,0.0,2.0,42,0.00,,,0.00,VWS V14.01,2013-05-18 19:40:00,
2013-05-18 15:41:00,79.0,54.0,30.00,SSE,166,0.0,3.0,42,0.00,,,0.00,VWS V14.01,2013-05-18 19:41:00,
2013-05-18 15:42:00,79.0,54.6,30.00,SSE,165,2.0,3.0,43,0.00,,,0.00,VWS V14.01,2013-05-18 19:42:00,
2013-05-18 15:43:00,79.1,54.1,30.00,ESE,116,1.0,3.0,42,0.00,,,0.00,VWS V14.01,2013-05-18 19:43:00,
2013-05-18 15:44:00,79.1,54.1,30.00,SSE,159,1.0,4.0,42,0.00,,,0.00,VWS V14.01,2013-05-18 19:44:00,
2013-05-18 15:45:00,79.1,53.4,30.00,South,179,0.0,5.0,41,0.00,,,0.00,VWS V14.01,2013-05-18 19:45:00,
2013-05-18 15:46:00,79.0,54.0,30.00,SE,129,1.0,5.0,42,0.00,,,0.00,VWS V14.01,2013-05-18 19:46:00,
2013-05-18 15:47:00,79.0,54.6,30.00,SE,129,0.0,5.0,43,0.00,,,0.00,VWS V14.01,2013-05-18 19:47:00,
2013-05-18 15:48:00,79.1,54.7,30.00,SE,130,1.0,5.0,43,0.00,,,0.00,VWS V14.01,2013-05-18 19:48:00,
2013-05-18 15:49:00,79.1,54.1,30.00,SE,129,0.0,5.0,42,0.00,,,0.00,VWS V14.01,2013-05-18 19:49:00,
2013-05-18 15:50:00,79.1,53.4,30.00,SE,130,0.0,5.0,41,0.00,,,0.00,VWS V14.01,2013-05-18 19:50:00,
2013-05-18 15:51:00,79.1,53.4,30.00,SE,130,0.0,5.0,41,0.00,,,0.00,VWS V14.01,2013-05-18 19:51:00,
2013-05-18 15:52:00,79.1,54.1,30.00,SE,129,0.0,5.0,42,0.00,,,0.00,VWS V14.01,2013-05-18 19:52:00,
2013-05-18 15:53:00,79.0,53.3,30.00,South,171,1.0,5.0,41,0.00,,,0.00,VWS V14.01,2013-05-18 19:53:00,
2013-05-18 15:54:00,79.0,53.3,30.00,West,264,2.0,5.0,41,0.00,,,0.00,VWS V14.01,2013-05-18 19:54:00,
2013-05-18 15:55:00,79.0,53.3,30.00,West,275,0.0,5.0,41,0.00,,,0.00,VWS V14.01,2013-05-18 19:55:00,
2013-05-18 15:56:00,78.9,53.9,30.00,West,275,0.0,5.0,42,0.00,,,0.00,VWS V14.01,2013-05-18 19:56:00,
2013-05-18 15:57:00,78.9,53.9,30.00,West,277,0.0,5.0,42,0.00,,,0.00,VWS V14.01,2013-05-18 19:57:00,
2013-05-18 15:58:00,78.9,53.2,30.00,West,277,0.0,5.0,41,0.00,,,0.00,VWS V14.01,2013-05-18 19:58:00,
2013-05-18 15:59:00,78.8,53.1,30.00,West,277,0.0,5.0,41,0.00,,,0.00,VWS V14.01,2013-05-18 19:59:00,
2013-05-18 16:00:00,78.9,54.5,30.00,West,277,0.0,5.0,43,0.00,,,0.00,VWS V14.01,2013-05-18 20:00:00,
2013-05-18 16:01:00,78.9,53.9,30.00,West,276,0.0,0.0,42,0.00,,,0.00,VWS V14.01,2013-05-18 20:01:00,
2013-05-18 16:02:00,78.9,54.5,30.00,West,276,0.0,0.0,43,0.00,,,0.00,VWS V14.01,2013-05-18 20:02:00,
2013-05-18 16:03:00,78.9,53.9,30.00,West,277,0.0,0.0,42,0.00,,,0.00,VWS V14.01,2013-05-18 20:03:00,
2013-05-18 16:04:00,79.0,54.0,30.00,West,277,0.0,0.0,42,0.00,,,0.00,VWS V14.01,2013-05-18 20:04:00,
2013-05-18 16:05:00,79.0,54.6,30.00,West,273,1.0,2.0,43,0.00,,,0.00,VWS V14.01,2013-05-18 20:05:00,
2013-05-18 16:06:00,79.1,54.7,30.00,West,274,0.0,2.0,43,0.00,,,0.00,VWS V14.01,2013-05-18 20:06:00,
2013-05-18 16:07:00,79.0,55.2,30.00,West,274,0.0,2.0,44,0.00,,,0.00,VWS V14.01,2013-05-18 20:07:00,
2013-05-18 16:08:00,79.1,54.1,30.00,West,274,0.0,2.0,42,0.00,,,0.00,VWS V14.01,2013-05-18 20:08:00,
2013-05-18 16:09:00,79.1,54.7,30.00,West,274,0.0,2.0,43,0.00,,,0.00,VWS V14.01,2013-05-18 20:09:00,
2013-05-18 16:10:00,79.1,53.4,30.00,SW,219,0.0,2.0,41,0.00,,,0.00,VWS V14.01,2013-05-18 20:10:00,
2013-05-18 16:11:00,79.1,53.4,30.00,SW,219,0.0,2.0,41,0.00,,,0.00,VWS V14.01,2013-05-18 20:11:00,
2013-05-18 16:12:00,79.1,53.4,30.00,SW,219,0.0,2.0,41,0.00,,,0.00,VWS V14.01,2013-05-18 20:12:00,
2013-05-18 16:13:00,79.2,54.2,30.00,SW,219,0.0,2.0,42,0.00,,,0.00,VWS V14.01,2013-05-18 20:13:00,
2013-05-18 16:14:00,79.2,53.5,29.99,SSW,209,0.0,2.0,41,0.00,,,0.00,VWS V14.01,2013-05-18 20:14:00,
2013-05-18 16:15:00,79.3,54.9,29.99,South,190,0.0,3.0,43,0.00,,,0.00,VWS V14.01,2013-05-18 20:15:00,
2013-05-18 16:16:00,79.3,53.6,30.00,SSE,164,1.0,4.0,41,0.00,,,0.00,VWS V14.01,2013-05-18 20:16:00,
2013-05-18 16:17:00,79.3,53.6,29.99,SSE,165,3.0,4.0,41,0.00,,,0.00,VWS V14.01,2013-05-18 20:17:00,
2013-05-18 16:18:00,79.3,54.2,29.99,SSE,165,0.0,4.0,42,0.00,,,0.00,VWS V14.01,2013-05-18 20:18:00,
2013-05-18 16:19:00,79.3,54.2,30.00,SSE,150,2.0,4.0,42,0.00,,,0.00,VWS V14.01,2013-05-18 20:19:00,
2013-05-18 16:20:00,79.3,52.9,30.00,SSE,150,0.0,4.0,40,0.00,,,0.00,VWS V14.01,2013-05-18 20:20:00,
2013-05-18 16:21:00,79.2,53.5,30.00,SSE,150,0.0,4.0,41,0.00,,,0.00,VWS V14.01,2013-05-18 20:21:00,
2013-05-18 16:22:00,79.2,52.8,30.00,SSE,150,1.0,4.0,40,0.00,,,0.00,VWS V14.01,2013-05-18 20:22:00,
2013-05-18 16:23:00,79.1,53.4,30.00,SSE,150,0.0,4.0,41,0.00,,,0.00,VWS V14.01,2013-05-18 20:23:00,
2013-05-18 16:24:00,79.1,53.4,29.99,SSE,150,0.0,4.0,41,0.00,,,0.00,VWS V14.01,2013-05-18 20:24:00,
2013-05-18 16:25:00,79.1,54.1,29.99,SSE,150,0.0,4.0,42,0.00,,,0.00,VWS V14.01,2013-05-18 20:25:00,
2013-05-18 16:26:00,79.1,54.1,29.99,SE,140,0.0,4.0,42,0.00,,,0.00,VWS V14.01,2013-05-18 20:26:00,
2013-05-18 16:27:00,79.1,54.1,29.99,SE,140,0.0,4.0,42,0.00,,,0.00,VWS V14.01,2013-05-18 20:27:00,
2013-05-18 16:28:00,79.1,53.4,29.99,SE,140,0.0,4.0,41,0.00,,,0.00,VWS V14.01,2013-05-18 20:28:00,
2013-05-18 16:29:00,79.1,53.4,29.99,SE,140,0.0,4.0,41,0.00,,,0.00,VWS V14.01,2013-05-18 20:29:00,
2013-05-18 16:30:00,79.1,54.7,29.99,SE,140,0.0,4.0,43,0.00,,,0.00,VWS V14.01,2013-05-18 20:30:00,
2013-05-18 16:31:00,79.2,53.5,29.99,SSE,164,4.0,4.0,41,0.00,,,0.00,VWS V14.01,2013-05-18 20:31:00,
2013-05-18 16:32:00,79.2,52.8,29.99,SSE,164,0.0,5.0,40,0.00,,,0.00,VWS V14.01,2013-05-18 20:32:00,
2013-05-18 16:33:00,79.2,53.5,29.99,SSE,164,1.0,5.0,41,0.00,,,0.00,VWS V14.01,2013-05-18 20:33:00,
2013-05-18 16:34:00,79.2,53.5,29.99,SSE,164,1.0,5.0,41,0.00,,,0.00,VWS V14.01,2013-05-18 20:34:00,
2013-05-18 16:35:00,79.2,53.5,29.99,SSE,159,3.0,5.0,41,0.00,,,0.00,VWS V14.01,2013-05-18 20:35:00,
2013-05-18 16:36:00,79.3,53.6,29.99,SE,144,2.0,5.0,41,0.00,,,0.00,VWS V14.01,2013-05-18 20:36:00,
2013-05-18 16:37:00,79.3,54.2,29.99,SE,144,0.0,5.0,42,0.00,,,0.00,VWS V14.01,2013-05-18 20:37:00,
2013-05-18 16:38:00,79.3,54.2,29.99,SE,144,0.0,5.0,42,0.00,,,0.00,VWS V14.01,2013-05-18 20:38:00,
2013-05-18 16:39:00,79.3,54.2,29.99,SE,144,0.0,5.0,42,0.00,,,0.00,VWS V14.01,2013-05-18 20:39:00,
2013-05-18 16:40:00,79.4,54.3,29.99,SE,144,0.0,5.0,42,0.00,,,0.00,VWS V14.01,2013-05-18 20:40:00,
2013-05-18 16:41:00,79.4,54.3,29.99,SE,144,0.0,5.0,42,0.00,,,0.00,VWS V14.01,2013-05-18 20:41:00,
2013-05-18 16:42:00,79.3,54.2,29.99,SE,144,0.0,5.0,42,0.00,,,0.00,VWS V14.01,2013-05-18 20:42:00,
2013-05-18 16:43:00,79.3,54.9,29.99,SE,138,2.0,5.0,43,0.00,,,0.00,VWS V14.01,2013-05-18 20:43:00,
2013-05-18 16:44:00,79.3,52.9,29.99,SE,138,0.0,5.0,40,0.00,,,0.00,VWS V14.01,2013-05-18 20:44:00,
2013-05-18 16:45:00,79.2,52.8,29.99,North,355,2.0,5.0,40,0.00,,,0.00,VWS V14.01,2013-05-18 20:45:00,
2013-05-18 16:46:00,79.2,52.8,29.99,NNW,344,0.0,5.0,40,0.00,,,0.00,VWS V14.01,2013-05-18 20:46:00,
2013-05-18 16:47:00,79.2,53.5,29.99,NNW,348,0.0,5.0,41,0.00,,,0.00,VWS V14.01,2013-05-18 20:47:00,
2013-05-18 16:48:00,79.1,54.1,29.99,ENE,70,1.0,5.0,42,0.00,,,0.00,VWS V14.01,2013-05-18 20:48:00,
2013-05-18 16:49:00,79.1,53.4,29.99,SE,134,3.0,5.0,41,0.00,,,0.00,VWS V14.01,2013-05-18 20:49:00,
2013-05-18 16:50:00,79.1,54.1,29.99,SE,134,2.0,5.0,42,0.00,,,0.00,VWS V14.01,2013-05-18 20:50:00,
2013-05-18 16:51:00,79.0,54.0,29.99,SE,134,0.0,5.0,42,0.00,,,0.00,VWS V14.01,2013-05-18 20:51:00,
2013-05-18 16:52:00,79.0,54.0,29.99,SE,134,0.0,5.0,42,0.00,,,0.00,VWS V14.01,2013-05-18 20:52:00,
2013-05-18 16:53:00,78.9,54.5,30.00,SE,134,0.0,5.0,43,0.00,,,0.00,VWS V14.01,2013-05-18 20:53:00,
2013-05-18 16:54:00,78.9,53.9,30.00,SE,134,0.0,5.0,42,0.00,,,0.00,VWS V14.01,2013-05-18 20:54:00,
2013-05-18 16:55:00,78.9,53.9,30.00,SE,134,0.0,5.0,42,0.00,,,0.00,VWS V14.01,2013-05-18 20:55:00,
2013-05-18 16:56:00,78.9,53.9,29.99,SE,134,0.0,5.0,42,0.00,,,0.00,VWS V14.01,2013-05-18 20:56:00,
2013-05-18 16:57:00,78.9,53.9,29.99,SE,134,1.0,5.0,42,0.00,,,0.00,VWS V14.01,2013-05-18 20:57:00,
2013-05-18 16:58:00,78.9,54.5,30.00,SE,134,0.0,5.0,43,0.00,,,0.00,VWS V14.01,2013-05-18 20:58:00,
2013-05-18 16:59:00,78.8,54.4,29.99,SE,134,0.0,5.0,43,0.00,,,0.00,VWS V14.01,2013-05-18 20:59:00,
2013-05-18 17:00:00,78.8,53.8,29.99,SE,130,0.0,5.0,42,0.00,,,0.00,VWS V14.01,2013-05-18 21:00:00,
2013-05-18 17:01:00,78.8,54.4,29.99,SE,131,0.0,1.0,43,0.00,,,0.00,VWS V14.01,2013-05-18 21:01:00,
2013-05-18 17:02:00,78.9,54.5,29.99,SE,131,0.0,2.0,43,0.00,,,0.00,VWS V14.01,2013-05-18 21:02:00,
2013-05-18 17:03:00,78.9,55.2,29.99,SE,131,1.0,2.0,44,0.00,,,0.00,VWS V14.01,2013-05-18 21:03:00,
2013-05-18 17:04:00,79.0,55.2,29.99,SE,144,2.0,3.0,44,0.00,,,0.00,VWS V14.01,2013-05-18 21:04:00,
2013-05-18 17:05:00,79.0,54.6,29.99,SE,145,1.0,3.0,43,0.00,,,0.00,VWS V14.01,2013-05-18 21:05:00,
2013-05-18 17:06:00,79.0,54.6,29.99,SE,144,0.0,3.0,43,0.00,,,0.00,VWS V14.01,2013-05-18 21:06:00,
2013-05-18 17:07:00,78.9,54.5,29.99,SE,144,0.0,3.0,43,0.00,,,0.00,VWS V14.01,2013-05-18 21:07:00,
2013-05-18 17:08:00,78.9,54.5,29.99,SE,144,0.0,3.0,43,0.00,,,0.00,VWS V14.01,2013-05-18 21:08:00,
2013-05-18 17:09:00,78.8,54.4,29.99,SE,144,1.0,3.0,43,0.00,,,0.00,VWS V14.01,2013-05-18 21:09:00,
2013-05-18 17:10:00,78.8,54.4,29.99,SE,144,0.0,3.0,43,0.00,,,0.00,VWS V14.01,2013-05-18 21:10:00,
2013-05-18 17:11:00,78.7,54.3,29.99,SE,144,0.0,3.0,43,0.00,,,0.00,VWS V14.01,2013-05-18 21:11:00,
2013-05-18 17:12:00,78.7,54.3,29.99,SE,144,0.0,3.0,43,0.00,,,0.00,VWS V14.01,2013-05-18 21:12:00,
2013-05-18 17:13:00,78.7,55.0,29.99,SE,144,1.0,3.0,44,0.00,,,0.00,VWS V14.01,2013-05-18 21:13:00,
2013-05-18 17:14:00,78.7,55.0,29.99,SE,144,0.0,3.0,44,0.00,,,0.00,VWS V14.01,2013-05-18 21:14:00,
2013-05-18 17:15:00,78.7,55.0,29.99,SE,144,0.0,3.0,44,0.00,,,0.00,VWS V14.01,2013-05-18 21:15:00,
2013-05-18 17:16:00,78.7,55.0,29.99,SE,144,1.0,3.0,44,0.00,,,0.00,VWS V14.01,2013-05-18 21:16:00,
2013-05-18 17:17:00,78.7,54.3,29.99,SE,144,0.0,3.0,43,0.00,,,0.00,VWS V14.01,2013-05-18 21:17:00,
2013-05-18 17:18:00,78.7,54.3,29.99,SE,145,3.0,3.0,43,0.00,,,0.00,VWS V14.01,2013-05-18 21:18:00,
2013-05-18 17:19:00,78.7,54.3,29.99,SE,145,2.0,3.0,43,0.00,,,0.00,VWS V14.01,2013-05-18 21:19:00,
2013-05-18 17:20:00,78.7,53.7,29.99,SE,145,1.0,3.0,42,0.00,,,0.00,VWS V14.01,2013-05-18 21:20:00,
2013-05-18 17:21:00,78.6,54.3,29.99,SE,146,1.0,3.0,43,0.00,,,0.00,VWS V14.01,2013-05-18 21:21:00,
2013-05-18 17:22:00,78.5,53.5,29.99,SSE,147,1.0,3.0,42,0.00,,,0.00,VWS V14.01,2013-05-18 21:22:00,
2013-05-18 17:23:00,78.5,54.2,29.99,SE,146,1.0,3.0,43,0.00,,,0.00,VWS V14.01,2013-05-18 21:23:00,
2013-05-18 17:24:00,78.4,54.1,29.99,SE,146,0.0,3.0,43,0.00,,,0.00,VWS V14.01,2013-05-18 21:24:00,
2013-05-18 17:25:00,78.3,54.0,29.99,SE,146,0.0,3.0,43,0.00,,,0.00,VWS V14.01,2013-05-18 21:25:00,
2013-05-18 17:26:00,78.3,54.0,29.99,SSE,147,0.0,3.0,43,0.00,,,0.00,VWS V14.01,2013-05-18 21:26:00,
2013-05-18 17:27:00,78.3,54.6,29.99,SSE,147,0.0,3.0,44,0.00,,,0.00,VWS V14.01,2013-05-18 21:27:00,
2013-05-18 17:28:00,78.2,53.9,29.99,SSE,150,3.0,3.0,43,0.00,,,0.00,VWS V14.01,2013-05-18 21:28:00,
2013-05-18 17:29:00,78.2,53.9,29.99,SSE,150,0.0,3.0,43,0.00,,,0.00,VWS V14.01,2013-05-18 21:29:00,
2013-05-18 17:30:00,78.2,53.9,29.99,SSE,150,1.0,3.0,43,0.00,,,0.00,VWS V14.01,2013-05-18 21:30:00,
2013-05-18 17:31:00,78.1,54.4,29.99,SSE,150,0.0,1.0,44,0.00,,,0.00,VWS V14.01,2013-05-18 21:31:00,
2013-05-18 17:32:00,78.1,54.4,29.99,SSE,150,0.0,1.0,44,0.00,,,0.00,VWS V14.01,2013-05-18 21:32:00,
2013-05-18 17:33:00,78.0,54.3,29.99,SSE,150,1.0,2.0,44,0.00,,,0.00,VWS V14.01,2013-05-18 21:33:00,
2013-05-18 17:34:00,78.0,53.7,29.99,SSE,150,0.0,2.0,43,0.00,,,0.00,VWS V14.01,2013-05-18 21:34:00,
2013-05-18 17:35:00,78.0,54.3,29.99,SSE,150,0.0,2.0,44,0.00,,,0.00,VWS V14.01,2013-05-18 21:35:00,
2013-05-18 17:36:00,78.0,54.3,29.99,SSE,150,0.0,2.0,44,0.00,,,0.00,VWS V14.01,2013-05-18 21:36:00,
2013-05-18 17:37:00,78.0,54.3,29.99,SSE,150,0.0,2.0,44,0.00,,,0.00,VWS V14.01,2013-05-18 21:37:00,
2013-05-18 17:38:00,78.0,54.3,29.99,SSE,148,0.0,2.0,44,0.00,,,0.00,VWS V14.01,2013-05-18 21:38:00,
2013-05-18 17:39:00,78.0,54.3,29.99,SSE,148,1.0,2.0,44,0.00,,,0.00,VWS V14.01,2013-05-18 21:39:00,
2013-05-18 17:40:00,78.0,55.0,29.99,SE,134,1.0,2.0,45,0.00,,,0.00,VWS V14.01,2013-05-18 21:40:00,
2013-05-18 17:41:00,78.0,54.3,29.99,SE,134,2.0,2.0,44,0.00,,,0.00,VWS V14.01,2013-05-18 21:41:00,
2013-05-18 17:42:00,78.0,54.3,29.99,SE,134,1.0,2.0,44,0.00,,,0.00,VWS V14.01,2013-05-18 21:42:00,
2013-05-18 17:43:00,78.0,53.7,29.99,SE,140,0.0,2.0,43,0.00,,,0.00,VWS V14.01,2013-05-18 21:43:00,
2013-05-18 17:44:00,77.9,54.3,29.98,SE,140,2.0,2.0,44,0.00,,,0.00,VWS V14.01,2013-05-18 21:44:00,
2013-05-18 17:45:00,77.9,53.6,29.99,SE,140,2.0,2.0,43,0.00,,,0.00,VWS V14.01,2013-05-18 21:45:00,
2013-05-18 17:46:00,77.9,54.3,29.99,SE,140,0.0,2.0,44,0.00,,,0.00,VWS V14.01,2013-05-18 21:46:00,
2013-05-18 17:47:00,77.8,54.2,29.99,SE,137,1.0,2.0,44,0.00,,,0.00,VWS V14.01,2013-05-18 21:47:00,
2013-05-18 17:48:00,77.8,53.5,29.99,SE,137,0.0,2.0,43,0.00,,,0.00,VWS V14.01,2013-05-18 21:48:00,
2013-05-18 17:49:00,77.8,53.5,29.99,SE,137,1.0,2.0,43,0.00,,,0.00,VWS V14.01,2013-05-18 21:49:00,
2013-05-18 17:50:00,77.7,53.5,29.99,SE,137,2.0,2.0,43,0.00,,,0.00,VWS V14.01,2013-05-18 21:50:00,
2013-05-18 17:51:00,77.7,53.5,29.99,SE,137,0.0,2.0,43,0.00,,,0.00,VWS V14.01,2013-05-18 21:51:00,
2013-05-18 17:52:00,77.7,54.1,29.99,SE,125,0.0,2.0,44,0.00,,,0.00,VWS V14.01,2013-05-18 21:52:00,
2013-05-18 17:53:00,77.6,54.0,29.99,SE,125,0.0,2.0,44,0.00,,,0.00,VWS V14.01,2013-05-18 21:53:00,
2013-05-18 17:54:00,77.7,54.1,29.99,SE,125,1.0,2.0,44,0.00,,,0.00,VWS V14.01,2013-05-18 21:54:00,
2013-05-18 17:55:00,77.7,55.3,29.99,ESE,117,1.0,2.0,46,0.00,,,0.00,VWS V14.01,2013-05-18 21:55:00,
2013-05-18 17:56:00,77.7,53.5,29.99,ESE,118,0.0,2.0,43,0.00,,,0.00,VWS V14.01,2013-05-18 21:56:00,
2013-05-18 17:57:00,77.7,53.5,29.99,ESE,117,1.0,2.0,43,0.00,,,0.00,VWS V14.01,2013-05-18 21:57:00,
2013-05-18 17:58:00,77.6,54.0,29.99,ESE,118,0.0,2.0,44,0.00,,,0.00,VWS V14.01,2013-05-18 21:58:00,
2013-05-18 17:59:00,77.6,53.4,29.98,ESE,117,2.0,2.0,43,0.00,,,0.00,VWS V14.01,2013-05-18 21:59:00,
2013-05-18 18:00:00,77.6,54.0,29.98,ESE,117,0.0,2.0,44,0.00,,,0.00,VWS V14.01,2013-05-18 22:00:00,
2013-05-18 18:01:00,77.6,54.0,29.98,SE,134,2.0,3.0,44,0.00,,,0.00,VWS V14.01,2013-05-18 22:01:00,
2013-05-18 18:02:00,77.5,53.3,29.98,SE,134,0.0,3.0,43,0.00,,,0.00,VWS V14.01,2013-05-18 22:02:00,
2013-05-18 18:03:00,77.5,53.3,29.98,SE,134,0.0,3.0,43,0.00,,,0.00,VWS V14.01,2013-05-18 22:03:00,
2013-05-18 18:04:00,77.5,53.3,29.98,SE,133,1.0,3.0,43,0.00,,,0.00,VWS V14.01,2013-05-18 22:04:00,
2013-05-18 18:05:00,77.5,53.3,29.98,SE,133,1.0,3.0,43,0.00,,,0.00,VWS V14.01,2013-05-18 22:05:00,
2013-05-18 18:06:00,77.4,53.2,29.98,SE,133,0.0,3.0,43,0.00,,,0.00,VWS V14.01,2013-05-18 22:06:00,
2013-05-18 18:07:00,77.4,53.2,29.99,SE,133,1.0,3.0,43,0.00,,,0.00,VWS V14.01,2013-05-18 22:07:00,
2013-05-18 18:08:00,77.4,52.5,29.99,SE,133,0.0,3.0,42,0.00,,,0.00,VWS V14.01,2013-05-18 22:08:00,
2013-05-18 18:09:00,77.3,53.1,29.98,SE,133,2.0,3.0,43,0.00,,,0.00,VWS V14.01,2013-05-18 22:09:00,
2013-05-18 18:10:00,77.3,52.5,29.98,SE,133,0.0,3.0,42,0.00,,,0.00,VWS V14.01,2013-05-18 22:10:00,
2013-05-18 18:11:00,77.3,53.1,29.98,SE,133,0.0,3.0,43,0.00,,,0.00,VWS V14.01,2013-05-18 22:11:00,
2013-05-18 18:12:00,77.3,53.7,29.99,SE,130,0.0,3.0,44,0.00,,,0.00,VWS V14.01,2013-05-18 22:12:00,
2013-05-18 18:13:00,77.3,53.1,29.99,SE,130,0.0,3.0,43,0.00,,,0.00,VWS V14.01,2013-05-18 22:13:00,
2013-05-18 18:14:00,77.2,52.4,29.99,SE,130,0.0,3.0,42,0.00,,,0.00,VWS V14.01,2013-05-18 22:14:00,
2013-05-18 18:15:00,77.2,52.4,29.99,SE,130,2.0,3.0,42,0.00,,,0.00,VWS V14.01,2013-05-18 22:15:00,
2013-05-18 18:16:00,77.1,52.3,29.99,SE,130,0.0,3.0,42,0.00,,,0.00,VWS V14.01,2013-05-18 22:16:00,
2013-05-18 18:17:00,77.1,52.9,29.99,SE,130,1.0,3.0,43,0.00,,,0.00,VWS V14.01,2013-05-18 22:17:00,
2013-05-18 18:18:00,77.1,52.9,29.99,SE,130,0.0,3.0,43,0.00,,,0.00,VWS V14.01,2013-05-18 22:18:00,
2013-05-18 18:19:00,77.1,52.9,29.99,SE,130,0.0,3.0,43,0.00,,,0.00,VWS V14.01,2013-05-18 22:19:00,
2013-05-18 18:20:00,77.0,52.2,29.99,SE,130,1.0,3.0,42,0.00,,,0.00,VWS V14.01,2013-05-18 22:20:00,
2013-05-18 18:21:00,77.0,52.2,29.99,SE,130,1.0,3.0,42,0.00,,,0.00,VWS V14.01,2013-05-18 22:21:00,
2013-05-18 18:22:00,76.9,51.4,29.99,SE,130,1.0,3.0,41,0.00,,,0.00,VWS V14.01,2013-05-18 22:22:00,
2013-05-18 18:23:00,76.8,51.3,29.99,SE,130,0.0,3.0,41,0.00,,,0.00,VWS V14.01,2013-05-18 22:23:00,
2013-05-18 18:24:00,76.8,51.3,29.99,SE,130,0.0,3.0,41,0.00,,,0.00,VWS V14.01,2013-05-18 22:24:00,
2013-05-18 18:25:00,76.7,51.2,29.99,SE,136,2.0,3.0,41,0.00,,,0.00,VWS V14.01,2013-05-18 22:25:00,
2013-05-18 18:26:00,76.7,51.2,29.99,SE,136,3.0,3.0,41,0.00,,,0.00,VWS V14.01,2013-05-18 22:26:00,
2013-05-18 18:27:00,76.6,50.5,29.99,SE,136,3.0,3.0,40,0.00,,,0.00,VWS V14.01,2013-05-18 22:27:00,
2013-05-18 18:28:00,76.5,49.7,29.99,SE,137,1.0,3.0,39,0.00,,,0.00,VWS V14.01,2013-05-18 22:28:00,
2013-05-18 18:29:00,76.4,49.6,29.99,SE,137,1.0,3.0,39,0.00,,,0.00,VWS V14.01,2013-05-18 22:29:00,
2013-05-18 18:30:00,76.4,49.6,29.99,SE,137,2.0,3.0,39,0.00,,,0.00,VWS V14.01,2013-05-18 22:30:00,
2013-05-18 18:31:00,76.3,49.5,29.99,SE,137,0.0,2.0,39,0.00,,,0.00,VWS V14.01,2013-05-18 22:31:00,
2013-05-18 18:32:00,76.2,49.5,29.99,SE,137,2.0,2.0,39,0.00,,,0.00,VWS V14.01,2013-05-18 22:32:00,
2013-05-18 18:33:00,76.2,49.5,29.99,SE,137,2.0,2.0,39,0.00,,,0.00,VWS V14.01,2013-05-18 22:33:00,
2013-05-18 18:34:00,76.1,50.0,29.99,SE,138,0.0,2.0,40,0.00,,,0.00,VWS V14.01,2013-05-18 22:34:00,
2013-05-18 18:35:00,76.1,50.0,29.99,SE,138,1.0,2.0,40,0.00,,,0.00,VWS V14.01,2013-05-18 22:35:00,
2013-05-18 18:36:00,76.0,50.0,29.99,SE,138,2.0,2.0,40,0.00,,,0.00,VWS V14.01,2013-05-18 22:36:00,
2013-05-18 18:37:00,76.0,50.0,29.99,SE,138,0.0,2.0,40,0.00,,,0.00,VWS V14.01,2013-05-18 22:37:00,
2013-05-18 18:38:00,76.0,50.0,29.99,SE,138,0.0,2.0,40,0.00,,,0.00,VWS V14.01,2013-05-18 22:38:00,
2013-05-18 18:39:00,75.9,49.9,29.99,SE,138,1.0,2.0,40,0.00,,,0.00,VWS V14.01,2013-05-18 22:39:00,
2013-05-18 18:40:00,75.9,49.9,29.99,SE,138,1.0,2.0,40,0.00,,,0.00,VWS V14.01,2013-05-18 22:40:00,
2013-05-18 18:41:00,75.9,49.9,29.99,SE,138,1.0,2.0,40,0.00,,,0.00,VWS V14.01,2013-05-18 22:41:00,
2013-05-18 18:42:00,75.8,49.8,29.99,SE,138,0.0,2.0,40,0.00,,,0.00,VWS V14.01,2013-05-18 22:42:00,
2013-05-18 18:43:00,75.8,49.1,29.99,SE,138,1.0,2.0,39,0.00,,,0.00,VWS V14.01,2013-05-18 22:43:00,
2013-05-18 18:44:00,75.8,49.8,29.99,SE,138,0.0,2.0,40,0.00,,,0.00,VWS V14.01,2013-05-18 22:44:00,
2013-05-18 18:45:00,75.8,49.8,29.99,SE,138,0.0,2.0,40,0.00,,,0.00,VWS V14.01,2013-05-18 22:45:00,
2013-05-18 18:46:00,75.8,49.8,29.99,SE,138,0.0,2.0,40,0.00,,,0.00,VWS V14.01,2013-05-18 22:46:00,
2013-05-18 18:47:00,75.7,49.7,29.99,SE,138,1.0,2.0,40,0.00,,,0.00,VWS V14.01,2013-05-18 22:47:00,
2013-05-18 18:48:00,75.7,49.7,29.99,SE,138,0.0,2.0,40,0.00,,,0.00,VWS V14.01,2013-05-18 22:48:00,
2013-05-18 18:49:00,75.6,49.6,29.99,SE,138,0.0,2.0,40,0.00,,,0.00,VWS V14.01,2013-05-18 22:49:00,
2013-05-18 18:50:00,75.6,48.9,30.00,SE,138,0.0,2.0,39,0.00,,,0.00,VWS V14.01,2013-05-18 22:50:00,
2013-05-18 18:51:00,75.6,48.9,30.00,SE,140,1.0,2.0,39,0.00,,,0.00,VWS V14.01,2013-05-18 22:51:00,
2013-05-18 18:52:00,75.5,48.8,29.99,SE,140,1.0,2.0,39,0.00,,,0.00,VWS V14.01,2013-05-18 22:52:00,
2013-05-18 18:53:00,75.5,49.5,30.00,SE,140,1.0,2.0,40,0.00,,,0.00,VWS V14.01,2013-05-18 22:53:00,
2013-05-18 18:54:00,75.4,48.8,30.00,SE,140,2.0,2.0,39,0.00,,,0.00,VWS V14.01,2013-05-18 22:54:00,
2013-05-18 18:55:00,75.4,48.8,30.00,SE,143,1.0,2.0,39,0.00,,,0.00,VWS V14.01,2013-05-18 22:55:00,
2013-05-18 18:56:00,75.3,48.7,30.00,SE,142,0.0,2.0,39,0.00,,,0.00,VWS V14.01,2013-05-18 22:56:00,
2013-05-18 18:57:00,75.3,49.3,30.00,SE,142,0.0,2.0,40,0.00,,,0.00,VWS V14.01,2013-05-18 22:57:00,
2013-05-18 18:58:00,75.3,48.7,30.00,SE,142,0.0,2.0,39,0.00,,,0.00,VWS V14.01,2013-05-18 22:58:00,
2013-05-18 18:59:00,75.2,48.6,30.00,SE,143,0.0,2.0,39,0.00,,,0.00,VWS V14.01,2013-05-18 22:59:00,
2013-05-18 19:00:00,75.2,49.2,30.00,SE,143,0.0,2.0,40,0.00,,,0.00,VWS V14.01,2013-05-18 23:00:00,
2013-05-18 19:01:00,75.2,48.6,29.99,SE,143,0.0,0.0,39,0.00,,,0.00,VWS V14.01,2013-05-18 23:01:00,
2013-05-18 19:02:00,75.1,48.5,30.00,SE,143,0.0,0.0,39,0.00,,,0.00,VWS V14.01,2013-05-18 23:02:00,
2013-05-18 19:03:00,75.1,48.5,30.00,SE,143,0.0,1.0,39,0.00,,,0.00,VWS V14.01,2013-05-18 23:03:00,
2013-05-18 19:04:00,75.1,48.5,30.00,SE,142,0.0,1.0,39,0.00,,,0.00,VWS V14.01,2013-05-18 23:04:00,
2013-05-18 19:05:00,75.0,49.1,30.00,SE,143,0.0,1.0,40,0.00,,,0.00,VWS V14.01,2013-05-18 23:05:00,
2013-05-18 19:06:00,75.0,48.4,30.00,SE,142,1.0,2.0,39,0.00,,,0.00,VWS V14.01,2013-05-18 23:06:00,
2013-05-18 19:07:00,74.9,48.3,30.00,SE,143,0.0,2.0,39,0.00,,,0.00,VWS V14.01,2013-05-18 23:07:00,
2013-05-18 19:08:00,74.9,48.3,30.00,SE,143,0.0,2.0,39,0.00,,,0.00,VWS V14.01,2013-05-18 23:08:00,
2013-05-18 19:09:00,74.9,49.0,30.00,SE,143,1.0,2.0,40,0.00,,,0.00,VWS V14.01,2013-05-18 23:09:00,
2013-05-18 19:10:00,74.8,48.9,30.00,SE,143,1.0,2.0,40,0.00,,,0.00,VWS V14.01,2013-05-18 23:10:00,
2013-05-18 19:11:00,74.8,48.9,30.00,SE,143,0.0,2.0,40,0.00,,,0.00,VWS V14.01,2013-05-18 23:11:00,
2013-05-18 19:12:00,74.8,48.9,30.00,SE,142,0.0,2.0,40,0.00,,,0.00,VWS V14.01,2013-05-18 23:12:00,
2013-05-18 19:13:00,74.7,48.8,30.00,SE,143,0.0,2.0,40,0.00,,,0.00,VWS V14.01,2013-05-18 23:13:00,
2013-05-18 19:14:00,74.7,49.5,30.00,SE,142,0.0,2.0,41,0.00,,,0.00,VWS V14.01,2013-05-18 23:14:00,
2013-05-18 19:15:00,74.7,49.5,30.00,SE,143,0.0,2.0,41,0.00,,,0.00,VWS V14.01,2013-05-18 23:15:00,
2013-05-18 19:16:00,74.6,49.4,30.00,SE,143,1.0,2.0,41,0.00,,,0.00,VWS V14.01,2013-05-18 23:16:00,
2013-05-18 19:17:00,74.6,49.4,30.00,SE,143,0.0,2.0,41,0.00,,,0.00,VWS V14.01,2013-05-18 23:17:00,
2013-05-18 19:18:00,74.5,49.3,30.00,SE,143,0.0,2.0,41,0.00,,,0.00,VWS V14.01,2013-05-18 23:18:00,
2013-05-18 19:19:00,74.5,49.3,30.00,SE,142,0.0,2.0,41,0.00,,,0.00,VWS V14.01,2013-05-18 23:19:00,
2013-05-18 19:20:00,74.5,49.9,30.00,SE,143,0.0,2.0,42,0.00,,,0.00,VWS V14.01,2013-05-18 23:20:00,
2013-05-18 19:21:00,74.5,49.9,30.00,SE,142,0.0,2.0,42,0.00,,,0.00,VWS V14.01,2013-05-18 23:21:00,
2013-05-18 19:22:00,74.4,49.8,30.00,SE,142,0.0,2.0,42,0.00,,,0.00,VWS V14.01,2013-05-18 23:22:00,
2013-05-18 19:23:00,74.4,50.5,30.00,SE,142,0.0,2.0,43,0.00,,,0.00,VWS V14.01,2013-05-18 23:23:00,
2013-05-18 19:24:00,74.3,50.4,30.00,SE,143,0.0,2.0,43,0.00,,,0.00,VWS V14.01,2013-05-18 23:24:00,
2013-05-18 19:25:00,74.2,50.3,30.00,SE,142,0.0,2.0,43,0.00,,,0.00,VWS V14.01,2013-05-18 23:25:00,
2013-05-18 19:26:00,74.1,50.2,30.00,SE,142,1.0,2.0,43,0.00,,,0.00,VWS V14.01,2013-05-18 23:26:00,
2013-05-18 19:27:00,74.1,50.2,30.00,SE,142,0.0,2.0,43,0.00,,,0.00,VWS V14.01,2013-05-18 23:27:00,
2013-05-18 19:28:00,74.0,50.1,30.00,SE,142,0.0,2.0,43,0.00,,,0.00,VWS V14.01,2013-05-18 23:28:00,
2013-05-18 19:29:00,73.9,50.0,30.00,SE,143,0.0,2.0,43,0.00,,,0.00,VWS V14.01,2013-05-18 23:29:00,
2013-05-18 19:30:00,73.9,50.0,30.00,SE,143,0.0,2.0,43,0.00,,,0.00,VWS V14.01,2013-05-18 23:30:00,
2013-05-18 19:31:00,73.8,49.9,30.00,SE,143,0.0,1.0,43,0.00,,,0.00,VWS V14.01,2013-05-18 23:31:00,
2013-05-18 19:32:00,73.8,49.9,30.00,SE,143,0.0,1.0,43,0.00,,,0.00,VWS V14.01,2013-05-18 23:32:00,
2013-05-18 19:33:00,73.7,49.8,30.00,SE,143,1.0,2.0,43,0.00,,,0.00,VWS V14.01,2013-05-18 23:33:00,
2013-05-18 19:34:00,73.6,49.8,30.00,SE,143,1.0,2.0,43,0.00,,,0.00,VWS V14.01,2013-05-18 23:34:00,
2013-05-18 19:35:00,73.6,49.8,30.00,SE,143,0.0,2.0,43,0.00,,,0.00,VWS V14.01,2013-05-18 23:35:00,
2013-05-18 19:36:00,73.5,49.7,30.00,SE,142,0.0,2.0,43,0.00,,,0.00,VWS V14.01,2013-05-18 23:36:00,
2013-05-18 19:37:00,73.5,49.7,30.00,SE,143,0.0,2.0,43,0.00,,,0.00,VWS V14.01,2013-05-18 23:37:00,
2013-05-18 19:38:00,73.4,50.2,30.00,SE,143,0.0,2.0,44,0.00,,,0.00,VWS V14.01,2013-05-18 23:38:00,
2013-05-18 19:39:00,73.4,50.2,30.00,SE,142,0.0,2.0,44,0.00,,,0.00,VWS V14.01,2013-05-18 23:39:00,
2013-05-18 19:40:00,73.3,50.1,30.00,SE,143,0.0,2.0,44,0.00,,,0.00,VWS V14.01,2013-05-18 23:40:00,
2013-05-18 19:41:00,73.3,50.1,30.00,SE,143,0.0,2.0,44,0.00,,,0.00,VWS V14.01,2013-05-18 23:41:00,
2013-05-18 19:42:00,73.2,50.0,30.00,SE,142,0.0,2.0,44,0.00,,,0.00,VWS V14.01,2013-05-18 23:42:00,
2013-05-18 19:43:00,73.1,49.9,30.00,SE,142,0.0,2.0,44,0.00,,,0.00,VWS V14.01,2013-05-18 23:43:00,
2013-05-18 19:44:00,73.1,49.9,30.00,SE,143,1.0,2.0,44,0.00,,,0.00,VWS V14.01,2013-05-18 23:44:00,
2013-05-18 19:45:00,73.0,49.8,30.00,SE,142,0.0,2.0,44,0.00,,,0.00,VWS V14.01,2013-05-18 23:45:00,
2013-05-18 19:46:00,73.0,49.8,30.00,SE,143,0.0,2.0,44,0.00,,,0.00,VWS V14.01,2013-05-18 23:46:00,
2013-05-18 19:47:00,73.0,49.8,30.00,SE,142,0.0,2.0,44,0.00,,,0.00,VWS V14.01,2013-05-18 23:47:00,
2013-05-18 19:48:00,72.9,50.3,30.00,SE,143,0.0,2.0,45,0.00,,,0.00,VWS V14.01,2013-05-18 23:48:00,
2013-05-18 19:49:00,72.9,50.3,30.00,SE,142,0.0,2.0,45,0.00,,,0.00,VWS V14.01,2013-05-18 23:49:00,
2013-05-18 19:50:00,72.8,50.2,30.00,SE,142,0.0,2.0,45,0.00,,,0.00,VWS V14.01,2013-05-18 23:50:00,
2013-05-18 19:51:00,72.8,50.2,30.00,SE,143,0.0,2.0,45,0.00,,,0.00,VWS V14.01,2013-05-18 23:51:00,
2013-05-18 19:52:00,72.7,50.8,30.00,SE,142,0.0,2.0,46,0.00,,,0.00,VWS V14.01,2013-05-18 23:52:00,
2013-05-18 19:53:00,72.6,50.1,30.00,SE,142,0.0,2.0,45,0.00,,,0.00,VWS V14.01,2013-05-18 23:53:00,
2013-05-18 19:54:00,72.6,50.1,30.00,SE,143,0.0,2.0,45,0.00,,,0.00,VWS V14.01,2013-05-18 23:54:00,
2013-05-18 19:55:00,72.5,50.0,30.00,SE,143,0.0,2.0,45,0.00,,,0.00,VWS V14.01,2013-05-18 23:55:00,
2013-05-18 19:56:00,72.4,50.5,30.00,SE,143,0.0,2.0,46,0.00,,,0.00,VWS V14.01,2013-05-18 23:56:00,
2013-05-18 19:57:00,72.3,50.4,30.00,SE,142,0.0,2.0,46,0.00,,,0.00,VWS V14.01,2013-05-18 23:57:00,
2013-05-18 19:58:00,72.2,50.3,30.00,SE,143,0.0,2.0,46,0.00,,,0.00,VWS V14.01,2013-05-18 23:58:00,
2013-05-18 19:59:00,72.2,50.3,30.00,SE,143,0.0,2.0,46,0.00,,,0.00,VWS V14.01,2013-05-18 23:59:00,
2013-05-18 20:00:00,72.1,50.2,30.00,SE,143,0.0,2.0,46,0.00,,,0.00,VWS V14.01,2013-05-19 00:00:00,
2013-05-18 20:01:00,72.1,50.2,30.00,SE,143,0.0,0.0,46,0.00,,,0.00,VWS V14.01,2013-05-19 00:01:00,
2013-05-18 20:02:00,72.0,50.7,30.00,SE,143,0.0,0.0,47,0.00,,,0.00,VWS V14.01,2013-05-19 00:02:00,
2013-05-18 20:03:00,71.9,50.6,30.00,SE,143,0.0,0.0,47,0.00,,,0.00,VWS V14.01,2013-05-19 00:03:00,
2013-05-18 20:04:00,71.9,50.6,30.00,SE,143,0.0,0.0,47,0.00,,,0.00,VWS V14.01,2013-05-19 00:04:00,
2013-05-18 20:05:00,71.8,50.5,30.00,SE,143,0.0,0.0,47,0.00,,,0.00,VWS V14.01,2013-05-19 00:05:00,
2013-05-18 20:06:00,71.7,50.4,30.00,SE,143,0.0,1.0,47,0.00,,,0.00,VWS V14.01,2013-05-19 00:06:00,
2013-05-18 20:07:00,71.6,50.3,30.00,SE,142,0.0,1.0,47,0.00,,,0.00,VWS V14.01,2013-05-19 00:07:00,
2013-05-18 20:08:00,71.5,50.2,30.00,SE,142,0.0,1.0,47,0.00,,,0.00,VWS V14.01,2013-05-19 00:08:00,
2013-05-18 20:09:00,71.5,50.8,30.00,SE,143,0.0,1.0,48,0.00,,,0.00,VWS V14.01,2013-05-19 00:09:00,
2013-05-18 20:10:00,71.4,50.1,30.00,SE,143,0.0,1.0,47,0.00,,,0.00,VWS V14.01,2013-05-19 00:10:00,
2013-05-18 20:11:00,71.3,50.0,30.00,SE,143,0.0,1.0,47,0.00,,,0.00,VWS V14.01,2013-05-19 00:11:00,
2013-05-18 20:12:00,71.3,50.0,30.00,SE,143,0.0,1.0,47,0.00,,,0.00,VWS V14.01,2013-05-19 00:12:00,
2013-05-18 20:13:00,71.3,50.0,30.00,SE,142,0.0,1.0,47,0.00,,,0.00,VWS V14.01,2013-05-19 00:13:00,
2013-05-18 20:14:00,71.2,50.5,30.00,SE,142,0.0,1.0,48,0.00,,,0.00,VWS V14.01,2013-05-19 00:14:00,
2013-05-18 20:15:00,71.2,50.5,30.00,SE,143,0.0,1.0,48,0.00,,,0.00,VWS V14.01,2013-05-19 00:15:00,
2013-05-18 20:16:00,71.1,50.4,30.00,SE,143,0.0,1.0,48,0.00,,,0.00,VWS V14.01,2013-05-19 00:16:00,
2013-05-18 20:17:00,71.0,50.3,30.00,SE,143,0.0,1.0,48,0.00,,,0.00,VWS V14.01,2013-05-19 00:17:00,
2013-05-18 20:18:00,70.9,50.8,30.00,SE,143,0.0,1.0,49,0.00,,,0.00,VWS V14.01,2013-05-19 00:18:00,
2013-05-18 20:19:00,70.8,50.2,30.00,SE,142,0.0,1.0,48,0.00,,,0.00,VWS V14.01,2013-05-19 00:19:00,
2013-05-18 20:20:00,70.7,50.1,30.00,SE,142,0.0,1.0,48,0.00,,,0.00,VWS V14.01,2013-05-19 00:20:00,
2013-05-18 20:21:00,70.7,50.1,30.00,SE,142,0.0,1.0,48,0.00,,,0.00,VWS V14.01,2013-05-19 00:21:00,
2013-05-18 20:22:00,70.6,50.0,30.00,SE,143,0.0,1.0,48,0.00,,,0.00,VWS V14.01,2013-05-19 00:22:00,
2013-05-18 20:23:00,70.6,50.0,30.00,SE,142,0.0,1.0,48,0.00,,,0.00,VWS V14.01,2013-05-19 00:23:00,
2013-05-18 20:24:00,70.5,49.9,30.00,SE,143,0.0,1.0,48,0.00,,,0.00,VWS V14.01,2013-05-19 00:24:00,
2013-05-18 20:25:00,70.5,50.4,30.00,SE,142,0.0,1.0,49,0.00,,,0.00,VWS V14.01,2013-05-19 00:25:00,
2013-05-18 20:26:00,70.4,50.3,30.00,SE,142,0.0,1.0,49,0.00,,,0.00,VWS V14.01,2013-05-19 00:26:00,
2013-05-18 20:27:00,70.3,50.3,30.00,SE,143,0.0,1.0,49,0.00,,,0.00,VWS V14.01,2013-05-19 00:27:00,
2013-05-18 20:28:00,70.3,50.3,30.00,SE,143,0.0,1.0,49,0.00,,,0.00,VWS V14.01,2013-05-19 00:28:00,
2013-05-18 20:29:00,70.2,50.2,30.00,SE,143,0.0,1.0,49,0.00,,,0.00,VWS V14.01,2013-05-19 00:29:00,
2013-05-18 20:30:00,70.1,50.6,30.00,SE,143,0.0,1.0,50,0.00,,,0.00,VWS V14.01,2013-05-19 00:30:00,
2013-05-18 20:31:00,70.1,50.6,30.00,SE,143,0.0,0.0,50,0.00,,,0.00,VWS V14.01,2013-05-19 00:31:00,
2013-05-18 20:32:00,70.0,51.1,30.00,SE,143,0.0,0.0,51,0.00,,,0.00,VWS V14.01,2013-05-19 00:32:00,
2013-05-18 20:33:00,69.9,51.5,30.00,SE,143,0.0,0.0,52,0.00,,,0.00,VWS V14.01,2013-05-19 00:33:00,
2013-05-18 20:34:00,69.8,51.9,30.00,SE,143,0.0,0.0,53,0.00,,,0.00,VWS V14.01,2013-05-19 00:34:00,
2013-05-18 20:35:00,69.7,51.8,30.00,SE,143,0.0,0.0,53,0.00,,,0.00,VWS V14.01,2013-05-19 00:35:00,
2013-05-18 20:36:00,69.6,51.2,30.00,SE,143,0.0,0.0,52,0.00,,,0.00,VWS V14.01,2013-05-19 00:36:00,
2013-05-18 20:37:00,69.4,51.0,30.00,SE,142,0.0,0.0,52,0.00,,,0.00,VWS V14.01,2013-05-19 00:37:00,
2013-05-18 20:38:00,69.4,51.5,30.00,SE,143,0.0,0.0,53,0.00,,,0.00,VWS V14.01,2013-05-19 00:38:00,
2013-05-18 20:39:00,69.3,51.5,30.00,SE,142,0.0,0.0,53,0.00,,,0.00,VWS V14.01,2013-05-19 00:39:00,
2013-05-18 20:40:00,69.1,51.3,30.00,SE,142,0.0,0.0,53,0.00,,,0.00,VWS V14.01,2013-05-19 00:40:00,
2013-05-18 20:41:00,69.0,50.7,30.00,SE,142,0.0,0.0,52,0.00,,,0.00,VWS V14.01,2013-05-19 00:41:00,
2013-05-18 20:42:00,68.9,50.6,30.00,SE,143,0.0,0.0,52,0.00,,,0.00,VWS V14.01,2013-05-19 00:42:00,
2013-05-18 20:43:00,68.8,50.0,30.00,SE,142,0.0,1.0,51,0.00,,,0.00,VWS V14.01,2013-05-19 00:43:00,
2013-05-18 20:44:00,68.7,49.9,30.00,SE,142,0.0,1.0,51,0.00,,,0.00,VWS V14.01,2013-05-19 00:44:00,
2013-05-18 20:45:00,68.6,50.3,30.00,SE,142,0.0,1.0,52,0.00,,,0.00,VWS V14.01,2013-05-19 00:45:00,
2013-05-18 20:46:00,68.6,50.3,30.00,SE,142,0.0,1.0,52,0.00,,,0.00,VWS V14.01,2013-05-19 00:46:00,
2013-05-18 20:47:00,68.5,50.2,30.00,SE,142,0.0,1.0,52,0.00,,,0.00,VWS V14.01,2013-05-19 00:47:00,
2013-05-18 20:48:00,68.5,50.2,30.00,SE,143,0.0,1.0,52,0.00,,,0.00,VWS V14.01,2013-05-19 00:48:00,
2013-05-18 20:49:00,68.4,50.1,30.00,SE,142,0.0,1.0,52,0.00,,,0.00,VWS V14.01,2013-05-19 00:49:00,
2013-05-18 20:50:00,68.3,50.0,30.00,SE,142,0.0,1.0,52,0.00,,,0.00,VWS V14.01,2013-05-19 00:50:00,
2013-05-18 20:51:00,68.2,49.9,30.00,SE,143,0.0,1.0,52,0.00,,,0.00,VWS V14.01,2013-05-19 00:51:00,
2013-05-18 20:52:00,68.2,49.9,30.00,SE,143,0.0,1.0,52,0.00,,,0.00,VWS V14.01,2013-05-19 00:52:00,
2013-05-18 20:53:00,68.1,49.8,30.00,SE,143,0.0,1.0,52,0.00,,,0.00,VWS V14.01,2013-05-19 00:53:00,
2013-05-18 20:54:00,68.1,50.3,30.00,SE,142,0.0,1.0,53,0.00,,,0.00,VWS V14.01,2013-05-19 00:54:00,
2013-05-18 20:55:00,68.0,49.7,30.00,SE,142,0.0,1.0,52,0.00,,,0.00,VWS V14.01,2013-05-19 00:55:00,
2013-05-18 20:56:00,68.0,49.7,30.00,SE,143,0.0,1.0,52,0.00,,,0.00,VWS V14.01,2013-05-19 00:56:00,
2013-05-18 20:57:00,67.9,50.2,30.00,SE,143,0.0,1.0,53,0.00,,,0.00,VWS V14.01,2013-05-19 00:57:00,
2013-05-18 20:58:00,67.9,50.2,30.00,SE,142,0.0,1.0,53,0.00,,,0.00,VWS V14.01,2013-05-19 00:58:00,
2013-05-18 20:59:00,67.8,50.1,30.00,SE,143,0.0,1.0,53,0.00,,,0.00,VWS V14.01,2013-05-19 00:59:00,
2013-05-18 21:00:00,67.7,50.0,30.00,SE,143,0.0,1.0,53,0.00,,,0.00,VWS V14.01,2013-05-19 01:00:00,
2013-05-18 21:01:00,67.7,49.5,30.00,SE,143,0.0,1.0,52,0.00,,,0.00,VWS V14.01,2013-05-19 01:01:00,
2013-05-18 21:02:00,67.6,49.9,30.00,SE,143,0.0,1.0,53,0.00,,,0.00,VWS V14.01,2013-05-19 01:02:00,
2013-05-18 21:03:00,67.6,49.9,30.00,SE,143,0.0,1.0,53,0.00,,,0.00,VWS V14.01,2013-05-19 01:03:00,
2013-05-18 21:04:00,67.5,49.8,30.00,SE,142,0.0,1.0,53,0.00,,,0.00,VWS V14.01,2013-05-19 01:04:00,
2013-05-18 21:05:00,67.4,49.7,30.00,SE,142,0.0,1.0,53,0.00,,,0.00,VWS V14.01,2013-05-19 01:05:00,
2013-05-18 21:06:00,67.4,49.7,30.00,SE,143,0.0,1.0,53,0.00,,,0.00,VWS V14.01,2013-05-19 01:06:00,
2013-05-18 21:07:00,67.3,49.6,30.00,SE,142,0.0,1.0,53,0.00,,,0.00,VWS V14.01,2013-05-19 01:07:00,
2013-05-18 21:08:00,67.2,49.5,30.00,SE,143,0.0,1.0,53,0.00,,,0.00,VWS V14.01,2013-05-19 01:08:00,
2013-05-18 21:09:00,67.2,50.0,30.00,SE,142,0.0,1.0,54,0.00,,,0.00,VWS V14.01,2013-05-19 01:09:00,
2013-05-18 21:10:00,67.1,49.9,30.00,SE,142,0.0,1.0,54,0.00,,,0.00,VWS V14.01,2013-05-19 01:10:00,
2013-05-18 21:11:00,67.0,50.3,30.00,SE,142,0.0,1.0,55,0.00,,,0.00,VWS V14.01,2013-05-19 01:11:00,
2013-05-18 21:12:00,67.0,50.3,30.00,SE,143,0.0,1.0,55,0.00,,,0.00,VWS V14.01,2013-05-19 01:12:00,
2013-05-18 21:13:00,66.9,50.2,30.00,SE,142,0.0,1.0,55,0.00,,,0.00,VWS V14.01,2013-05-19 01:13:00,
2013-05-18 21:14:00,66.8,50.6,30.00,SE,143,0.0,1.0,56,0.00,,,0.00,VWS V14.01,2013-05-19 01:14:00,
2013-05-18 21:15:00,66.8,50.1,30.00,SE,143,0.0,1.0,55,0.00,,,0.00,VWS V14.01,2013-05-19 01:15:00,
2013-05-18 21:16:00,66.7,50.0,30.00,SE,142,0.0,1.0,55,0.00,,,0.00,VWS V14.01,2013-05-19 01:16:00,
2013-05-18 21:17:00,66.6,50.0,30.00,SE,143,0.0,1.0,55,0.00,,,0.00,VWS V14.01,2013-05-19 01:17:00,
2013-05-18 21:18:00,66.6,50.0,30.00,SE,142,0.0,1.0,55,0.00,,,0.00,VWS V14.01,2013-05-19 01:18:00,
2013-05-18 21:19:00,66.5,50.3,30.00,SE,142,0.0,1.0,56,0.00,,,0.00,VWS V14.01,2013-05-19 01:19:00,
2013-05-18 21:20:00,66.5,50.8,30.00,SE,143,0.0,1.0,57,0.00,,,0.00,VWS V14.01,2013-05-19 01:20:00,
2013-05-18 21:21:00,66.4,51.2,30.00,SE,143,0.0,1.0,58,0.00,,,0.00,VWS V14.01,2013-05-19 01:21:00,
2013-05-18 21:22:00,66.3,50.2,30.01,SE,143,0.0,1.0,56,0.00,,,0.00,VWS V14.01,2013-05-19 01:22:00,
2013-05-18 21:23:00,66.2,50.1,30.01,SE,142,0.0,1.0,56,0.00,,,0.00,VWS V14.01,2013-05-19 01:23:00,
2013-05-18 21:24:00,66.2,50.5,30.01,SE,142,0.0,1.0,57,0.00,,,0.00,VWS V14.01,2013-05-19 01:24:00,
2013-05-18 21:25:00,66.1,50.0,30.01,SE,142,0.0,1.0,56,0.00,,,0.00,VWS V14.01,2013-05-19 01:25:00,
2013-05-18 21:26:00,66.0,49.9,30.01,SE,143,0.0,1.0,56,0.00,,,0.00,VWS V14.01,2013-05-19 01:26:00,
2013-05-18 21:27:00,65.9,49.8,30.01,SE,142,0.0,1.0,56,0.00,,,0.00,VWS V14.01,2013-05-19 01:27:00,
2013-05-18 21:28:00,65.9,49.8,30.01,SE,143,0.0,1.0,56,0.00,,,0.00,VWS V14.01,2013-05-19 01:28:00,
2013-05-18 21:29:00,65.8,50.2,30.01,SE,143,0.0,1.0,57,0.00,,,0.00,VWS V14.01,2013-05-19 01:29:00,
2013-05-18 21:30:00,65.7,50.5,30.01,SE,143,0.0,1.0,58,0.00,,,0.00,VWS V14.01,2013-05-19 01:30:00,
2013-05-18 21:31:00,65.7,51.0,30.01,SE,143,0.0,0.0,59,0.00,,,0.00,VWS V14.01,2013-05-19 01:31:00,
2013-05-18 21:32:00,65.6,50.9,30.01,SE,143,0.0,0.0,59,0.00,,,0.00,VWS V14.01,2013-05-19 01:32:00,
2013-05-18 21:33:00,65.5,50.8,30.01,SE,143,0.0,0.0,59,0.00,,,0.00,VWS V14.01,2013-05-19 01:33:00,
2013-05-18 21:34:00,65.4,50.7,30.01,SE,143,0.0,0.0,59,0.00,,,0.00,VWS V14.01,2013-05-19 01:34:00,
2013-05-18 21:35:00,65.3,50.6,30.01,SE,142,0.0,0.0,59,0.00,,,0.00,VWS V14.01,2013-05-19 01:35:00,
2013-05-18 21:36:00,65.2,50.5,30.01,SE,143,0.0,0.0,59,0.00,,,0.00,VWS V14.01,2013-05-19 01:36:00,
2013-05-18 21:37:00,65.1,50.4,30.01,SE,143,0.0,0.0,59,0.00,,,0.00,VWS V14.01,2013-05-19 01:37:00,
2013-05-18 21:38:00,64.9,49.8,30.01,SE,143,0.0,0.0,58,0.00,,,0.00,VWS V14.01,2013-05-19 01:38:00,
2013-05-18 21:39:00,64.8,49.2,30.01,SE,143,0.0,0.0,57,0.00,,,0.00,VWS V14.01,2013-05-19 01:39:00,
2013-05-18 21:40:00,64.8,49.7,30.01,SE,142,0.0,0.0,58,0.00,,,0.00,VWS V14.01,2013-05-19 01:40:00,
2013-05-18 21:41:00,64.7,49.6,30.01,SE,142,0.0,0.0,58,0.00,,,0.00,VWS V14.01,2013-05-19 01:41:00,
2013-05-18 21:42:00,64.6,49.5,30.01,SE,143,0.0,0.0,58,0.00,,,0.00,VWS V14.01,2013-05-19 01:42:00,
2013-05-18 21:43:00,64.6,49.5,30.01,SE,143,0.0,0.0,58,0.00,,,0.00,VWS V14.01,2013-05-19 01:43:00,
2013-05-18 21:44:00,64.5,49.4,30.01,SE,142,0.0,0.0,58,0.00,,,0.00,VWS V14.01,2013-05-19 01:44:00,
2013-05-18 21:45:00,64.5,49.4,30.01,SE,142,0.0,0.0,58,0.00,,,0.00,VWS V14.01,2013-05-19 01:45:00,
2013-05-18 21:46:00,64.4,49.8,30.01,SE,143,0.0,0.0,59,0.00,,,0.00,VWS V14.01,2013-05-19 01:46:00,
2013-05-18 21:47:00,64.4,49.8,30.01,SE,142,0.0,0.0,59,0.00,,,0.00,VWS V14.01,2013-05-19 01:47:00,
2013-05-18 21:48:00,64.4,49.8,30.01,SE,142,0.0,0.0,59,0.00,,,0.00,VWS V14.01,2013-05-19 01:48:00,
2013-05-18 21:49:00,64.3,50.1,30.01,SE,142,0.0,0.0,60,0.00,,,0.00,VWS V14.01,2013-05-19 01:49:00,
2013-05-18 21:50:00,64.3,50.1,30.01,SE,143,0.0,0.0,60,0.00,,,0.00,VWS V14.01,2013-05-19 01:50:00,
2013-05-18 21:51:00,64.3,50.1,30.01,SE,142,0.0,0.0,60,0.00,,,0.00,VWS V14.01,2013-05-19 01:51:00,
2013-05-18 21:52:00,64.2,50.5,30.01,SE,142,0.0,0.0,61,0.00,,,0.00,VWS V14.01,2013-05-19 01:52:00,
2013-05-18 21:53:00,64.1,50.0,30.01,SE,142,0.0,0.0,60,0.00,,,0.00,VWS V14.01,2013-05-19 01:53:00,
2013-05-18 21:54:00,64.1,50.4,30.01,SE,142,0.0,0.0,61,0.00,,,0.00,VWS V14.01,2013-05-19 01:54:00,
2013-05-18 21:55:00,64.0,50.3,30.01,SE,143,0.0,0.0,61,0.00,,,0.00,VWS V14.01,2013-05-19 01:55:00,
2013-05-18 21:56:00,63.9,50.2,30.01,SE,142,0.0,0.0,61,0.00,,,0.00,VWS V14.01,2013-05-19 01:56:00,
2013-05-18 21:57:00,63.8,49.7,30.01,SE,142,0.0,0.0,60,0.00,,,0.00,VWS V14.01,2013-05-19 01:57:00,
2013-05-18 21:58:00,63.8,49.7,30.01,SE,143,0.0,0.0,60,0.00,,,0.00,VWS V14.01,2013-05-19 01:58:00,
2013-05-18 21:59:00,63.7,50.0,30.01,SE,142,0.0,0.0,61,0.00,,,0.00,VWS V14.01,2013-05-19 01:59:00,
2013-05-18 22:00:00,63.6,49.5,30.01,SE,143,0.0,0.0,60,0.00,,,0.00,VWS V14.01,2013-05-19 02:00:00,
2013-05-18 22:01:00,63.5,49.4,30.00,SE,143,0.0,0.0,60,0.00,,,0.00,VWS V14.01,2013-05-19 02:01:00,
2013-05-18 22:02:00,63.4,49.7,30.00,SE,143,0.0,0.0,61,0.00,,,0.00,VWS V14.01,2013-05-19 02:02:00,
2013-05-18 22:03:00,63.4,48.8,30.01,SE,143,0.0,0.0,59,0.00,,,0.00,VWS V14.01,2013-05-19 02:03:00,
2013-05-18 22:04:00,63.3,49.2,30.01,SE,143,0.0,0.0,60,0.00,,,0.00,VWS V14.01,2013-05-19 02:04:00,
2013-05-18 22:05:00,63.2,49.1,30.01,SE,143,0.0,0.0,60,0.00,,,0.00,VWS V14.01,2013-05-19 02:05:00,
2013-05-18 22:06:00,63.2,49.1,30.01,SE,143,0.0,0.0,60,0.00,,,0.00,VWS V14.01,2013-05-19 02:06:00,
2013-05-18 22:07:00,63.2,49.1,30.01,SE,142,0.0,0.0,60,0.00,,,0.00,VWS V14.01,2013-05-19 02:07:00,
2013-05-18 22:08:00,63.2,49.1,30.01,SE,143,0.0,0.0,60,0.00,,,0.00,VWS V14.01,2013-05-19 02:08:00,
2013-05-18 22:09:00,63.1,49.5,30.01,SE,143,0.0,0.0,61,0.00,,,0.00,VWS V14.01,2013-05-19 02:09:00,
2013-05-18 22:10:00,63.1,48.6,30.01,SE,143,0.0,0.0,59,0.00,,,0.00,VWS V14.01,2013-05-19 02:10:00,
2013-05-18 22:11:00,63.1,48.1,30.01,SE,142,0.0,0.0,58,0.00,,,0.00,VWS V14.01,2013-05-19 02:11:00,
2013-05-18 22:12:00,63.1,48.1,30.01,SE,142,0.0,0.0,58,0.00,,,0.00,VWS V14.01,2013-05-19 02:12:00,
2013-05-18 22:13:00,63.1,48.1,30.01,SE,142,0.0,0.0,58,0.00,,,0.00,VWS V14.01,2013-05-19 02:13:00,
2013-05-18 22:14:00,63.1,47.6,30.01,SE,143,0.0,0.0,57,0.00,,,0.00,VWS V14.01,2013-05-19 02:14:00,
2013-05-18 22:15:00,63.1,47.6,30.01,SE,143,0.0,0.0,57,0.00,,,0.00,VWS V14.01,2013-05-19 02:15:00,
2013-05-18 22:16:00,63.2,47.3,30.01,SE,143,0.0,0.0,56,0.00,,,0.00,VWS V14.01,2013-05-19 02:16:00,
2013-05-18 22:17:00,63.2,47.3,30.01,SE,142,0.0,0.0,56,0.00,,,0.00,VWS V14.01,2013-05-19 02:17:00,
2013-05-18 22:18:00,63.3,49.2,30.01,SE,142,0.0,0.0,60,0.00,,,0.00,VWS V14.01,2013-05-19 02:18:00,
2013-05-18 22:19:00,63.3,49.2,30.01,SE,142,0.0,0.0,60,0.00,,,0.00,VWS V14.01,2013-05-19 02:19:00,
2013-05-18 22:20:00,63.3,49.2,30.01,SE,143,0.0,0.0,60,0.00,,,0.00,VWS V14.01,2013-05-19 02:20:00,
2013-05-18 22:21:00,63.2,49.1,30.01,SE,143,0.0,0.0,60,0.00,,,0.00,VWS V14.01,2013-05-19 02:21:00,
2013-05-18 22:22:00,63.2,49.1,30.01,SE,143,0.0,0.0,60,0.00,,,0.00,VWS V14.01,2013-05-19 02:22:00,
2013-05-18 22:23:00,63.1,48.6,30.01,SE,142,0.0,0.0,59,0.00,,,0.00,VWS V14.01,2013-05-19 02:23:00,
2013-05-18 22:24:00,63.0,48.5,30.01,SE,143,0.0,0.0,59,0.00,,,0.00,VWS V14.01,2013-05-19 02:24:00,
2013-05-18 22:25:00,62.9,48.4,30.01,SE,143,0.0,0.0,59,0.00,,,0.00,VWS V14.01,2013-05-19 02:25:00,
2013-05-18 22:26:00,62.8,47.8,30.01,SE,143,0.0,0.0,58,0.00,,,0.00,VWS V14.01,2013-05-19 02:26:00,
2013-05-18 22:27:00,62.8,48.3,30.01,SE,143,0.0,0.0,59,0.00,,,0.00,VWS V14.01,2013-05-19 02:27:00,
2013-05-18 22:28:00,62.7,48.2,30.01,SE,143,0.0,0.0,59,0.00,,,0.00,VWS V14.01,2013-05-19 02:28:00,
2013-05-18 22:29:00,62.6,47.6,30.01,SE,143,0.0,0.0,58,0.00,,,0.00,VWS V14.01,2013-05-19 02:29:00,
2013-05-18 22:30:00,62.5,48.0,30.01,SE,143,0.0,0.0,59,0.00,,,0.00,VWS V14.01,2013-05-19 02:30:00,
2013-05-18 22:31:00,62.4,47.9,30.01,SE,143,0.0,0.0,59,0.00,,,0.00,VWS V14.01,2013-05-19 02:31:00,
2013-05-18 22:32:00,62.3,47.8,30.01,SE,143,0.0,0.0,59,0.00,,,0.00,VWS V14.01,2013-05-19 02:32:00,
2013-05-18 22:33:00,62.3,47.8,30.01,SE,143,0.0,0.0,59,0.00,,,0.00,VWS V14.01,2013-05-19 02:33:00,
2013-05-18 22:34:00,62.2,48.2,30.00,SE,143,0.0,0.0,60,0.00,,,0.00,VWS V14.01,2013-05-19 02:34:00,
2013-05-18 22:35:00,62.1,47.6,30.00,SE,143,0.0,0.0,59,0.00,,,0.00,VWS V14.01,2013-05-19 02:35:00,
2013-05-18 22:36:00,62.0,47.5,30.00,SE,143,0.0,0.0,59,0.00,,,0.00,VWS V14.01,2013-05-19 02:36:00,
2013-05-18 22:37:00,62.0,47.5,30.00,SE,143,0.0,0.0,59,0.00,,,0.00,VWS V14.01,2013-05-19 02:37:00,
2013-05-18 22:38:00,61.9,47.4,30.00,SE,143,0.0,0.0,59,0.00,,,0.00,VWS V14.01,2013-05-19 02:38:00,
2013-05-18 22:39:00,61.8,47.3,30.00,SE,143,0.0,0.0,59,0.00,,,0.00,VWS V14.01,2013-05-19 02:39:00,
2013-05-18 22:40:00,61.8,47.3,30.00,SE,143,0.0,0.0,59,0.00,,,0.00,VWS V14.01,2013-05-19 02:40:00,
2013-05-18 22:41:00,61.7,47.7,30.00,SE,143,0.0,0.0,60,0.00,,,0.00,VWS V14.01,2013-05-19 02:41:00,
2013-05-18 22:42:00,61.6,47.6,30.00,SE,142,0.0,0.0,60,0.00,,,0.00,VWS V14.01,2013-05-19 02:42:00,
2013-05-18 22:43:00,61.6,47.6,30.00,SE,143,0.0,0.0,60,0.00,,,0.00,VWS V14.01,2013-05-19 02:43:00,
2013-05-18 22:44:00,61.5,47.9,30.00,SE,142,0.0,0.0,61,0.00,,,0.00,VWS V14.01,2013-05-19 02:44:00,
2013-05-18 22:45:00,61.5,47.9,30.00,SE,142,0.0,0.0,61,0.00,,,0.00,VWS V14.01,2013-05-19 02:45:00,
2013-05-18 22:46:00,61.4,47.8,30.00,SE,143,0.0,0.0,61,0.00,,,0.00,VWS V14.01,2013-05-19 02:46:00,
2013-05-18 22:47:00,61.4,47.8,30.01,SE,142,0.0,0.0,61,0.00,,,0.00,VWS V14.01,2013-05-19 02:47:00,
2013-05-18 22:48:00,61.3,47.8,30.01,SE,142,0.0,0.0,61,0.00,,,0.00,VWS V14.01,2013-05-19 02:48:00,
2013-05-18 22:49:00,61.3,47.3,30.01,SE,143,0.0,0.0,60,0.00,,,0.00,VWS V14.01,2013-05-19 02:49:00,
2013-05-18 22:50:00,61.3,47.3,30.00,SE,143,0.0,0.0,60,0.00,,,0.00,VWS V14.01,2013-05-19 02:50:00,
2013-05-18 22:51:00,61.3,47.3,30.00,SE,143,0.0,0.0,60,0.00,,,0.00,VWS V14.01,2013-05-19 02:51:00,
2013-05-18 22:52:00,61.3,47.3,30.00,SE,143,0.0,0.0,60,0.00,,,0.00,VWS V14.01,2013-05-19 02:52:00,
2013-05-18 22:53:00,61.4,47.8,30.00,SE,143,0.0,0.0,61,0.00,,,0.00,VWS V14.01,2013-05-19 02:53:00,
2013-05-18 22:54:00,61.4,47.8,30.00,SE,143,0.0,0.0,61,0.00,,,0.00,VWS V14.01,2013-05-19 02:54:00,
2013-05-18 22:55:00,61.4,47.8,30.00,SE,143,0.0,0.0,61,0.00,,,0.00,VWS V14.01,2013-05-19 02:55:00,
2013-05-18 22:56:00,61.4,47.8,30.00,SE,143,0.0,0.0,61,0.00,,,0.00,VWS V14.01,2013-05-19 02:56:00,
2013-05-18 22:57:00,61.3,47.8,30.00,SE,143,0.0,0.0,61,0.00,,,0.00,VWS V14.01,2013-05-19 02:57:00,
2013-05-18 22:58:00,61.3,48.2,30.00,SE,143,0.0,0.0,62,0.00,,,0.00,VWS V14.01,2013-05-19 02:58:00,
2013-05-18 22:59:00,61.3,48.2,30.00,SE,143,0.0,0.0,62,0.00,,,0.00,VWS V14.01,2013-05-19 02:59:00,
2013-05-18 23:00:00,61.3,48.2,30.00,SE,143,0.0,0.0,62,0.00,,,0.00,VWS V14.01,2013-05-19 03:00:00,
2013-05-18 23:01:00,61.2,48.1,30.00,SE,143,0.0,0.0,62,0.00,,,0.00,VWS V14.01,2013-05-19 03:01:00,
2013-05-18 23:02:00,61.2,48.1,30.00,SE,142,0.0,0.0,62,0.00,,,0.00,VWS V14.01,2013-05-19 03:02:00,
2013-05-18 23:03:00,61.2,48.1,30.00,SE,143,0.0,0.0,62,0.00,,,0.00,VWS V14.01,2013-05-19 03:03:00,
2013-05-18 23:04:00,61.1,48.0,30.00,SE,142,0.0,0.0,62,0.00,,,0.00,VWS V14.01,2013-05-19 03:04:00,
2013-05-18 23:05:00,61.1,48.0,30.00,SE,143,0.0,0.0,62,0.00,,,0.00,VWS V14.01,2013-05-19 03:05:00,
2013-05-18 23:06:00,61.0,47.9,30.00,SE,143,0.0,0.0,62,0.00,,,0.00,VWS V14.01,2013-05-19 03:06:00,
2013-05-18 23:07:00,61.0,47.9,30.00,SE,143,0.0,0.0,62,0.00,,,0.00,VWS V14.01,2013-05-19 03:07:00,
2013-05-18 23:08:00,60.9,47.8,30.00,SE,143,0.0,0.0,62,0.00,,,0.00,VWS V14.01,2013-05-19 03:08:00,
2013-05-18 23:09:00,60.9,47.8,30.00,SE,142,0.0,0.0,62,0.00,,,0.00,VWS V14.01,2013-05-19 03:09:00,
2013-05-18 23:10:00,60.8,47.7,30.00,SE,142,0.0,0.0,62,0.00,,,0.00,VWS V14.01,2013-05-19 03:10:00,
2013-05-18 23:11:00,60.8,48.1,30.00,SE,143,0.0,0.0,63,0.00,,,0.00,VWS V14.01,2013-05-19 03:11:00,
2013-05-18 23:12:00,60.7,48.0,30.00,SE,143,0.0,0.0,63,0.00,,,0.00,VWS V14.01,2013-05-19 03:12:00,
2013-05-18 23:13:00,60.7,48.0,30.00,SE,143,0.0,0.0,63,0.00,,,0.00,VWS V14.01,2013-05-19 03:13:00,
2013-05-18 23:14:00,60.6,48.0,30.00,SE,143,0.0,0.0,63,0.00,,,0.00,VWS V14.01,2013-05-19 03:14:00,
2013-05-18 23:15:00,60.6,48.0,30.00,SE,142,0.0,0.0,63,0.00,,,0.00,VWS V14.01,2013-05-19 03:15:00,
2013-05-18 23:16:00,60.5,47.4,30.00,SE,142,0.0,0.0,62,0.00,,,0.00,VWS V14.01,2013-05-19 03:16:00,
2013-05-18 23:17:00,60.4,47.3,30.00,SE,143,0.0,0.0,62,0.00,,,0.00,VWS V14.01,2013-05-19 03:17:00,
2013-05-18 23:18:00,60.4,47.3,30.00,SE,143,0.0,0.0,62,0.00,,,0.00,VWS V14.01,2013-05-19 03:18:00,
2013-05-18 23:19:00,60.4,47.3,30.00,SE,143,0.0,0.0,62,0.00,,,0.00,VWS V14.01,2013-05-19 03:19:00,
2013-05-18 23:20:00,60.3,47.2,30.00,SE,142,0.0,0.0,62,0.00,,,0.00,VWS V14.01,2013-05-19 03:20:00,
2013-05-18 23:21:00,60.2,47.2,30.00,SE,143,0.0,0.0,62,0.00,,,0.00,VWS V14.01,2013-05-19 03:21:00,
2013-05-18 23:22:00,60.2,47.2,30.00,SE,143,0.0,0.0,62,0.00,,,0.00,VWS V14.01,2013-05-19 03:22:00,
2013-05-18 23:23:00,60.2,47.2,30.00,SE,143,0.0,0.0,62,0.00,,,0.00,VWS V14.01,2013-05-19 03:23:00,
2013-05-18 23:24:00,60.1,47.0,30.00,SE,143,0.0,0.0,62,0.00,,,0.00,VWS V14.01,2013-05-19 03:24:00,
2013-05-18 23:25:00,60.1,47.0,30.00,SE,143,0.0,0.0,62,0.00,,,0.00,VWS V14.01,2013-05-19 03:25:00,
2013-05-18 23:26:00,60.0,47.0,30.00,SE,143,0.0,0.0,62,0.00,,,0.00,VWS V14.01,2013-05-19 03:26:00,
2013-05-18 23:27:00,60.0,47.0,30.00,SE,142,0.0,0.0,62,0.00,,,0.00,VWS V14.01,2013-05-19 03:27:00,
2013-05-18 23:28:00,60.0,47.0,30.00,SE,142,0.0,0.0,62,0.00,,,0.00,VWS V14.01,2013-05-19 03:28:00,
2013-05-18 23:29:00,59.9,46.9,30.00,SE,143,0.0,0.0,62,0.00,,,0.00,VWS V14.01,2013-05-19 03:29:00,
2013-05-18 23:30:00,59.9,46.9,30.00,SE,143,0.0,0.0,62,0.00,,,0.00,VWS V14.01,2013-05-19 03:30:00,
2013-05-18 23:31:00,59.9,46.9,30.00,SE,143,0.0,0.0,62,0.00,,,0.00,VWS V14.01,2013-05-19 03:31:00,
2013-05-18 23:32:00,59.8,47.2,30.00,SE,143,0.0,0.0,63,0.00,,,0.00,VWS V14.01,2013-05-19 03:32:00,
2013-05-18 23:33:00,59.8,46.8,30.00,SE,143,0.0,0.0,62,0.00,,,0.00,VWS V14.01,2013-05-19 03:33:00,
2013-05-18 23:34:00,59.8,46.8,30.00,SE,142,0.0,0.0,62,0.00,,,0.00,VWS V14.01,2013-05-19 03:34:00,
2013-05-18 23:35:00,59.8,46.8,30.00,SE,143,0.0,0.0,62,0.00,,,0.00,VWS V14.01,2013-05-19 03:35:00,
2013-05-18 23:36:00,59.7,46.7,30.00,SE,142,0.0,0.0,62,0.00,,,0.00,VWS V14.01,2013-05-19 03:36:00,
2013-05-18 23:37:00,59.7,46.7,30.00,SE,143,0.0,0.0,62,0.00,,,0.00,VWS V14.01,2013-05-19 03:37:00,
2013-05-18 23:38:00,59.7,46.7,30.00,SE,143,0.0,0.0,62,0.00,,,0.00,VWS V14.01,2013-05-19 03:38:00,
2013-05-18 23:39:00,59.7,47.1,30.00,SE,142,0.0,0.0,63,0.00,,,0.00,VWS V14.01,2013-05-19 03:39:00,
2013-05-18 23:40:00,59.7,47.1,30.00,SE,143,0.0,0.0,63,0.00,,,0.00,VWS V14.01,2013-05-19 03:40:00,
2013-05-18 23:41:00,59.6,47.0,30.00,SE,143,0.0,0.0,63,0.00,,,0.00,VWS V14.01,2013-05-19 03:41:00,
2013-05-18 23:42:00,59.6,47.0,30.00,SE,143,0.0,0.0,63,0.00,,,0.00,VWS V14.01,2013-05-19 03:42:00,
2013-05-18 23:43:00,59.6,47.0,30.00,SE,143,0.0,0.0,63,0.00,,,0.00,VWS V14.01,2013-05-19 03:43:00,
2013-05-18 23:44:00,59.6,47.0,30.00,SE,142,0.0,0.0,63,0.00,,,0.00,VWS V14.01,2013-05-19 03:44:00,
2013-05-18 23:45:00,59.6,47.0,30.00,SE,142,0.0,0.0,63,0.00,,,0.00,VWS V14.01,2013-05-19 03:45:00,
2013-05-18 23:46:00,59.5,47.3,30.00,SE,143,0.0,0.0,64,0.00,,,0.00,VWS V14.01,2013-05-19 03:46:00,
2013-05-18 23:47:00,59.5,46.9,30.00,SE,143,0.0,0.0,63,0.00,,,0.00,VWS V14.01,2013-05-19 03:47:00,
2013-05-18 23:48:00,59.5,47.3,30.00,SE,143,0.0,0.0,64,0.00,,,0.00,VWS V14.01,2013-05-19 03:48:00,
2013-05-18 23:49:00,59.5,47.3,30.00,SE,143,0.0,0.0,64,0.00,,,0.00,VWS V14.01,2013-05-19 03:49:00,
2013-05-18 23:50:00,59.4,47.2,30.00,SE,143,0.0,0.0,64,0.00,,,0.00,VWS V14.01,2013-05-19 03:50:00,
2013-05-18 23:51:00,59.4,46.8,30.00,SE,143,0.0,0.0,63,0.00,,,0.00,VWS V14.01,2013-05-19 03:51:00,
2013-05-18 23:52:00,59.3,47.1,30.00,SE,143,0.0,0.0,64,0.00,,,0.00,VWS V14.01,2013-05-19 03:52:00,
2013-05-18 23:53:00,59.3,47.1,30.00,SE,143,0.0,0.0,64,0.00,,,0.00,VWS V14.01,2013-05-19 03:53:00,
2013-05-18 23:54:00,59.3,47.1,30.00,SE,143,0.0,0.0,64,0.00,,,0.00,VWS V14.01,2013-05-19 03:54:00,
2013-05-18 23:55:00,59.2,46.6,30.00,SE,143,0.0,0.0,63,0.00,,,0.00,VWS V14.01,2013-05-19 03:55:00,
2013-05-18 23:56:00,59.2,47.0,30.00,SE,143,0.0,0.0,64,0.00,,,0.00,VWS V14.01,2013-05-19 03:56:00,
2013-05-18 23:57:00,59.2,47.0,30.00,SE,142,0.0,0.0,64,0.00,,,0.00,VWS V14.01,2013-05-19 03:57:00,
2013-05-18 23:58:00,59.1,47.0,30.00,SE,143,0.0,0.0,64,0.00,,,0.00,VWS V14.01,2013-05-19 03:58:00,
2013-05-18 23:59:00,59.0,46.8,30.00,SE,143,0.0,0.0,64,0.00,,,0.00,VWS V14.01,2013-05-19 03:59:00,